<?xml version="1.0" encoding="UTF-8" standalone="no" ?>
<gpx xmlns="http://www.topografix.com/GPX/1/1" xmlns:xsi="http://www.w3.org/2001/XMLSchema-instance" xsi:schemaLocation="http://www.topografix.com/GPX/1/1 http://www.topografix.com/GPX/1/1/gpx.xsd" version="1.1" creator="VisuGPX - https://www.visugpx.com">
  <metadata>
    <name>Circuit VTT Dordogne 30 km</name>
    <desc><![CDATA[Circuit au départ de Saint Léon sur Vézère]]></desc>
  </metadata>
  <trk>
    <name><![CDATA[Le Ruth-Préhisto Parc-Castel Merle-St Léon-Côte de Jor]]></name>
    <desc><![CDATA[Première sortie clients]]></desc>
    <trkseg>
      <trkpt lat="45.00179" lon="1.07163">
        <ele>66.400001525879</ele>
        <time>2011-06-29T07:16:26.000Z</time>
      </trkpt>
      <trkpt lat="45.00173" lon="1.07162">
        <ele>66.400001525879</ele>
        <time>2011-06-29T07:16:30.000Z</time>
      </trkpt>
      <trkpt lat="45.00169" lon="1.07171">
        <ele>66</ele>
        <time>2011-06-29T07:16:33.000Z</time>
      </trkpt>
      <trkpt lat="45.00161" lon="1.07202">
        <ele>65.800003051758</ele>
        <time>2011-06-29T07:16:40.000Z</time>
      </trkpt>
      <trkpt lat="45.00153" lon="1.07242">
        <ele>65.199996948242</ele>
        <time>2011-06-29T07:16:48.000Z</time>
      </trkpt>
      <trkpt lat="45.00152" lon="1.07287">
        <ele>66.199996948242</ele>
        <time>2011-06-29T07:16:57.000Z</time>
      </trkpt>
      <trkpt lat="45.00152" lon="1.07324">
        <ele>66.800003051758</ele>
        <time>2011-06-29T07:17:05.000Z</time>
      </trkpt>
      <trkpt lat="45.0015" lon="1.0737">
        <ele>67.800003051758</ele>
        <time>2011-06-29T07:17:14.000Z</time>
      </trkpt>
      <trkpt lat="45.00144" lon="1.07417">
        <ele>67.599998474121</ele>
        <time>2011-06-29T07:17:23.000Z</time>
      </trkpt>
      <trkpt lat="45.00137" lon="1.07461">
        <ele>68</ele>
        <time>2011-06-29T07:17:32.000Z</time>
      </trkpt>
      <trkpt lat="45.0013" lon="1.07505">
        <ele>67</ele>
        <time>2011-06-29T07:17:40.000Z</time>
      </trkpt>
      <trkpt lat="45.00115" lon="1.07517">
        <ele>66</ele>
        <time>2011-06-29T07:17:44.000Z</time>
      </trkpt>
      <trkpt lat="45.00106" lon="1.07513">
        <ele>66</ele>
        <time>2011-06-29T07:17:46.000Z</time>
      </trkpt>
      <trkpt lat="45.00069" lon="1.07499">
        <ele>66</ele>
        <time>2011-06-29T07:17:53.000Z</time>
      </trkpt>
      <trkpt lat="45.00051" lon="1.07496">
        <ele>66</ele>
        <time>2011-06-29T07:17:57.000Z</time>
      </trkpt>
      <trkpt lat="45.00032" lon="1.0749">
        <ele>65.800003051758</ele>
        <time>2011-06-29T07:18:01.000Z</time>
      </trkpt>
      <trkpt lat="45.00015" lon="1.07486">
        <ele>65.800003051758</ele>
        <time>2011-06-29T07:18:05.000Z</time>
      </trkpt>
      <trkpt lat="44.99992" lon="1.07475">
        <ele>65.599998474121</ele>
        <time>2011-06-29T07:18:11.000Z</time>
      </trkpt>
      <trkpt lat="44.99975" lon="1.07468">
        <ele>65.599998474121</ele>
        <time>2011-06-29T07:18:16.000Z</time>
      </trkpt>
      <trkpt lat="44.99967" lon="1.07466">
        <ele>65.400001525879</ele>
        <time>2011-06-29T07:18:18.000Z</time>
      </trkpt>
      <trkpt lat="44.99931" lon="1.07458">
        <ele>66.599998474121</ele>
        <time>2011-06-29T07:18:27.000Z</time>
      </trkpt>
      <trkpt lat="44.99901" lon="1.07457">
        <ele>67.400001525879</ele>
        <time>2011-06-29T07:18:34.000Z</time>
      </trkpt>
      <trkpt lat="44.99863" lon="1.07458">
        <ele>67.400001525879</ele>
        <time>2011-06-29T07:18:43.000Z</time>
      </trkpt>
      <trkpt lat="44.99828" lon="1.07455">
        <ele>67.599998474121</ele>
        <time>2011-06-29T07:18:51.000Z</time>
      </trkpt>
      <trkpt lat="44.99815" lon="1.07454">
        <ele>67.199996948242</ele>
        <time>2011-06-29T07:18:54.000Z</time>
      </trkpt>
      <trkpt lat="44.99776" lon="1.0745">
        <ele>67.199996948242</ele>
        <time>2011-06-29T07:19:03.000Z</time>
      </trkpt>
      <trkpt lat="44.9974" lon="1.07439">
        <ele>67.800003051758</ele>
        <time>2011-06-29T07:19:12.000Z</time>
      </trkpt>
      <trkpt lat="44.99716" lon="1.07434">
        <ele>68</ele>
        <time>2011-06-29T07:19:18.000Z</time>
      </trkpt>
      <trkpt lat="44.9968" lon="1.07425">
        <ele>68</ele>
        <time>2011-06-29T07:19:26.000Z</time>
      </trkpt>
      <trkpt lat="44.99655" lon="1.0742">
        <ele>68.400001525879</ele>
        <time>2011-06-29T07:19:32.000Z</time>
      </trkpt>
      <trkpt lat="44.99651" lon="1.07419">
        <ele>68.400001525879</ele>
        <time>2011-06-29T07:19:33.000Z</time>
      </trkpt>
      <trkpt lat="44.99607" lon="1.07406">
        <ele>68.199996948242</ele>
        <time>2011-06-29T07:19:43.000Z</time>
      </trkpt>
      <trkpt lat="44.99595" lon="1.07401">
        <ele>68.599998474121</ele>
        <time>2011-06-29T07:19:46.000Z</time>
      </trkpt>
      <trkpt lat="44.99564" lon="1.07394">
        <ele>69.599998474121</ele>
        <time>2011-06-29T07:19:53.000Z</time>
      </trkpt>
      <trkpt lat="44.99541" lon="1.07388">
        <ele>69.400001525879</ele>
        <time>2011-06-29T07:19:58.000Z</time>
      </trkpt>
      <trkpt lat="44.99507" lon="1.07375">
        <ele>69.199996948242</ele>
        <time>2011-06-29T07:20:06.000Z</time>
      </trkpt>
      <trkpt lat="44.99467" lon="1.0736">
        <ele>69</ele>
        <time>2011-06-29T07:20:16.000Z</time>
      </trkpt>
      <trkpt lat="44.99447" lon="1.07349">
        <ele>69.199996948242</ele>
        <time>2011-06-29T07:20:21.000Z</time>
      </trkpt>
      <trkpt lat="44.99424" lon="1.07351">
        <ele>69.199996948242</ele>
        <time>2011-06-29T07:20:26.000Z</time>
      </trkpt>
      <trkpt lat="44.99407" lon="1.07348">
        <ele>69</ele>
        <time>2011-06-29T07:20:30.000Z</time>
      </trkpt>
      <trkpt lat="44.99358" lon="1.0733">
        <ele>68.400001525879</ele>
        <time>2011-06-29T07:20:41.000Z</time>
      </trkpt>
      <trkpt lat="44.9932" lon="1.07318">
        <ele>68.599998474121</ele>
        <time>2011-06-29T07:20:49.000Z</time>
      </trkpt>
      <trkpt lat="44.99279" lon="1.073">
        <ele>68.199996948242</ele>
        <time>2011-06-29T07:20:58.000Z</time>
      </trkpt>
      <trkpt lat="44.9927" lon="1.07293">
        <ele>68.199996948242</ele>
        <time>2011-06-29T07:21:00.000Z</time>
      </trkpt>
      <trkpt lat="44.9924" lon="1.0728">
        <ele>68.599998474121</ele>
        <time>2011-06-29T07:21:07.000Z</time>
      </trkpt>
      <trkpt lat="44.99227" lon="1.07275">
        <ele>70.199996948242</ele>
        <time>2011-06-29T07:21:10.000Z</time>
      </trkpt>
      <trkpt lat="44.99193" lon="1.07253">
        <ele>70.400001525879</ele>
        <time>2011-06-29T07:21:18.000Z</time>
      </trkpt>
      <trkpt lat="44.99157" lon="1.07234">
        <ele>69.800003051758</ele>
        <time>2011-06-29T07:21:26.000Z</time>
      </trkpt>
      <trkpt lat="44.99117" lon="1.07211">
        <ele>69.800003051758</ele>
        <time>2011-06-29T07:21:35.000Z</time>
      </trkpt>
      <trkpt lat="44.99081" lon="1.0719">
        <ele>69.400001525879</ele>
        <time>2011-06-29T07:21:43.000Z</time>
      </trkpt>
      <trkpt lat="44.99044" lon="1.07157">
        <ele>69</ele>
        <time>2011-06-29T07:21:52.000Z</time>
      </trkpt>
      <trkpt lat="44.99017" lon="1.0713">
        <ele>69.199996948242</ele>
        <time>2011-06-29T07:21:59.000Z</time>
      </trkpt>
      <trkpt lat="44.99013" lon="1.07124">
        <ele>69.400001525879</ele>
        <time>2011-06-29T07:22:00.000Z</time>
      </trkpt>
      <trkpt lat="44.98996" lon="1.07081">
        <ele>69.599998474121</ele>
        <time>2011-06-29T07:22:07.000Z</time>
      </trkpt>
      <trkpt lat="44.98996" lon="1.07046">
        <ele>69.199996948242</ele>
        <time>2011-06-29T07:22:13.000Z</time>
      </trkpt>
      <trkpt lat="44.99006" lon="1.07032">
        <ele>68</ele>
        <time>2011-06-29T07:22:17.000Z</time>
      </trkpt>
      <trkpt lat="44.99012" lon="1.07027">
        <ele>68</ele>
        <time>2011-06-29T07:22:19.000Z</time>
      </trkpt>
      <trkpt lat="44.99029" lon="1.07">
        <ele>67.400001525879</ele>
        <time>2011-06-29T07:22:26.000Z</time>
      </trkpt>
      <trkpt lat="44.99038" lon="1.06968">
        <ele>67.400001525879</ele>
        <time>2011-06-29T07:22:32.000Z</time>
      </trkpt>
      <trkpt lat="44.99044" lon="1.06922">
        <ele>67.800003051758</ele>
        <time>2011-06-29T07:22:39.000Z</time>
      </trkpt>
      <trkpt lat="44.99053" lon="1.06868">
        <ele>67.599998474121</ele>
        <time>2011-06-29T07:22:47.000Z</time>
      </trkpt>
      <trkpt lat="44.99061" lon="1.06834">
        <ele>69.400001525879</ele>
        <time>2011-06-29T07:22:52.000Z</time>
      </trkpt>
      <trkpt lat="44.99063" lon="1.06827">
        <ele>69.800003051758</ele>
        <time>2011-06-29T07:22:53.000Z</time>
      </trkpt>
      <trkpt lat="44.99071" lon="1.06793">
        <ele>73.800003051758</ele>
        <time>2011-06-29T07:22:58.000Z</time>
      </trkpt>
      <trkpt lat="44.9908" lon="1.06767">
        <ele>72.599998474121</ele>
        <time>2011-06-29T07:23:02.000Z</time>
      </trkpt>
      <trkpt lat="44.991" lon="1.06724">
        <ele>67.400001525879</ele>
        <time>2011-06-29T07:23:09.000Z</time>
      </trkpt>
      <trkpt lat="44.9911" lon="1.06706">
        <ele>66</ele>
        <time>2011-06-29T07:23:12.000Z</time>
      </trkpt>
      <trkpt lat="44.99127" lon="1.06651">
        <ele>65.400001525879</ele>
        <time>2011-06-29T07:23:20.000Z</time>
      </trkpt>
      <trkpt lat="44.99133" lon="1.06624">
        <ele>65.599998474121</ele>
        <time>2011-06-29T07:23:24.000Z</time>
      </trkpt>
      <trkpt lat="44.99136" lon="1.06611">
        <ele>65.199996948242</ele>
        <time>2011-06-29T07:23:26.000Z</time>
      </trkpt>
      <trkpt lat="44.99143" lon="1.06576">
        <ele>65.800003051758</ele>
        <time>2011-06-29T07:23:31.000Z</time>
      </trkpt>
      <trkpt lat="44.99148" lon="1.06531">
        <ele>64.800003051758</ele>
        <time>2011-06-29T07:23:37.000Z</time>
      </trkpt>
      <trkpt lat="44.99157" lon="1.06463">
        <ele>64.800003051758</ele>
        <time>2011-06-29T07:23:46.000Z</time>
      </trkpt>
      <trkpt lat="44.99162" lon="1.0642">
        <ele>63.599998474121</ele>
        <time>2011-06-29T07:23:52.000Z</time>
      </trkpt>
      <trkpt lat="44.99173" lon="1.06376">
        <ele>61</ele>
        <time>2011-06-29T07:23:58.000Z</time>
      </trkpt>
      <trkpt lat="44.99181" lon="1.0633">
        <ele>62.200000762939</ele>
        <time>2011-06-29T07:24:04.000Z</time>
      </trkpt>
      <trkpt lat="44.99189" lon="1.06292">
        <ele>61.799999237061</ele>
        <time>2011-06-29T07:24:09.000Z</time>
      </trkpt>
      <trkpt lat="44.99197" lon="1.06225">
        <ele>62.400001525879</ele>
        <time>2011-06-29T07:24:18.000Z</time>
      </trkpt>
      <trkpt lat="44.99198" lon="1.06206">
        <ele>62.400001525879</ele>
        <time>2011-06-29T07:24:21.000Z</time>
      </trkpt>
      <trkpt lat="44.99188" lon="1.0617">
        <ele>61.200000762939</ele>
        <time>2011-06-29T07:24:27.000Z</time>
      </trkpt>
      <trkpt lat="44.99193" lon="1.06143">
        <ele>61.200000762939</ele>
        <time>2011-06-29T07:24:31.000Z</time>
      </trkpt>
      <trkpt lat="44.99196" lon="1.0612">
        <ele>60.599998474121</ele>
        <time>2011-06-29T07:24:36.000Z</time>
      </trkpt>
      <trkpt lat="44.99195" lon="1.06115">
        <ele>60.400001525879</ele>
        <time>2011-06-29T07:24:37.000Z</time>
      </trkpt>
      <trkpt lat="44.99195" lon="1.06074">
        <ele>60</ele>
        <time>2011-06-29T07:24:45.000Z</time>
      </trkpt>
      <trkpt lat="44.99195" lon="1.06045">
        <ele>60.799999237061</ele>
        <time>2011-06-29T07:24:50.000Z</time>
      </trkpt>
      <trkpt lat="44.99194" lon="1.06007">
        <ele>62.400001525879</ele>
        <time>2011-06-29T07:24:56.000Z</time>
      </trkpt>
      <trkpt lat="44.9919" lon="1.05957">
        <ele>61.599998474121</ele>
        <time>2011-06-29T07:25:04.000Z</time>
      </trkpt>
      <trkpt lat="44.99187" lon="1.05915">
        <ele>61</ele>
        <time>2011-06-29T07:25:11.000Z</time>
      </trkpt>
      <trkpt lat="44.99183" lon="1.05873">
        <ele>61.599998474121</ele>
        <time>2011-06-29T07:25:18.000Z</time>
      </trkpt>
      <trkpt lat="44.99184" lon="1.05863">
        <ele>62.599998474121</ele>
        <time>2011-06-29T07:25:20.000Z</time>
      </trkpt>
      <trkpt lat="44.99199" lon="1.05852">
        <ele>63</ele>
        <time>2011-06-29T07:25:24.000Z</time>
      </trkpt>
      <trkpt lat="44.99212" lon="1.0584">
        <ele>62.200000762939</ele>
        <time>2011-06-29T07:25:28.000Z</time>
      </trkpt>
      <trkpt lat="44.99213" lon="1.05828">
        <ele>62.200000762939</ele>
        <time>2011-06-29T07:25:30.000Z</time>
      </trkpt>
      <trkpt lat="44.99215" lon="1.05788">
        <ele>62.799999237061</ele>
        <time>2011-06-29T07:25:37.000Z</time>
      </trkpt>
      <trkpt lat="44.99219" lon="1.05735">
        <ele>64</ele>
        <time>2011-06-29T07:25:45.000Z</time>
      </trkpt>
      <trkpt lat="44.9923" lon="1.0569">
        <ele>63.599998474121</ele>
        <time>2011-06-29T07:25:51.000Z</time>
      </trkpt>
      <trkpt lat="44.99234" lon="1.05675">
        <ele>63.200000762939</ele>
        <time>2011-06-29T07:25:53.000Z</time>
      </trkpt>
      <trkpt lat="44.99239" lon="1.05644">
        <ele>62.799999237061</ele>
        <time>2011-06-29T07:25:57.000Z</time>
      </trkpt>
      <trkpt lat="44.9924" lon="1.05589">
        <ele>63.400001525879</ele>
        <time>2011-06-29T07:26:05.000Z</time>
      </trkpt>
      <trkpt lat="44.99246" lon="1.05558">
        <ele>65.199996948242</ele>
        <time>2011-06-29T07:26:10.000Z</time>
      </trkpt>
      <trkpt lat="44.99264" lon="1.05522">
        <ele>70.599998474121</ele>
        <time>2011-06-29T07:26:18.000Z</time>
      </trkpt>
      <trkpt lat="44.99279" lon="1.05504">
        <ele>71.599998474121</ele>
        <time>2011-06-29T07:26:24.000Z</time>
      </trkpt>
      <trkpt lat="44.99281" lon="1.05499">
        <ele>72</ele>
        <time>2011-06-29T07:26:25.000Z</time>
      </trkpt>
      <trkpt lat="44.99277" lon="1.05483">
        <ele>74.400001525879</ele>
        <time>2011-06-29T07:26:29.000Z</time>
      </trkpt>
      <trkpt lat="44.99255" lon="1.05452">
        <ele>76.199996948242</ele>
        <time>2011-06-29T07:26:38.000Z</time>
      </trkpt>
      <trkpt lat="44.99236" lon="1.05429">
        <ele>77.199996948242</ele>
        <time>2011-06-29T07:26:45.000Z</time>
      </trkpt>
      <trkpt lat="44.99219" lon="1.05407">
        <ele>80</ele>
        <time>2011-06-29T07:26:51.000Z</time>
      </trkpt>
      <trkpt lat="44.99204" lon="1.05388">
        <ele>81.800003051758</ele>
        <time>2011-06-29T07:26:56.000Z</time>
      </trkpt>
      <trkpt lat="44.99186" lon="1.05353">
        <ele>84.800003051758</ele>
        <time>2011-06-29T07:27:03.000Z</time>
      </trkpt>
      <trkpt lat="44.99173" lon="1.05316">
        <ele>84.199996948242</ele>
        <time>2011-06-29T07:27:09.000Z</time>
      </trkpt>
      <trkpt lat="44.99175" lon="1.05288">
        <ele>84.800003051758</ele>
        <time>2011-06-29T07:27:13.000Z</time>
      </trkpt>
      <trkpt lat="44.99193" lon="1.05255">
        <ele>90</ele>
        <time>2011-06-29T07:27:21.000Z</time>
      </trkpt>
      <trkpt lat="44.99208" lon="1.05234">
        <ele>91.400001525879</ele>
        <time>2011-06-29T07:27:27.000Z</time>
      </trkpt>
      <trkpt lat="44.99225" lon="1.0521">
        <ele>90.800003051758</ele>
        <time>2011-06-29T07:27:34.000Z</time>
      </trkpt>
      <trkpt lat="44.99243" lon="1.05193">
        <ele>90.400001525879</ele>
        <time>2011-06-29T07:27:40.000Z</time>
      </trkpt>
      <trkpt lat="44.99262" lon="1.05177">
        <ele>88</ele>
        <time>2011-06-29T07:27:46.000Z</time>
      </trkpt>
      <trkpt lat="44.99277" lon="1.05165">
        <ele>84.800003051758</ele>
        <time>2011-06-29T07:27:51.000Z</time>
      </trkpt>
      <trkpt lat="44.99295" lon="1.05149">
        <ele>79.400001525879</ele>
        <time>2011-06-29T07:27:57.000Z</time>
      </trkpt>
      <trkpt lat="44.99319" lon="1.05127">
        <ele>77.199996948242</ele>
        <time>2011-06-29T07:28:04.000Z</time>
      </trkpt>
      <trkpt lat="44.99343" lon="1.05105">
        <ele>77.400001525879</ele>
        <time>2011-06-29T07:28:10.000Z</time>
      </trkpt>
      <trkpt lat="44.99374" lon="1.05073">
        <ele>80.400001525879</ele>
        <time>2011-06-29T07:28:18.000Z</time>
      </trkpt>
      <trkpt lat="44.99404" lon="1.05043">
        <ele>82.800003051758</ele>
        <time>2011-06-29T07:28:27.000Z</time>
      </trkpt>
      <trkpt lat="44.99428" lon="1.05022">
        <ele>84.199996948242</ele>
        <time>2011-06-29T07:28:34.000Z</time>
      </trkpt>
      <trkpt lat="44.99446" lon="1.05005">
        <ele>83.800003051758</ele>
        <time>2011-06-29T07:28:40.000Z</time>
      </trkpt>
      <trkpt lat="44.99467" lon="1.04994">
        <ele>85.199996948242</ele>
        <time>2011-06-29T07:28:46.000Z</time>
      </trkpt>
      <trkpt lat="44.99485" lon="1.04987">
        <ele>85.400001525879</ele>
        <time>2011-06-29T07:28:51.000Z</time>
      </trkpt>
      <trkpt lat="44.995" lon="1.0498">
        <ele>84.599998474121</ele>
        <time>2011-06-29T07:28:56.000Z</time>
      </trkpt>
      <trkpt lat="44.99523" lon="1.04971">
        <ele>83.800003051758</ele>
        <time>2011-06-29T07:29:02.000Z</time>
      </trkpt>
      <trkpt lat="44.99541" lon="1.04965">
        <ele>86.599998474121</ele>
        <time>2011-06-29T07:29:07.000Z</time>
      </trkpt>
      <trkpt lat="44.99562" lon="1.04955">
        <ele>85.800003051758</ele>
        <time>2011-06-29T07:29:13.000Z</time>
      </trkpt>
      <trkpt lat="44.99579" lon="1.04947">
        <ele>84.800003051758</ele>
        <time>2011-06-29T07:29:18.000Z</time>
      </trkpt>
      <trkpt lat="44.99594" lon="1.04943">
        <ele>83.400001525879</ele>
        <time>2011-06-29T07:29:23.000Z</time>
      </trkpt>
      <trkpt lat="44.99608" lon="1.0493">
        <ele>80.800003051758</ele>
        <time>2011-06-29T07:29:28.000Z</time>
      </trkpt>
      <trkpt lat="44.99625" lon="1.04918">
        <ele>77.199996948242</ele>
        <time>2011-06-29T07:29:33.000Z</time>
      </trkpt>
      <trkpt lat="44.99645" lon="1.04903">
        <ele>73.400001525879</ele>
        <time>2011-06-29T07:29:39.000Z</time>
      </trkpt>
      <trkpt lat="44.99663" lon="1.04889">
        <ele>70.599998474121</ele>
        <time>2011-06-29T07:29:44.000Z</time>
      </trkpt>
      <trkpt lat="44.99683" lon="1.04874">
        <ele>67.400001525879</ele>
        <time>2011-06-29T07:29:50.000Z</time>
      </trkpt>
      <trkpt lat="44.99702" lon="1.04858">
        <ele>70.800003051758</ele>
        <time>2011-06-29T07:29:56.000Z</time>
      </trkpt>
      <trkpt lat="44.99714" lon="1.04846">
        <ele>75.400001525879</ele>
        <time>2011-06-29T07:30:00.000Z</time>
      </trkpt>
      <trkpt lat="44.99725" lon="1.04832">
        <ele>76.400001525879</ele>
        <time>2011-06-29T07:30:06.000Z</time>
      </trkpt>
      <trkpt lat="44.99729" lon="1.04825">
        <ele>76.199996948242</ele>
        <time>2011-06-29T07:30:08.000Z</time>
      </trkpt>
      <trkpt lat="44.9974" lon="1.04803">
        <ele>80.800003051758</ele>
        <time>2011-06-29T07:30:15.000Z</time>
      </trkpt>
      <trkpt lat="44.9975" lon="1.04782">
        <ele>80.599998474121</ele>
        <time>2011-06-29T07:30:21.000Z</time>
      </trkpt>
      <trkpt lat="44.99752" lon="1.04773">
        <ele>81.400001525879</ele>
        <time>2011-06-29T07:30:23.000Z</time>
      </trkpt>
      <trkpt lat="44.99749" lon="1.04751">
        <ele>82.199996948242</ele>
        <time>2011-06-29T07:30:27.000Z</time>
      </trkpt>
      <trkpt lat="44.9975" lon="1.0474">
        <ele>85.599998474121</ele>
        <time>2011-06-29T07:30:29.000Z</time>
      </trkpt>
      <trkpt lat="44.99756" lon="1.04708">
        <ele>97.599998474121</ele>
        <time>2011-06-29T07:30:36.000Z</time>
      </trkpt>
      <trkpt lat="44.99753" lon="1.047">
        <ele>101.19999694824</ele>
        <time>2011-06-29T07:30:40.000Z</time>
      </trkpt>
      <trkpt lat="44.99751" lon="1.04701">
        <ele>102</ele>
        <time>2011-06-29T07:30:41.000Z</time>
      </trkpt>
      <trkpt lat="44.99748" lon="1.04705">
        <ele>104.19999694824</ele>
        <time>2011-06-29T07:30:44.000Z</time>
      </trkpt>
      <trkpt lat="44.99744" lon="1.04709">
        <ele>107.40000152588</ele>
        <time>2011-06-29T07:30:48.000Z</time>
      </trkpt>
      <trkpt lat="44.99731" lon="1.04717">
        <ele>112.80000305176</ele>
        <time>2011-06-29T07:30:56.000Z</time>
      </trkpt>
      <trkpt lat="44.99721" lon="1.04728">
        <ele>116.80000305176</ele>
        <time>2011-06-29T07:31:03.000Z</time>
      </trkpt>
      <trkpt lat="44.99712" lon="1.04741">
        <ele>117.59999847412</ele>
        <time>2011-06-29T07:31:09.000Z</time>
      </trkpt>
      <trkpt lat="44.99698" lon="1.04758">
        <ele>115.80000305176</ele>
        <time>2011-06-29T07:31:15.000Z</time>
      </trkpt>
      <trkpt lat="44.99678" lon="1.04777">
        <ele>113.59999847412</ele>
        <time>2011-06-29T07:31:22.000Z</time>
      </trkpt>
      <trkpt lat="44.99661" lon="1.04789">
        <ele>113.40000152588</ele>
        <time>2011-06-29T07:31:28.000Z</time>
      </trkpt>
      <trkpt lat="44.99656" lon="1.04793">
        <ele>112.80000305176</ele>
        <time>2011-06-29T07:31:32.000Z</time>
      </trkpt>
      <trkpt lat="44.99658" lon="1.048">
        <ele>114</ele>
        <time>2011-06-29T07:33:57.000Z</time>
      </trkpt>
      <trkpt lat="44.9965" lon="1.04795">
        <ele>111.80000305176</ele>
        <time>2011-06-29T07:35:26.000Z</time>
      </trkpt>
      <trkpt lat="44.99635" lon="1.04794">
        <ele>112.40000152588</ele>
        <time>2011-06-29T07:35:31.000Z</time>
      </trkpt>
      <trkpt lat="44.99625" lon="1.04792">
        <ele>112.80000305176</ele>
        <time>2011-06-29T07:35:34.000Z</time>
      </trkpt>
      <trkpt lat="44.99615" lon="1.04782">
        <ele>113.59999847412</ele>
        <time>2011-06-29T07:35:37.000Z</time>
      </trkpt>
      <trkpt lat="44.99596" lon="1.04774">
        <ele>114</ele>
        <time>2011-06-29T07:35:42.000Z</time>
      </trkpt>
      <trkpt lat="44.99589" lon="1.04784">
        <ele>114.40000152588</ele>
        <time>2011-06-29T07:35:45.000Z</time>
      </trkpt>
      <trkpt lat="44.99581" lon="1.04794">
        <ele>115</ele>
        <time>2011-06-29T07:35:49.000Z</time>
      </trkpt>
      <trkpt lat="44.99574" lon="1.04805">
        <ele>115.40000152588</ele>
        <time>2011-06-29T07:35:53.000Z</time>
      </trkpt>
      <trkpt lat="44.99566" lon="1.04814">
        <ele>115.40000152588</ele>
        <time>2011-06-29T07:35:56.000Z</time>
      </trkpt>
      <trkpt lat="44.99556" lon="1.04825">
        <ele>115.19999694824</ele>
        <time>2011-06-29T07:36:00.000Z</time>
      </trkpt>
      <trkpt lat="44.99537" lon="1.04839">
        <ele>115</ele>
        <time>2011-06-29T07:36:05.000Z</time>
      </trkpt>
      <trkpt lat="44.99508" lon="1.04845">
        <ele>114.80000305176</ele>
        <time>2011-06-29T07:36:12.000Z</time>
      </trkpt>
      <trkpt lat="44.99485" lon="1.04853">
        <ele>115.40000152588</ele>
        <time>2011-06-29T07:36:18.000Z</time>
      </trkpt>
      <trkpt lat="44.99463" lon="1.04856">
        <ele>116.19999694824</ele>
        <time>2011-06-29T07:36:24.000Z</time>
      </trkpt>
      <trkpt lat="44.99442" lon="1.04852">
        <ele>116.59999847412</ele>
        <time>2011-06-29T07:36:30.000Z</time>
      </trkpt>
      <trkpt lat="44.99423" lon="1.04845">
        <ele>117</ele>
        <time>2011-06-29T07:36:35.000Z</time>
      </trkpt>
      <trkpt lat="44.9941" lon="1.04848">
        <ele>116.59999847412</ele>
        <time>2011-06-29T07:36:39.000Z</time>
      </trkpt>
      <trkpt lat="44.99396" lon="1.04857">
        <ele>117.40000152588</ele>
        <time>2011-06-29T07:36:43.000Z</time>
      </trkpt>
      <trkpt lat="44.99378" lon="1.04873">
        <ele>118.59999847412</ele>
        <time>2011-06-29T07:36:49.000Z</time>
      </trkpt>
      <trkpt lat="44.99361" lon="1.04887">
        <ele>120.19999694824</ele>
        <time>2011-06-29T07:36:54.000Z</time>
      </trkpt>
      <trkpt lat="44.9934" lon="1.04895">
        <ele>120.19999694824</ele>
        <time>2011-06-29T07:37:00.000Z</time>
      </trkpt>
      <trkpt lat="44.99325" lon="1.04901">
        <ele>122.59999847412</ele>
        <time>2011-06-29T07:37:06.000Z</time>
      </trkpt>
      <trkpt lat="44.99313" lon="1.04911">
        <ele>126.59999847412</ele>
        <time>2011-06-29T07:37:12.000Z</time>
      </trkpt>
      <trkpt lat="44.99298" lon="1.04918">
        <ele>129</ele>
        <time>2011-06-29T07:37:17.000Z</time>
      </trkpt>
      <trkpt lat="44.99281" lon="1.04925">
        <ele>129.39999389648</ele>
        <time>2011-06-29T07:37:22.000Z</time>
      </trkpt>
      <trkpt lat="44.99267" lon="1.04928">
        <ele>127.80000305176</ele>
        <time>2011-06-29T07:37:27.000Z</time>
      </trkpt>
      <trkpt lat="44.99245" lon="1.04933">
        <ele>127</ele>
        <time>2011-06-29T07:37:33.000Z</time>
      </trkpt>
      <trkpt lat="44.99232" lon="1.04939">
        <ele>126.40000152588</ele>
        <time>2011-06-29T07:37:37.000Z</time>
      </trkpt>
      <trkpt lat="44.99218" lon="1.04945">
        <ele>126</ele>
        <time>2011-06-29T07:37:42.000Z</time>
      </trkpt>
      <trkpt lat="44.99201" lon="1.04966">
        <ele>124.59999847412</ele>
        <time>2011-06-29T07:37:47.000Z</time>
      </trkpt>
      <trkpt lat="44.99189" lon="1.04983">
        <ele>125.40000152588</ele>
        <time>2011-06-29T07:37:50.000Z</time>
      </trkpt>
      <trkpt lat="44.99176" lon="1.04988">
        <ele>123.19999694824</ele>
        <time>2011-06-29T07:37:54.000Z</time>
      </trkpt>
      <trkpt lat="44.99172" lon="1.04985">
        <ele>121.80000305176</ele>
        <time>2011-06-29T07:37:56.000Z</time>
      </trkpt>
      <trkpt lat="44.99157" lon="1.04985">
        <ele>122.40000152588</ele>
        <time>2011-06-29T07:38:04.000Z</time>
      </trkpt>
      <trkpt lat="44.99142" lon="1.04991">
        <ele>123.59999847412</ele>
        <time>2011-06-29T07:38:09.000Z</time>
      </trkpt>
      <trkpt lat="44.99122" lon="1.04998">
        <ele>123.59999847412</ele>
        <time>2011-06-29T07:38:15.000Z</time>
      </trkpt>
      <trkpt lat="44.9911" lon="1.05005">
        <ele>124.19999694824</ele>
        <time>2011-06-29T07:38:20.000Z</time>
      </trkpt>
      <trkpt lat="44.99098" lon="1.05023">
        <ele>123.40000152588</ele>
        <time>2011-06-29T07:38:26.000Z</time>
      </trkpt>
      <trkpt lat="44.99084" lon="1.05047">
        <ele>124.40000152588</ele>
        <time>2011-06-29T07:38:33.000Z</time>
      </trkpt>
      <trkpt lat="44.99069" lon="1.05075">
        <ele>123.59999847412</ele>
        <time>2011-06-29T07:38:39.000Z</time>
      </trkpt>
      <trkpt lat="44.9905" lon="1.05111">
        <ele>122.40000152588</ele>
        <time>2011-06-29T07:38:46.000Z</time>
      </trkpt>
      <trkpt lat="44.99031" lon="1.05139">
        <ele>122.40000152588</ele>
        <time>2011-06-29T07:38:52.000Z</time>
      </trkpt>
      <trkpt lat="44.99018" lon="1.05163">
        <ele>121.40000152588</ele>
        <time>2011-06-29T07:38:58.000Z</time>
      </trkpt>
      <trkpt lat="44.99" lon="1.05177">
        <ele>119.80000305176</ele>
        <time>2011-06-29T07:39:02.000Z</time>
      </trkpt>
      <trkpt lat="44.98986" lon="1.05176">
        <ele>119.80000305176</ele>
        <time>2011-06-29T07:39:05.000Z</time>
      </trkpt>
      <trkpt lat="44.98946" lon="1.05172">
        <ele>123.80000305176</ele>
        <time>2011-06-29T07:39:16.000Z</time>
      </trkpt>
      <trkpt lat="44.9892" lon="1.05174">
        <ele>125.40000152588</ele>
        <time>2011-06-29T07:39:23.000Z</time>
      </trkpt>
      <trkpt lat="44.989" lon="1.05176">
        <ele>125.59999847412</ele>
        <time>2011-06-29T07:39:28.000Z</time>
      </trkpt>
      <trkpt lat="44.98871" lon="1.05168">
        <ele>122</ele>
        <time>2011-06-29T07:39:33.000Z</time>
      </trkpt>
      <trkpt lat="44.98864" lon="1.05167">
        <ele>121.19999694824</ele>
        <time>2011-06-29T07:39:34.000Z</time>
      </trkpt>
      <trkpt lat="44.98851" lon="1.0515">
        <ele>118.80000305176</ele>
        <time>2011-06-29T07:39:37.000Z</time>
      </trkpt>
      <trkpt lat="44.98849" lon="1.0514">
        <ele>118.19999694824</ele>
        <time>2011-06-29T07:39:38.000Z</time>
      </trkpt>
      <trkpt lat="44.98832" lon="1.0511">
        <ele>118</ele>
        <time>2011-06-29T07:39:42.000Z</time>
      </trkpt>
      <trkpt lat="44.98798" lon="1.05098">
        <ele>118.59999847412</ele>
        <time>2011-06-29T07:39:48.000Z</time>
      </trkpt>
      <trkpt lat="44.98792" lon="1.05098">
        <ele>118.80000305176</ele>
        <time>2011-06-29T07:39:49.000Z</time>
      </trkpt>
      <trkpt lat="44.98749" lon="1.05107">
        <ele>119</ele>
        <time>2011-06-29T07:39:57.000Z</time>
      </trkpt>
      <trkpt lat="44.98736" lon="1.05112">
        <ele>118.80000305176</ele>
        <time>2011-06-29T07:39:59.000Z</time>
      </trkpt>
      <trkpt lat="44.98711" lon="1.05135">
        <ele>116.80000305176</ele>
        <time>2011-06-29T07:40:03.000Z</time>
      </trkpt>
      <trkpt lat="44.98706" lon="1.05145">
        <ele>115.80000305176</ele>
        <time>2011-06-29T07:40:04.000Z</time>
      </trkpt>
      <trkpt lat="44.98672" lon="1.05186">
        <ele>113.19999694824</ele>
        <time>2011-06-29T07:40:09.000Z</time>
      </trkpt>
      <trkpt lat="44.98644" lon="1.05187">
        <ele>110.40000152588</ele>
        <time>2011-06-29T07:40:12.000Z</time>
      </trkpt>
      <trkpt lat="44.98603" lon="1.05174">
        <ele>103.59999847412</ele>
        <time>2011-06-29T07:40:16.000Z</time>
      </trkpt>
      <trkpt lat="44.98582" lon="1.05147">
        <ele>99.400001525879</ele>
        <time>2011-06-29T07:40:19.000Z</time>
      </trkpt>
      <trkpt lat="44.98573" lon="1.05105">
        <ele>95</ele>
        <time>2011-06-29T07:40:22.000Z</time>
      </trkpt>
      <trkpt lat="44.98574" lon="1.05058">
        <ele>91</ele>
        <time>2011-06-29T07:40:25.000Z</time>
      </trkpt>
      <trkpt lat="44.98578" lon="1.05042">
        <ele>89.800003051758</ele>
        <time>2011-06-29T07:40:26.000Z</time>
      </trkpt>
      <trkpt lat="44.98594" lon="1.04994">
        <ele>84.599998474121</ele>
        <time>2011-06-29T07:40:31.000Z</time>
      </trkpt>
      <trkpt lat="44.98589" lon="1.04988">
        <ele>82.800003051758</ele>
        <time>2011-06-29T07:40:34.000Z</time>
      </trkpt>
      <trkpt lat="44.98583" lon="1.04992">
        <ele>81.400001525879</ele>
        <time>2011-06-29T07:40:36.000Z</time>
      </trkpt>
      <trkpt lat="44.98563" lon="1.0501">
        <ele>79</ele>
        <time>2011-06-29T07:40:40.000Z</time>
      </trkpt>
      <trkpt lat="44.98538" lon="1.05042">
        <ele>75.800003051758</ele>
        <time>2011-06-29T07:40:44.000Z</time>
      </trkpt>
      <trkpt lat="44.98527" lon="1.05074">
        <ele>73</ele>
        <time>2011-06-29T07:40:47.000Z</time>
      </trkpt>
      <trkpt lat="44.98519" lon="1.05092">
        <ele>71.199996948242</ele>
        <time>2011-06-29T07:40:49.000Z</time>
      </trkpt>
      <trkpt lat="44.98503" lon="1.05092">
        <ele>70.199996948242</ele>
        <time>2011-06-29T07:40:51.000Z</time>
      </trkpt>
      <trkpt lat="44.98478" lon="1.05085">
        <ele>70.199996948242</ele>
        <time>2011-06-29T07:40:55.000Z</time>
      </trkpt>
      <trkpt lat="44.98468" lon="1.05084">
        <ele>70.599998474121</ele>
        <time>2011-06-29T07:40:57.000Z</time>
      </trkpt>
      <trkpt lat="44.98461" lon="1.05076">
        <ele>71.599998474121</ele>
        <time>2011-06-29T07:41:01.000Z</time>
      </trkpt>
      <trkpt lat="44.98463" lon="1.05067">
        <ele>73.599998474121</ele>
        <time>2011-06-29T07:41:06.000Z</time>
      </trkpt>
      <trkpt lat="44.98465" lon="1.05063">
        <ele>74.599998474121</ele>
        <time>2011-06-29T07:41:08.000Z</time>
      </trkpt>
      <trkpt lat="44.98467" lon="1.05058">
        <ele>74.800003051758</ele>
        <time>2011-06-29T07:41:10.000Z</time>
      </trkpt>
      <trkpt lat="44.98467" lon="1.05048">
        <ele>76.800003051758</ele>
        <time>2011-06-29T07:41:14.000Z</time>
      </trkpt>
      <trkpt lat="44.98468" lon="1.05037">
        <ele>78.199996948242</ele>
        <time>2011-06-29T07:41:20.000Z</time>
      </trkpt>
      <trkpt lat="44.98469" lon="1.05032">
        <ele>78.199996948242</ele>
        <time>2011-06-29T07:41:22.000Z</time>
      </trkpt>
      <trkpt lat="44.98474" lon="1.05012">
        <ele>77</ele>
        <time>2011-06-29T07:41:29.000Z</time>
      </trkpt>
      <trkpt lat="44.98475" lon="1.05006">
        <ele>77.599998474121</ele>
        <time>2011-06-29T07:41:31.000Z</time>
      </trkpt>
      <trkpt lat="44.9848" lon="1.04992">
        <ele>78.800003051758</ele>
        <time>2011-06-29T07:41:36.000Z</time>
      </trkpt>
      <trkpt lat="44.98491" lon="1.04976">
        <ele>79</ele>
        <time>2011-06-29T07:41:43.000Z</time>
      </trkpt>
      <trkpt lat="44.985" lon="1.04964">
        <ele>80.800003051758</ele>
        <time>2011-06-29T07:41:49.000Z</time>
      </trkpt>
      <trkpt lat="44.985" lon="1.04962">
        <ele>80.800003051758</ele>
        <time>2011-06-29T07:41:51.000Z</time>
      </trkpt>
      <trkpt lat="44.98502" lon="1.0496">
        <ele>83</ele>
        <time>2011-06-29T07:41:58.000Z</time>
      </trkpt>
      <trkpt lat="44.98508" lon="1.04953">
        <ele>86</ele>
        <time>2011-06-29T07:42:05.000Z</time>
      </trkpt>
      <trkpt lat="44.98517" lon="1.04942">
        <ele>87.599998474121</ele>
        <time>2011-06-29T07:42:11.000Z</time>
      </trkpt>
      <trkpt lat="44.98525" lon="1.04933">
        <ele>87.800003051758</ele>
        <time>2011-06-29T07:42:16.000Z</time>
      </trkpt>
      <trkpt lat="44.98533" lon="1.04925">
        <ele>91.599998474121</ele>
        <time>2011-06-29T07:42:21.000Z</time>
      </trkpt>
      <trkpt lat="44.98547" lon="1.04914">
        <ele>93.400001525879</ele>
        <time>2011-06-29T07:42:27.000Z</time>
      </trkpt>
      <trkpt lat="44.98557" lon="1.04908">
        <ele>93.199996948242</ele>
        <time>2011-06-29T07:42:32.000Z</time>
      </trkpt>
      <trkpt lat="44.98562" lon="1.04902">
        <ele>94.199996948242</ele>
        <time>2011-06-29T07:42:36.000Z</time>
      </trkpt>
      <trkpt lat="44.98564" lon="1.04899">
        <ele>95.199996948242</ele>
        <time>2011-06-29T07:42:39.000Z</time>
      </trkpt>
      <trkpt lat="44.98566" lon="1.04895">
        <ele>95.400001525879</ele>
        <time>2011-06-29T07:42:42.000Z</time>
      </trkpt>
      <trkpt lat="44.98572" lon="1.04888">
        <ele>93.400001525879</ele>
        <time>2011-06-29T07:42:46.000Z</time>
      </trkpt>
      <trkpt lat="44.98583" lon="1.04877">
        <ele>91.400001525879</ele>
        <time>2011-06-29T07:42:53.000Z</time>
      </trkpt>
      <trkpt lat="44.98588" lon="1.04871">
        <ele>91.199996948242</ele>
        <time>2011-06-29T07:42:59.000Z</time>
      </trkpt>
      <trkpt lat="44.98603" lon="1.04861">
        <ele>86.400001525879</ele>
        <time>2011-06-29T07:43:07.000Z</time>
      </trkpt>
      <trkpt lat="44.98613" lon="1.04853">
        <ele>84.400001525879</ele>
        <time>2011-06-29T07:43:12.000Z</time>
      </trkpt>
      <trkpt lat="44.98625" lon="1.04843">
        <ele>79.599998474121</ele>
        <time>2011-06-29T07:43:19.000Z</time>
      </trkpt>
      <trkpt lat="44.98633" lon="1.04832">
        <ele>75.599998474121</ele>
        <time>2011-06-29T07:43:25.000Z</time>
      </trkpt>
      <trkpt lat="44.98635" lon="1.04828">
        <ele>75</ele>
        <time>2011-06-29T07:43:27.000Z</time>
      </trkpt>
      <trkpt lat="44.98641" lon="1.04816">
        <ele>75.800003051758</ele>
        <time>2011-06-29T07:43:33.000Z</time>
      </trkpt>
      <trkpt lat="44.98646" lon="1.0481">
        <ele>76</ele>
        <time>2011-06-29T07:43:37.000Z</time>
      </trkpt>
      <trkpt lat="44.98648" lon="1.04808">
        <ele>80.800003051758</ele>
        <time>2011-06-29T07:43:40.000Z</time>
      </trkpt>
      <trkpt lat="44.98662" lon="1.048">
        <ele>77</ele>
        <time>2011-06-29T07:43:48.000Z</time>
      </trkpt>
      <trkpt lat="44.98672" lon="1.04791">
        <ele>73</ele>
        <time>2011-06-29T07:43:52.000Z</time>
      </trkpt>
      <trkpt lat="44.98679" lon="1.0478">
        <ele>68</ele>
        <time>2011-06-29T07:43:57.000Z</time>
      </trkpt>
      <trkpt lat="44.98681" lon="1.04777">
        <ele>67.400001525879</ele>
        <time>2011-06-29T07:43:59.000Z</time>
      </trkpt>
      <trkpt lat="44.98687" lon="1.0476">
        <ele>66.199996948242</ele>
        <time>2011-06-29T07:44:07.000Z</time>
      </trkpt>
      <trkpt lat="44.98692" lon="1.04748">
        <ele>67.599998474121</ele>
        <time>2011-06-29T07:44:14.000Z</time>
      </trkpt>
      <trkpt lat="44.98693" lon="1.04748">
        <ele>67.599998474121</ele>
        <time>2011-06-29T07:44:15.000Z</time>
      </trkpt>
      <trkpt lat="44.987" lon="1.04732">
        <ele>71.800003051758</ele>
        <time>2011-06-29T07:44:35.000Z</time>
      </trkpt>
      <trkpt lat="44.98713" lon="1.04708">
        <ele>71.800003051758</ele>
        <time>2011-06-29T07:44:44.000Z</time>
      </trkpt>
      <trkpt lat="44.98723" lon="1.0469">
        <ele>71.800003051758</ele>
        <time>2011-06-29T07:44:51.000Z</time>
      </trkpt>
      <trkpt lat="44.98724" lon="1.04684">
        <ele>72.400001525879</ele>
        <time>2011-06-29T07:44:53.000Z</time>
      </trkpt>
      <trkpt lat="44.98725" lon="1.04665">
        <ele>78.400001525879</ele>
        <time>2011-06-29T07:45:00.000Z</time>
      </trkpt>
      <trkpt lat="44.98726" lon="1.0466">
        <ele>78.599998474121</ele>
        <time>2011-06-29T07:45:02.000Z</time>
      </trkpt>
      <trkpt lat="44.98733" lon="1.04644">
        <ele>81.400001525879</ele>
        <time>2011-06-29T07:45:09.000Z</time>
      </trkpt>
      <trkpt lat="44.98739" lon="1.04636">
        <ele>81.400001525879</ele>
        <time>2011-06-29T07:45:13.000Z</time>
      </trkpt>
      <trkpt lat="44.98744" lon="1.04629">
        <ele>83.199996948242</ele>
        <time>2011-06-29T07:45:16.000Z</time>
      </trkpt>
      <trkpt lat="44.98751" lon="1.04609">
        <ele>83.599998474121</ele>
        <time>2011-06-29T07:45:23.000Z</time>
      </trkpt>
      <trkpt lat="44.98758" lon="1.04587">
        <ele>83.400001525879</ele>
        <time>2011-06-29T07:45:29.000Z</time>
      </trkpt>
      <trkpt lat="44.98766" lon="1.04569">
        <ele>83</ele>
        <time>2011-06-29T07:45:34.000Z</time>
      </trkpt>
      <trkpt lat="44.98772" lon="1.04551">
        <ele>82</ele>
        <time>2011-06-29T07:45:39.000Z</time>
      </trkpt>
      <trkpt lat="44.98781" lon="1.04533">
        <ele>83</ele>
        <time>2011-06-29T07:45:45.000Z</time>
      </trkpt>
      <trkpt lat="44.98786" lon="1.04516">
        <ele>84.400001525879</ele>
        <time>2011-06-29T07:45:50.000Z</time>
      </trkpt>
      <trkpt lat="44.98788" lon="1.04494">
        <ele>85</ele>
        <time>2011-06-29T07:45:56.000Z</time>
      </trkpt>
      <trkpt lat="44.98794" lon="1.04479">
        <ele>83.400001525879</ele>
        <time>2011-06-29T07:46:01.000Z</time>
      </trkpt>
      <trkpt lat="44.98801" lon="1.04461">
        <ele>82.400001525879</ele>
        <time>2011-06-29T07:46:07.000Z</time>
      </trkpt>
      <trkpt lat="44.98804" lon="1.04456">
        <ele>82.599998474121</ele>
        <time>2011-06-29T07:46:09.000Z</time>
      </trkpt>
      <trkpt lat="44.98811" lon="1.04452">
        <ele>82</ele>
        <time>2011-06-29T07:46:13.000Z</time>
      </trkpt>
      <trkpt lat="44.98817" lon="1.04451">
        <ele>81.800003051758</ele>
        <time>2011-06-29T07:46:15.000Z</time>
      </trkpt>
      <trkpt lat="44.98827" lon="1.04441">
        <ele>82.199996948242</ele>
        <time>2011-06-29T07:46:20.000Z</time>
      </trkpt>
      <trkpt lat="44.98837" lon="1.04431">
        <ele>80.400001525879</ele>
        <time>2011-06-29T07:46:24.000Z</time>
      </trkpt>
      <trkpt lat="44.98842" lon="1.04423">
        <ele>81.800003051758</ele>
        <time>2011-06-29T07:46:27.000Z</time>
      </trkpt>
      <trkpt lat="44.98847" lon="1.0441">
        <ele>83.800003051758</ele>
        <time>2011-06-29T07:46:32.000Z</time>
      </trkpt>
      <trkpt lat="44.98849" lon="1.04406">
        <ele>84.400001525879</ele>
        <time>2011-06-29T07:46:34.000Z</time>
      </trkpt>
      <trkpt lat="44.98853" lon="1.04397">
        <ele>86</ele>
        <time>2011-06-29T07:46:38.000Z</time>
      </trkpt>
      <trkpt lat="44.9886" lon="1.04393">
        <ele>87.400001525879</ele>
        <time>2011-06-29T07:46:42.000Z</time>
      </trkpt>
      <trkpt lat="44.98874" lon="1.04387">
        <ele>86.199996948242</ele>
        <time>2011-06-29T07:46:47.000Z</time>
      </trkpt>
      <trkpt lat="44.98881" lon="1.04381">
        <ele>85.599998474121</ele>
        <time>2011-06-29T07:46:51.000Z</time>
      </trkpt>
      <trkpt lat="44.9889" lon="1.04374">
        <ele>84.400001525879</ele>
        <time>2011-06-29T07:46:57.000Z</time>
      </trkpt>
      <trkpt lat="44.98891" lon="1.04372">
        <ele>84.199996948242</ele>
        <time>2011-06-29T07:46:58.000Z</time>
      </trkpt>
      <trkpt lat="44.98898" lon="1.04364">
        <ele>85.800003051758</ele>
        <time>2011-06-29T07:47:05.000Z</time>
      </trkpt>
      <trkpt lat="44.98903" lon="1.04359">
        <ele>86.199996948242</ele>
        <time>2011-06-29T07:47:09.000Z</time>
      </trkpt>
      <trkpt lat="44.98906" lon="1.04356">
        <ele>85.800003051758</ele>
        <time>2011-06-29T07:47:14.000Z</time>
      </trkpt>
      <trkpt lat="44.98913" lon="1.0435">
        <ele>88.400001525879</ele>
        <time>2011-06-29T07:47:32.000Z</time>
      </trkpt>
      <trkpt lat="44.98925" lon="1.04335">
        <ele>88.400001525879</ele>
        <time>2011-06-29T07:47:40.000Z</time>
      </trkpt>
      <trkpt lat="44.98932" lon="1.04328">
        <ele>89</ele>
        <time>2011-06-29T07:47:45.000Z</time>
      </trkpt>
      <trkpt lat="44.98942" lon="1.04317">
        <ele>88.400001525879</ele>
        <time>2011-06-29T07:47:51.000Z</time>
      </trkpt>
      <trkpt lat="44.98944" lon="1.04315">
        <ele>88.400001525879</ele>
        <time>2011-06-29T07:47:52.000Z</time>
      </trkpt>
      <trkpt lat="44.98947" lon="1.04311">
        <ele>87.400001525879</ele>
        <time>2011-06-29T07:47:54.000Z</time>
      </trkpt>
      <trkpt lat="44.98952" lon="1.04304">
        <ele>88.199996948242</ele>
        <time>2011-06-29T07:47:58.000Z</time>
      </trkpt>
      <trkpt lat="44.98959" lon="1.04288">
        <ele>89.800003051758</ele>
        <time>2011-06-29T07:48:05.000Z</time>
      </trkpt>
      <trkpt lat="44.98959" lon="1.04277">
        <ele>85.800003051758</ele>
        <time>2011-06-29T07:48:10.000Z</time>
      </trkpt>
      <trkpt lat="44.98959" lon="1.04274">
        <ele>86</ele>
        <time>2011-06-29T07:48:11.000Z</time>
      </trkpt>
      <trkpt lat="44.98962" lon="1.0426">
        <ele>85</ele>
        <time>2011-06-29T07:48:16.000Z</time>
      </trkpt>
      <trkpt lat="44.98964" lon="1.04244">
        <ele>82.800003051758</ele>
        <time>2011-06-29T07:48:23.000Z</time>
      </trkpt>
      <trkpt lat="44.98967" lon="1.04233">
        <ele>85.199996948242</ele>
        <time>2011-06-29T07:48:29.000Z</time>
      </trkpt>
      <trkpt lat="44.98967" lon="1.04231">
        <ele>85.800003051758</ele>
        <time>2011-06-29T07:48:31.000Z</time>
      </trkpt>
      <trkpt lat="44.98974" lon="1.04214">
        <ele>89.599998474121</ele>
        <time>2011-06-29T07:48:46.000Z</time>
      </trkpt>
      <trkpt lat="44.98979" lon="1.04199">
        <ele>90.400001525879</ele>
        <time>2011-06-29T07:48:50.000Z</time>
      </trkpt>
      <trkpt lat="44.98981" lon="1.04184">
        <ele>91.800003051758</ele>
        <time>2011-06-29T07:48:55.000Z</time>
      </trkpt>
      <trkpt lat="44.98982" lon="1.04179">
        <ele>91.199996948242</ele>
        <time>2011-06-29T07:48:57.000Z</time>
      </trkpt>
      <trkpt lat="44.98984" lon="1.04174">
        <ele>91</ele>
        <time>2011-06-29T07:48:59.000Z</time>
      </trkpt>
      <trkpt lat="44.98988" lon="1.04152">
        <ele>89.199996948242</ele>
        <time>2011-06-29T07:49:07.000Z</time>
      </trkpt>
      <trkpt lat="44.98989" lon="1.04142">
        <ele>88.400001525879</ele>
        <time>2011-06-29T07:49:10.000Z</time>
      </trkpt>
      <trkpt lat="44.98999" lon="1.04129">
        <ele>88.400001525879</ele>
        <time>2011-06-29T07:49:15.000Z</time>
      </trkpt>
      <trkpt lat="44.99001" lon="1.04126">
        <ele>88.199996948242</ele>
        <time>2011-06-29T07:49:16.000Z</time>
      </trkpt>
      <trkpt lat="44.99043" lon="1.04066">
        <ele>101.19999694824</ele>
        <time>2011-06-29T07:49:39.000Z</time>
      </trkpt>
      <trkpt lat="44.99052" lon="1.04048">
        <ele>101.19999694824</ele>
        <time>2011-06-29T07:49:45.000Z</time>
      </trkpt>
      <trkpt lat="44.99057" lon="1.04033">
        <ele>101.19999694824</ele>
        <time>2011-06-29T07:49:51.000Z</time>
      </trkpt>
      <trkpt lat="44.99061" lon="1.04028">
        <ele>101.40000152588</ele>
        <time>2011-06-29T07:49:54.000Z</time>
      </trkpt>
      <trkpt lat="44.99066" lon="1.04018">
        <ele>99.400001525879</ele>
        <time>2011-06-29T07:50:00.000Z</time>
      </trkpt>
      <trkpt lat="44.99072" lon="1.04005">
        <ele>96.800003051758</ele>
        <time>2011-06-29T07:50:06.000Z</time>
      </trkpt>
      <trkpt lat="44.99076" lon="1.03995">
        <ele>94.800003051758</ele>
        <time>2011-06-29T07:50:10.000Z</time>
      </trkpt>
      <trkpt lat="44.99083" lon="1.03977">
        <ele>91</ele>
        <time>2011-06-29T07:50:17.000Z</time>
      </trkpt>
      <trkpt lat="44.99084" lon="1.03974">
        <ele>90.199996948242</ele>
        <time>2011-06-29T07:50:18.000Z</time>
      </trkpt>
      <trkpt lat="44.99085" lon="1.03961">
        <ele>87.199996948242</ele>
        <time>2011-06-29T07:50:23.000Z</time>
      </trkpt>
      <trkpt lat="44.99085" lon="1.03958">
        <ele>87.199996948242</ele>
        <time>2011-06-29T07:50:25.000Z</time>
      </trkpt>
      <trkpt lat="44.9909" lon="1.03949">
        <ele>91.400001525879</ele>
        <time>2011-06-29T07:50:29.000Z</time>
      </trkpt>
      <trkpt lat="44.99101" lon="1.03937">
        <ele>93</ele>
        <time>2011-06-29T07:50:35.000Z</time>
      </trkpt>
      <trkpt lat="44.9911" lon="1.0393">
        <ele>93.400001525879</ele>
        <time>2011-06-29T07:50:40.000Z</time>
      </trkpt>
      <trkpt lat="44.99123" lon="1.03916">
        <ele>91.400001525879</ele>
        <time>2011-06-29T07:50:46.000Z</time>
      </trkpt>
      <trkpt lat="44.99136" lon="1.03899">
        <ele>90.400001525879</ele>
        <time>2011-06-29T07:50:53.000Z</time>
      </trkpt>
      <trkpt lat="44.99146" lon="1.03886">
        <ele>89.800003051758</ele>
        <time>2011-06-29T07:50:58.000Z</time>
      </trkpt>
      <trkpt lat="44.99158" lon="1.03869">
        <ele>88.599998474121</ele>
        <time>2011-06-29T07:51:03.000Z</time>
      </trkpt>
      <trkpt lat="44.99161" lon="1.03862">
        <ele>89.199996948242</ele>
        <time>2011-06-29T07:51:05.000Z</time>
      </trkpt>
      <trkpt lat="44.99167" lon="1.03851">
        <ele>87.599998474121</ele>
        <time>2011-06-29T07:51:09.000Z</time>
      </trkpt>
      <trkpt lat="44.9917" lon="1.03837">
        <ele>86.800003051758</ele>
        <time>2011-06-29T07:51:13.000Z</time>
      </trkpt>
      <trkpt lat="44.99179" lon="1.03817">
        <ele>88</ele>
        <time>2011-06-29T07:51:21.000Z</time>
      </trkpt>
      <trkpt lat="44.99186" lon="1.03806">
        <ele>87.599998474121</ele>
        <time>2011-06-29T07:51:25.000Z</time>
      </trkpt>
      <trkpt lat="44.99195" lon="1.03784">
        <ele>84.800003051758</ele>
        <time>2011-06-29T07:51:31.000Z</time>
      </trkpt>
      <trkpt lat="44.99203" lon="1.03769">
        <ele>83.400001525879</ele>
        <time>2011-06-29T07:51:36.000Z</time>
      </trkpt>
      <trkpt lat="44.99209" lon="1.03758">
        <ele>83</ele>
        <time>2011-06-29T07:51:40.000Z</time>
      </trkpt>
      <trkpt lat="44.99214" lon="1.03748">
        <ele>87.400001525879</ele>
        <time>2011-06-29T07:51:43.000Z</time>
      </trkpt>
      <trkpt lat="44.99221" lon="1.0373">
        <ele>94.400001525879</ele>
        <time>2011-06-29T07:51:49.000Z</time>
      </trkpt>
      <trkpt lat="44.99229" lon="1.03717">
        <ele>94.400001525879</ele>
        <time>2011-06-29T07:51:54.000Z</time>
      </trkpt>
      <trkpt lat="44.99236" lon="1.03706">
        <ele>93.599998474121</ele>
        <time>2011-06-29T07:51:58.000Z</time>
      </trkpt>
      <trkpt lat="44.99237" lon="1.03698">
        <ele>93.199996948242</ele>
        <time>2011-06-29T07:52:03.000Z</time>
      </trkpt>
      <trkpt lat="44.99236" lon="1.03699">
        <ele>93.400001525879</ele>
        <time>2011-06-29T07:52:04.000Z</time>
      </trkpt>
      <trkpt lat="44.99229" lon="1.03702">
        <ele>93</ele>
        <time>2011-06-29T07:52:11.000Z</time>
      </trkpt>
      <trkpt lat="44.9922" lon="1.03706">
        <ele>94.800003051758</ele>
        <time>2011-06-29T07:52:18.000Z</time>
      </trkpt>
      <trkpt lat="44.99218" lon="1.03707">
        <ele>95.199996948242</ele>
        <time>2011-06-29T07:52:19.000Z</time>
      </trkpt>
      <trkpt lat="44.99206" lon="1.03716">
        <ele>99</ele>
        <time>2011-06-29T07:52:27.000Z</time>
      </trkpt>
      <trkpt lat="44.99191" lon="1.03724">
        <ele>101.19999694824</ele>
        <time>2011-06-29T07:52:34.000Z</time>
      </trkpt>
      <trkpt lat="44.99177" lon="1.03736">
        <ele>104.19999694824</ele>
        <time>2011-06-29T07:52:40.000Z</time>
      </trkpt>
      <trkpt lat="44.99165" lon="1.0375">
        <ele>106.80000305176</ele>
        <time>2011-06-29T07:52:45.000Z</time>
      </trkpt>
      <trkpt lat="44.99154" lon="1.03763">
        <ele>108</ele>
        <time>2011-06-29T07:52:50.000Z</time>
      </trkpt>
      <trkpt lat="44.99141" lon="1.03778">
        <ele>109.59999847412</ele>
        <time>2011-06-29T07:52:55.000Z</time>
      </trkpt>
      <trkpt lat="44.99128" lon="1.03792">
        <ele>110</ele>
        <time>2011-06-29T07:53:00.000Z</time>
      </trkpt>
      <trkpt lat="44.99113" lon="1.03808">
        <ele>113</ele>
        <time>2011-06-29T07:53:06.000Z</time>
      </trkpt>
      <trkpt lat="44.991" lon="1.03815">
        <ele>115.40000152588</ele>
        <time>2011-06-29T07:53:12.000Z</time>
      </trkpt>
      <trkpt lat="44.99087" lon="1.03819">
        <ele>117.59999847412</ele>
        <time>2011-06-29T07:53:17.000Z</time>
      </trkpt>
      <trkpt lat="44.99077" lon="1.03822">
        <ele>117.80000305176</ele>
        <time>2011-06-29T07:53:21.000Z</time>
      </trkpt>
      <trkpt lat="44.99058" lon="1.03819">
        <ele>118.40000152588</ele>
        <time>2011-06-29T07:53:25.000Z</time>
      </trkpt>
      <trkpt lat="44.99036" lon="1.03815">
        <ele>122.59999847412</ele>
        <time>2011-06-29T07:53:30.000Z</time>
      </trkpt>
      <trkpt lat="44.99031" lon="1.03826">
        <ele>123.80000305176</ele>
        <time>2011-06-29T07:53:34.000Z</time>
      </trkpt>
      <trkpt lat="44.99028" lon="1.03837">
        <ele>124.19999694824</ele>
        <time>2011-06-29T07:53:37.000Z</time>
      </trkpt>
      <trkpt lat="44.99021" lon="1.03857">
        <ele>125.40000152588</ele>
        <time>2011-06-29T07:53:43.000Z</time>
      </trkpt>
      <trkpt lat="44.99013" lon="1.03872">
        <ele>127.19999694824</ele>
        <time>2011-06-29T07:53:48.000Z</time>
      </trkpt>
      <trkpt lat="44.98999" lon="1.03893">
        <ele>130.19999694824</ele>
        <time>2011-06-29T07:53:55.000Z</time>
      </trkpt>
      <trkpt lat="44.98987" lon="1.03903">
        <ele>134.60000610352</ele>
        <time>2011-06-29T07:54:00.000Z</time>
      </trkpt>
      <trkpt lat="44.98973" lon="1.03912">
        <ele>136</ele>
        <time>2011-06-29T07:54:05.000Z</time>
      </trkpt>
      <trkpt lat="44.98964" lon="1.03922">
        <ele>136</ele>
        <time>2011-06-29T07:54:11.000Z</time>
      </trkpt>
      <trkpt lat="44.98952" lon="1.03934">
        <ele>135.80000305176</ele>
        <time>2011-06-29T07:54:18.000Z</time>
      </trkpt>
      <trkpt lat="44.98942" lon="1.03944">
        <ele>135.80000305176</ele>
        <time>2011-06-29T07:54:23.000Z</time>
      </trkpt>
      <trkpt lat="44.98922" lon="1.03959">
        <ele>135.19999694824</ele>
        <time>2011-06-29T07:54:28.000Z</time>
      </trkpt>
      <trkpt lat="44.98902" lon="1.03978">
        <ele>134.60000610352</ele>
        <time>2011-06-29T07:54:32.000Z</time>
      </trkpt>
      <trkpt lat="44.98889" lon="1.03995">
        <ele>133.80000305176</ele>
        <time>2011-06-29T07:54:35.000Z</time>
      </trkpt>
      <trkpt lat="44.9888" lon="1.04003">
        <ele>132.80000305176</ele>
        <time>2011-06-29T07:54:37.000Z</time>
      </trkpt>
      <trkpt lat="44.98856" lon="1.04026">
        <ele>130.39999389648</ele>
        <time>2011-06-29T07:54:42.000Z</time>
      </trkpt>
      <trkpt lat="44.98833" lon="1.0405">
        <ele>128.19999694824</ele>
        <time>2011-06-29T07:54:46.000Z</time>
      </trkpt>
      <trkpt lat="44.98828" lon="1.04058">
        <ele>127.80000305176</ele>
        <time>2011-06-29T07:54:47.000Z</time>
      </trkpt>
      <trkpt lat="44.98823" lon="1.04078">
        <ele>125.80000305176</ele>
        <time>2011-06-29T07:54:51.000Z</time>
      </trkpt>
      <trkpt lat="44.98824" lon="1.04106">
        <ele>129.60000610352</ele>
        <time>2011-06-29T07:54:58.000Z</time>
      </trkpt>
      <trkpt lat="44.98822" lon="1.04123">
        <ele>132.39999389648</ele>
        <time>2011-06-29T07:55:03.000Z</time>
      </trkpt>
      <trkpt lat="44.98817" lon="1.04139">
        <ele>133.60000610352</ele>
        <time>2011-06-29T07:55:09.000Z</time>
      </trkpt>
      <trkpt lat="44.98811" lon="1.04158">
        <ele>133.39999389648</ele>
        <time>2011-06-29T07:55:16.000Z</time>
      </trkpt>
      <trkpt lat="44.98803" lon="1.04172">
        <ele>134.60000610352</ele>
        <time>2011-06-29T07:55:22.000Z</time>
      </trkpt>
      <trkpt lat="44.98793" lon="1.04184">
        <ele>134.80000305176</ele>
        <time>2011-06-29T07:55:28.000Z</time>
      </trkpt>
      <trkpt lat="44.98784" lon="1.04194">
        <ele>135</ele>
        <time>2011-06-29T07:55:34.000Z</time>
      </trkpt>
      <trkpt lat="44.98773" lon="1.04205">
        <ele>135.19999694824</ele>
        <time>2011-06-29T07:55:40.000Z</time>
      </trkpt>
      <trkpt lat="44.9876" lon="1.04216">
        <ele>135</ele>
        <time>2011-06-29T07:55:47.000Z</time>
      </trkpt>
      <trkpt lat="44.98737" lon="1.04237">
        <ele>133</ele>
        <time>2011-06-29T07:55:56.000Z</time>
      </trkpt>
      <trkpt lat="44.9873" lon="1.04242">
        <ele>132.60000610352</ele>
        <time>2011-06-29T07:55:58.000Z</time>
      </trkpt>
      <trkpt lat="44.98721" lon="1.04246">
        <ele>132.80000305176</ele>
        <time>2011-06-29T07:56:00.000Z</time>
      </trkpt>
      <trkpt lat="44.98706" lon="1.0425">
        <ele>132</ele>
        <time>2011-06-29T07:56:03.000Z</time>
      </trkpt>
      <trkpt lat="44.98681" lon="1.04258">
        <ele>132</ele>
        <time>2011-06-29T07:56:07.000Z</time>
      </trkpt>
      <trkpt lat="44.98669" lon="1.04281">
        <ele>131.80000305176</ele>
        <time>2011-06-29T07:56:10.000Z</time>
      </trkpt>
      <trkpt lat="44.98661" lon="1.04295">
        <ele>131.39999389648</ele>
        <time>2011-06-29T07:56:12.000Z</time>
      </trkpt>
      <trkpt lat="44.98645" lon="1.04318">
        <ele>129.19999694824</ele>
        <time>2011-06-29T07:56:17.000Z</time>
      </trkpt>
      <trkpt lat="44.98632" lon="1.04336">
        <ele>127.59999847412</ele>
        <time>2011-06-29T07:56:22.000Z</time>
      </trkpt>
      <trkpt lat="44.98617" lon="1.04352">
        <ele>128</ele>
        <time>2011-06-29T07:56:28.000Z</time>
      </trkpt>
      <trkpt lat="44.986" lon="1.04364">
        <ele>127.59999847412</ele>
        <time>2011-06-29T07:56:34.000Z</time>
      </trkpt>
      <trkpt lat="44.98587" lon="1.04374">
        <ele>127.40000152588</ele>
        <time>2011-06-29T07:56:39.000Z</time>
      </trkpt>
      <trkpt lat="44.98585" lon="1.04376">
        <ele>127.59999847412</ele>
        <time>2011-06-29T07:56:40.000Z</time>
      </trkpt>
      <trkpt lat="44.98577" lon="1.04393">
        <ele>127.19999694824</ele>
        <time>2011-06-29T07:56:45.000Z</time>
      </trkpt>
      <trkpt lat="44.98577" lon="1.04418">
        <ele>126</ele>
        <time>2011-06-29T07:56:49.000Z</time>
      </trkpt>
      <trkpt lat="44.98582" lon="1.04454">
        <ele>124.40000152588</ele>
        <time>2011-06-29T07:56:55.000Z</time>
      </trkpt>
      <trkpt lat="44.98576" lon="1.04471">
        <ele>123.80000305176</ele>
        <time>2011-06-29T07:56:58.000Z</time>
      </trkpt>
      <trkpt lat="44.9855" lon="1.04529">
        <ele>124</ele>
        <time>2011-06-29T07:57:07.000Z</time>
      </trkpt>
      <trkpt lat="44.98542" lon="1.0455">
        <ele>123.59999847412</ele>
        <time>2011-06-29T07:57:10.000Z</time>
      </trkpt>
      <trkpt lat="44.98514" lon="1.04594">
        <ele>121.19999694824</ele>
        <time>2011-06-29T07:57:16.000Z</time>
      </trkpt>
      <trkpt lat="44.98481" lon="1.04633">
        <ele>119</ele>
        <time>2011-06-29T07:57:21.000Z</time>
      </trkpt>
      <trkpt lat="44.9846" lon="1.04673">
        <ele>117</ele>
        <time>2011-06-29T07:57:25.000Z</time>
      </trkpt>
      <trkpt lat="44.98454" lon="1.04697">
        <ele>116.19999694824</ele>
        <time>2011-06-29T07:57:27.000Z</time>
      </trkpt>
      <trkpt lat="44.98428" lon="1.04748">
        <ele>113.80000305176</ele>
        <time>2011-06-29T07:57:32.000Z</time>
      </trkpt>
      <trkpt lat="44.9842" lon="1.04756">
        <ele>113.40000152588</ele>
        <time>2011-06-29T07:57:33.000Z</time>
      </trkpt>
      <trkpt lat="44.98375" lon="1.04799">
        <ele>111.40000152588</ele>
        <time>2011-06-29T07:57:39.000Z</time>
      </trkpt>
      <trkpt lat="44.98324" lon="1.04836">
        <ele>109.40000152588</ele>
        <time>2011-06-29T07:57:46.000Z</time>
      </trkpt>
      <trkpt lat="44.98281" lon="1.0486">
        <ele>107.19999694824</ele>
        <time>2011-06-29T07:57:52.000Z</time>
      </trkpt>
      <trkpt lat="44.98223" lon="1.04879">
        <ele>103.19999694824</ele>
        <time>2011-06-29T07:57:59.000Z</time>
      </trkpt>
      <trkpt lat="44.98206" lon="1.04883">
        <ele>101.40000152588</ele>
        <time>2011-06-29T07:58:01.000Z</time>
      </trkpt>
      <trkpt lat="44.9817" lon="1.04871">
        <ele>98.400001525879</ele>
        <time>2011-06-29T07:58:05.000Z</time>
      </trkpt>
      <trkpt lat="44.98118" lon="1.04855">
        <ele>92.400001525879</ele>
        <time>2011-06-29T07:58:10.000Z</time>
      </trkpt>
      <trkpt lat="44.98106" lon="1.04855">
        <ele>91.199996948242</ele>
        <time>2011-06-29T07:58:11.000Z</time>
      </trkpt>
      <trkpt lat="44.9806" lon="1.04869">
        <ele>87.599998474121</ele>
        <time>2011-06-29T07:58:15.000Z</time>
      </trkpt>
      <trkpt lat="44.9803" lon="1.04862">
        <ele>85.199996948242</ele>
        <time>2011-06-29T07:58:18.000Z</time>
      </trkpt>
      <trkpt lat="44.98021" lon="1.04844">
        <ele>84.400001525879</ele>
        <time>2011-06-29T07:58:20.000Z</time>
      </trkpt>
      <trkpt lat="44.98019" lon="1.04812">
        <ele>84.400001525879</ele>
        <time>2011-06-29T07:58:23.000Z</time>
      </trkpt>
      <trkpt lat="44.98015" lon="1.04766">
        <ele>85.199996948242</ele>
        <time>2011-06-29T07:58:28.000Z</time>
      </trkpt>
      <trkpt lat="44.9802" lon="1.04736">
        <ele>85.599998474121</ele>
        <time>2011-06-29T07:58:33.000Z</time>
      </trkpt>
      <trkpt lat="44.9802" lon="1.04714">
        <ele>84.599998474121</ele>
        <time>2011-06-29T07:58:37.000Z</time>
      </trkpt>
      <trkpt lat="44.98017" lon="1.04699">
        <ele>83.800003051758</ele>
        <time>2011-06-29T07:58:39.000Z</time>
      </trkpt>
      <trkpt lat="44.98013" lon="1.04685">
        <ele>83</ele>
        <time>2011-06-29T07:58:41.000Z</time>
      </trkpt>
      <trkpt lat="44.97999" lon="1.04676">
        <ele>81.599998474121</ele>
        <time>2011-06-29T07:58:45.000Z</time>
      </trkpt>
      <trkpt lat="44.97994" lon="1.04677">
        <ele>81.400001525879</ele>
        <time>2011-06-29T07:58:46.000Z</time>
      </trkpt>
      <trkpt lat="44.97982" lon="1.04681">
        <ele>80.599998474121</ele>
        <time>2011-06-29T07:58:48.000Z</time>
      </trkpt>
      <trkpt lat="44.97938" lon="1.04679">
        <ele>77.400001525879</ele>
        <time>2011-06-29T07:58:54.000Z</time>
      </trkpt>
      <trkpt lat="44.97905" lon="1.04662">
        <ele>75.400001525879</ele>
        <time>2011-06-29T07:58:58.000Z</time>
      </trkpt>
      <trkpt lat="44.9787" lon="1.04636">
        <ele>72.199996948242</ele>
        <time>2011-06-29T07:59:02.000Z</time>
      </trkpt>
      <trkpt lat="44.97813" lon="1.04616">
        <ele>69.400001525879</ele>
        <time>2011-06-29T07:59:08.000Z</time>
      </trkpt>
      <trkpt lat="44.9778" lon="1.04613">
        <ele>69.800003051758</ele>
        <time>2011-06-29T07:59:12.000Z</time>
      </trkpt>
      <trkpt lat="44.97748" lon="1.04611">
        <ele>70.400001525879</ele>
        <time>2011-06-29T07:59:17.000Z</time>
      </trkpt>
      <trkpt lat="44.97699" lon="1.04608">
        <ele>71.199996948242</ele>
        <time>2011-06-29T07:59:25.000Z</time>
      </trkpt>
      <trkpt lat="44.97658" lon="1.04606">
        <ele>70.800003051758</ele>
        <time>2011-06-29T07:59:33.000Z</time>
      </trkpt>
      <trkpt lat="44.97644" lon="1.04606">
        <ele>71</ele>
        <time>2011-06-29T07:59:36.000Z</time>
      </trkpt>
      <trkpt lat="44.97632" lon="1.04617">
        <ele>72.199996948242</ele>
        <time>2011-06-29T07:59:41.000Z</time>
      </trkpt>
      <trkpt lat="44.97631" lon="1.0462">
        <ele>73</ele>
        <time>2011-06-29T07:59:42.000Z</time>
      </trkpt>
      <trkpt lat="44.97632" lon="1.04643">
        <ele>74.199996948242</ele>
        <time>2011-06-29T07:59:47.000Z</time>
      </trkpt>
      <trkpt lat="44.97636" lon="1.04678">
        <ele>75.400001525879</ele>
        <time>2011-06-29T07:59:54.000Z</time>
      </trkpt>
      <trkpt lat="44.97644" lon="1.04716">
        <ele>79</ele>
        <time>2011-06-29T08:00:02.000Z</time>
      </trkpt>
      <trkpt lat="44.97647" lon="1.04748">
        <ele>80.400001525879</ele>
        <time>2011-06-29T08:00:08.000Z</time>
      </trkpt>
      <trkpt lat="44.9765" lon="1.04776">
        <ele>81.199996948242</ele>
        <time>2011-06-29T08:00:13.000Z</time>
      </trkpt>
      <trkpt lat="44.97653" lon="1.04808">
        <ele>82.400001525879</ele>
        <time>2011-06-29T08:00:18.000Z</time>
      </trkpt>
      <trkpt lat="44.97654" lon="1.04822">
        <ele>82.599998474121</ele>
        <time>2011-06-29T08:00:20.000Z</time>
      </trkpt>
      <trkpt lat="44.97664" lon="1.04858">
        <ele>85.199996948242</ele>
        <time>2011-06-29T08:00:25.000Z</time>
      </trkpt>
      <trkpt lat="44.97675" lon="1.04877">
        <ele>85.599998474121</ele>
        <time>2011-06-29T08:00:28.000Z</time>
      </trkpt>
      <trkpt lat="44.9768" lon="1.04922">
        <ele>88</ele>
        <time>2011-06-29T08:00:34.000Z</time>
      </trkpt>
      <trkpt lat="44.97669" lon="1.04984">
        <ele>91.199996948242</ele>
        <time>2011-06-29T08:00:42.000Z</time>
      </trkpt>
      <trkpt lat="44.97672" lon="1.05049">
        <ele>91</ele>
        <time>2011-06-29T08:00:51.000Z</time>
      </trkpt>
      <trkpt lat="44.97683" lon="1.05096">
        <ele>96.800003051758</ele>
        <time>2011-06-29T08:00:58.000Z</time>
      </trkpt>
      <trkpt lat="44.97684" lon="1.05133">
        <ele>93.400001525879</ele>
        <time>2011-06-29T08:01:03.000Z</time>
      </trkpt>
      <trkpt lat="44.97697" lon="1.05182">
        <ele>92</ele>
        <time>2011-06-29T08:01:10.000Z</time>
      </trkpt>
      <trkpt lat="44.977" lon="1.05189">
        <ele>92.199996948242</ele>
        <time>2011-06-29T08:01:11.000Z</time>
      </trkpt>
      <trkpt lat="44.97725" lon="1.05234">
        <ele>89.199996948242</ele>
        <time>2011-06-29T08:01:17.000Z</time>
      </trkpt>
      <trkpt lat="44.97752" lon="1.05277">
        <ele>89.400001525879</ele>
        <time>2011-06-29T08:01:22.000Z</time>
      </trkpt>
      <trkpt lat="44.97756" lon="1.05287">
        <ele>88</ele>
        <time>2011-06-29T08:01:23.000Z</time>
      </trkpt>
      <trkpt lat="44.97778" lon="1.05333">
        <ele>77.599998474121</ele>
        <time>2011-06-29T08:01:28.000Z</time>
      </trkpt>
      <trkpt lat="44.97793" lon="1.05347">
        <ele>74.599998474121</ele>
        <time>2011-06-29T08:01:30.000Z</time>
      </trkpt>
      <trkpt lat="44.9783" lon="1.05394">
        <ele>69.199996948242</ele>
        <time>2011-06-29T08:01:35.000Z</time>
      </trkpt>
      <trkpt lat="44.97839" lon="1.05428">
        <ele>68.199996948242</ele>
        <time>2011-06-29T08:01:38.000Z</time>
      </trkpt>
      <trkpt lat="44.97837" lon="1.05455">
        <ele>67.400001525879</ele>
        <time>2011-06-29T08:01:41.000Z</time>
      </trkpt>
      <trkpt lat="44.97835" lon="1.0546">
        <ele>67.800003051758</ele>
        <time>2011-06-29T08:01:42.000Z</time>
      </trkpt>
      <trkpt lat="44.97821" lon="1.05485">
        <ele>72.800003051758</ele>
        <time>2011-06-29T08:01:49.000Z</time>
      </trkpt>
      <trkpt lat="44.97812" lon="1.05509">
        <ele>76.599998474121</ele>
        <time>2011-06-29T08:01:55.000Z</time>
      </trkpt>
      <trkpt lat="44.97808" lon="1.05526">
        <ele>79</ele>
        <time>2011-06-29T08:01:59.000Z</time>
      </trkpt>
      <trkpt lat="44.97805" lon="1.05541">
        <ele>81.800003051758</ele>
        <time>2011-06-29T08:02:03.000Z</time>
      </trkpt>
      <trkpt lat="44.978" lon="1.05565">
        <ele>84.400001525879</ele>
        <time>2011-06-29T08:02:10.000Z</time>
      </trkpt>
      <trkpt lat="44.97798" lon="1.05572">
        <ele>86</ele>
        <time>2011-06-29T08:02:13.000Z</time>
      </trkpt>
      <trkpt lat="44.97793" lon="1.05586">
        <ele>87.599998474121</ele>
        <time>2011-06-29T08:02:20.000Z</time>
      </trkpt>
      <trkpt lat="44.9779" lon="1.05593">
        <ele>89</ele>
        <time>2011-06-29T08:02:22.000Z</time>
      </trkpt>
      <trkpt lat="44.97783" lon="1.05615">
        <ele>93.199996948242</ele>
        <time>2011-06-29T08:02:29.000Z</time>
      </trkpt>
      <trkpt lat="44.97777" lon="1.05634">
        <ele>96.400001525879</ele>
        <time>2011-06-29T08:02:35.000Z</time>
      </trkpt>
      <trkpt lat="44.97771" lon="1.05648">
        <ele>99</ele>
        <time>2011-06-29T08:02:40.000Z</time>
      </trkpt>
      <trkpt lat="44.97764" lon="1.05661">
        <ele>101</ele>
        <time>2011-06-29T08:02:46.000Z</time>
      </trkpt>
      <trkpt lat="44.97759" lon="1.05679">
        <ele>104.40000152588</ele>
        <time>2011-06-29T08:02:52.000Z</time>
      </trkpt>
      <trkpt lat="44.9775" lon="1.05696">
        <ele>105.59999847412</ele>
        <time>2011-06-29T08:02:58.000Z</time>
      </trkpt>
      <trkpt lat="44.97743" lon="1.0571">
        <ele>105.80000305176</ele>
        <time>2011-06-29T08:03:03.000Z</time>
      </trkpt>
      <trkpt lat="44.97739" lon="1.05724">
        <ele>106.59999847412</ele>
        <time>2011-06-29T08:03:08.000Z</time>
      </trkpt>
      <trkpt lat="44.97734" lon="1.05742">
        <ele>109</ele>
        <time>2011-06-29T08:03:13.000Z</time>
      </trkpt>
      <trkpt lat="44.9773" lon="1.05762">
        <ele>111.19999694824</ele>
        <time>2011-06-29T08:03:18.000Z</time>
      </trkpt>
      <trkpt lat="44.97726" lon="1.05778">
        <ele>112.19999694824</ele>
        <time>2011-06-29T08:03:23.000Z</time>
      </trkpt>
      <trkpt lat="44.9772" lon="1.05792">
        <ele>112.40000152588</ele>
        <time>2011-06-29T08:03:28.000Z</time>
      </trkpt>
      <trkpt lat="44.97709" lon="1.05814">
        <ele>110</ele>
        <time>2011-06-29T08:03:36.000Z</time>
      </trkpt>
      <trkpt lat="44.97701" lon="1.0583">
        <ele>109.59999847412</ele>
        <time>2011-06-29T08:03:43.000Z</time>
      </trkpt>
      <trkpt lat="44.97695" lon="1.05848">
        <ele>110.40000152588</ele>
        <time>2011-06-29T08:03:48.000Z</time>
      </trkpt>
      <trkpt lat="44.97689" lon="1.05865">
        <ele>110.19999694824</ele>
        <time>2011-06-29T08:03:53.000Z</time>
      </trkpt>
      <trkpt lat="44.97682" lon="1.05887">
        <ele>115.59999847412</ele>
        <time>2011-06-29T08:03:59.000Z</time>
      </trkpt>
      <trkpt lat="44.97674" lon="1.0591">
        <ele>117.80000305176</ele>
        <time>2011-06-29T08:04:04.000Z</time>
      </trkpt>
      <trkpt lat="44.97661" lon="1.05943">
        <ele>121.59999847412</ele>
        <time>2011-06-29T08:04:11.000Z</time>
      </trkpt>
      <trkpt lat="44.97652" lon="1.05967">
        <ele>122.40000152588</ele>
        <time>2011-06-29T08:04:17.000Z</time>
      </trkpt>
      <trkpt lat="44.97642" lon="1.05988">
        <ele>123</ele>
        <time>2011-06-29T08:04:21.000Z</time>
      </trkpt>
      <trkpt lat="44.97626" lon="1.06018">
        <ele>123.19999694824</ele>
        <time>2011-06-29T08:04:26.000Z</time>
      </trkpt>
      <trkpt lat="44.97616" lon="1.06047">
        <ele>125.80000305176</ele>
        <time>2011-06-29T08:04:31.000Z</time>
      </trkpt>
      <trkpt lat="44.97605" lon="1.0608">
        <ele>125.19999694824</ele>
        <time>2011-06-29T08:04:37.000Z</time>
      </trkpt>
      <trkpt lat="44.97603" lon="1.06084">
        <ele>125.19999694824</ele>
        <time>2011-06-29T08:04:38.000Z</time>
      </trkpt>
      <trkpt lat="44.97595" lon="1.06103">
        <ele>123.59999847412</ele>
        <time>2011-06-29T08:04:43.000Z</time>
      </trkpt>
      <trkpt lat="44.9759" lon="1.06112">
        <ele>121.59999847412</ele>
        <time>2011-06-29T08:04:48.000Z</time>
      </trkpt>
      <trkpt lat="44.97582" lon="1.06122">
        <ele>117</ele>
        <time>2011-06-29T08:04:54.000Z</time>
      </trkpt>
      <trkpt lat="44.97578" lon="1.06128">
        <ele>116.59999847412</ele>
        <time>2011-06-29T08:04:57.000Z</time>
      </trkpt>
      <trkpt lat="44.97575" lon="1.06146">
        <ele>115.40000152588</ele>
        <time>2011-06-29T08:05:04.000Z</time>
      </trkpt>
      <trkpt lat="44.97578" lon="1.06161">
        <ele>115.80000305176</ele>
        <time>2011-06-29T08:05:10.000Z</time>
      </trkpt>
      <trkpt lat="44.97585" lon="1.0618">
        <ele>113</ele>
        <time>2011-06-29T08:05:17.000Z</time>
      </trkpt>
      <trkpt lat="44.97586" lon="1.06202">
        <ele>113</ele>
        <time>2011-06-29T08:05:24.000Z</time>
      </trkpt>
      <trkpt lat="44.97588" lon="1.0622">
        <ele>113.80000305176</ele>
        <time>2011-06-29T08:05:29.000Z</time>
      </trkpt>
      <trkpt lat="44.97587" lon="1.06235">
        <ele>114.19999694824</ele>
        <time>2011-06-29T08:05:34.000Z</time>
      </trkpt>
      <trkpt lat="44.97591" lon="1.06245">
        <ele>113</ele>
        <time>2011-06-29T08:05:38.000Z</time>
      </trkpt>
      <trkpt lat="44.97593" lon="1.06255">
        <ele>112.80000305176</ele>
        <time>2011-06-29T08:05:41.000Z</time>
      </trkpt>
      <trkpt lat="44.97595" lon="1.06277">
        <ele>111.59999847412</ele>
        <time>2011-06-29T08:05:48.000Z</time>
      </trkpt>
      <trkpt lat="44.97598" lon="1.06292">
        <ele>111.80000305176</ele>
        <time>2011-06-29T08:05:53.000Z</time>
      </trkpt>
      <trkpt lat="44.97599" lon="1.063">
        <ele>111.59999847412</ele>
        <time>2011-06-29T08:05:56.000Z</time>
      </trkpt>
      <trkpt lat="44.97598" lon="1.06313">
        <ele>107</ele>
        <time>2011-06-29T08:06:02.000Z</time>
      </trkpt>
      <trkpt lat="44.97599" lon="1.06314">
        <ele>106.19999694824</ele>
        <time>2011-06-29T08:06:03.000Z</time>
      </trkpt>
      <trkpt lat="44.97605" lon="1.06328">
        <ele>103.40000152588</ele>
        <time>2011-06-29T08:06:10.000Z</time>
      </trkpt>
      <trkpt lat="44.9761" lon="1.06338">
        <ele>101.80000305176</ele>
        <time>2011-06-29T08:06:14.000Z</time>
      </trkpt>
      <trkpt lat="44.97614" lon="1.06351">
        <ele>101</ele>
        <time>2011-06-29T08:06:19.000Z</time>
      </trkpt>
      <trkpt lat="44.97622" lon="1.06368">
        <ele>101</ele>
        <time>2011-06-29T08:06:26.000Z</time>
      </trkpt>
      <trkpt lat="44.97623" lon="1.0637">
        <ele>101.40000152588</ele>
        <time>2011-06-29T08:06:27.000Z</time>
      </trkpt>
      <trkpt lat="44.97627" lon="1.0639">
        <ele>103.40000152588</ele>
        <time>2011-06-29T08:06:33.000Z</time>
      </trkpt>
      <trkpt lat="44.97632" lon="1.06401">
        <ele>103.80000305176</ele>
        <time>2011-06-29T08:06:36.000Z</time>
      </trkpt>
      <trkpt lat="44.97637" lon="1.06413">
        <ele>105</ele>
        <time>2011-06-29T08:06:40.000Z</time>
      </trkpt>
      <trkpt lat="44.97636" lon="1.06431">
        <ele>104.59999847412</ele>
        <time>2011-06-29T08:06:45.000Z</time>
      </trkpt>
      <trkpt lat="44.97636" lon="1.06435">
        <ele>104.59999847412</ele>
        <time>2011-06-29T08:06:46.000Z</time>
      </trkpt>
      <trkpt lat="44.97629" lon="1.06453">
        <ele>105.19999694824</ele>
        <time>2011-06-29T08:06:52.000Z</time>
      </trkpt>
      <trkpt lat="44.97622" lon="1.06467">
        <ele>106.59999847412</ele>
        <time>2011-06-29T08:06:57.000Z</time>
      </trkpt>
      <trkpt lat="44.97615" lon="1.06481">
        <ele>109</ele>
        <time>2011-06-29T08:07:02.000Z</time>
      </trkpt>
      <trkpt lat="44.97609" lon="1.06505">
        <ele>113.59999847412</ele>
        <time>2011-06-29T08:07:09.000Z</time>
      </trkpt>
      <trkpt lat="44.97606" lon="1.06528">
        <ele>118.40000152588</ele>
        <time>2011-06-29T08:07:16.000Z</time>
      </trkpt>
      <trkpt lat="44.97605" lon="1.06548">
        <ele>122.59999847412</ele>
        <time>2011-06-29T08:07:23.000Z</time>
      </trkpt>
      <trkpt lat="44.97606" lon="1.06562">
        <ele>123</ele>
        <time>2011-06-29T08:07:28.000Z</time>
      </trkpt>
      <trkpt lat="44.97609" lon="1.06572">
        <ele>120.40000152588</ele>
        <time>2011-06-29T08:07:33.000Z</time>
      </trkpt>
      <trkpt lat="44.97614" lon="1.06587">
        <ele>114.40000152588</ele>
        <time>2011-06-29T08:07:40.000Z</time>
      </trkpt>
      <trkpt lat="44.97622" lon="1.06602">
        <ele>112.80000305176</ele>
        <time>2011-06-29T08:07:46.000Z</time>
      </trkpt>
      <trkpt lat="44.97629" lon="1.06624">
        <ele>111</ele>
        <time>2011-06-29T08:07:54.000Z</time>
      </trkpt>
      <trkpt lat="44.97631" lon="1.06629">
        <ele>110.59999847412</ele>
        <time>2011-06-29T08:07:56.000Z</time>
      </trkpt>
      <trkpt lat="44.97637" lon="1.0665">
        <ele>115</ele>
        <time>2011-06-29T08:08:03.000Z</time>
      </trkpt>
      <trkpt lat="44.9764" lon="1.06666">
        <ele>115.19999694824</ele>
        <time>2011-06-29T08:08:09.000Z</time>
      </trkpt>
      <trkpt lat="44.9764" lon="1.06677">
        <ele>116.80000305176</ele>
        <time>2011-06-29T08:08:12.000Z</time>
      </trkpt>
      <trkpt lat="44.97642" lon="1.06694">
        <ele>119</ele>
        <time>2011-06-29T08:08:18.000Z</time>
      </trkpt>
      <trkpt lat="44.97648" lon="1.06703">
        <ele>116.80000305176</ele>
        <time>2011-06-29T08:08:23.000Z</time>
      </trkpt>
      <trkpt lat="44.97655" lon="1.06716">
        <ele>114.59999847412</ele>
        <time>2011-06-29T08:08:29.000Z</time>
      </trkpt>
      <trkpt lat="44.97658" lon="1.0673">
        <ele>111.80000305176</ele>
        <time>2011-06-29T08:08:35.000Z</time>
      </trkpt>
      <trkpt lat="44.97659" lon="1.06749">
        <ele>115</ele>
        <time>2011-06-29T08:08:41.000Z</time>
      </trkpt>
      <trkpt lat="44.97661" lon="1.06764">
        <ele>116.80000305176</ele>
        <time>2011-06-29T08:08:47.000Z</time>
      </trkpt>
      <trkpt lat="44.97662" lon="1.06775">
        <ele>114.40000152588</ele>
        <time>2011-06-29T08:08:52.000Z</time>
      </trkpt>
      <trkpt lat="44.97663" lon="1.06777">
        <ele>114</ele>
        <time>2011-06-29T08:08:53.000Z</time>
      </trkpt>
      <trkpt lat="44.97662" lon="1.06794">
        <ele>117.80000305176</ele>
        <time>2011-06-29T08:08:58.000Z</time>
      </trkpt>
      <trkpt lat="44.9766" lon="1.06813">
        <ele>121.19999694824</ele>
        <time>2011-06-29T08:09:04.000Z</time>
      </trkpt>
      <trkpt lat="44.97664" lon="1.06827">
        <ele>121.40000152588</ele>
        <time>2011-06-29T08:09:09.000Z</time>
      </trkpt>
      <trkpt lat="44.97668" lon="1.0684">
        <ele>121.80000305176</ele>
        <time>2011-06-29T08:09:14.000Z</time>
      </trkpt>
      <trkpt lat="44.9767" lon="1.06866">
        <ele>130.80000305176</ele>
        <time>2011-06-29T08:09:22.000Z</time>
      </trkpt>
      <trkpt lat="44.97673" lon="1.06881">
        <ele>134.60000610352</ele>
        <time>2011-06-29T08:09:27.000Z</time>
      </trkpt>
      <trkpt lat="44.97674" lon="1.06896">
        <ele>136.80000305176</ele>
        <time>2011-06-29T08:09:32.000Z</time>
      </trkpt>
      <trkpt lat="44.97675" lon="1.06912">
        <ele>139</ele>
        <time>2011-06-29T08:09:37.000Z</time>
      </trkpt>
      <trkpt lat="44.97679" lon="1.06927">
        <ele>138</ele>
        <time>2011-06-29T08:09:43.000Z</time>
      </trkpt>
      <trkpt lat="44.97679" lon="1.06944">
        <ele>137.39999389648</ele>
        <time>2011-06-29T08:09:49.000Z</time>
      </trkpt>
      <trkpt lat="44.97679" lon="1.0695">
        <ele>137.19999694824</ele>
        <time>2011-06-29T08:09:51.000Z</time>
      </trkpt>
      <trkpt lat="44.9768" lon="1.06961">
        <ele>137.39999389648</ele>
        <time>2011-06-29T08:09:55.000Z</time>
      </trkpt>
      <trkpt lat="44.97682" lon="1.06979">
        <ele>137.80000305176</ele>
        <time>2011-06-29T08:10:02.000Z</time>
      </trkpt>
      <trkpt lat="44.97684" lon="1.06993">
        <ele>137.60000610352</ele>
        <time>2011-06-29T08:10:07.000Z</time>
      </trkpt>
      <trkpt lat="44.97686" lon="1.07007">
        <ele>138.39999389648</ele>
        <time>2011-06-29T08:10:12.000Z</time>
      </trkpt>
      <trkpt lat="44.9769" lon="1.07022">
        <ele>141.80000305176</ele>
        <time>2011-06-29T08:10:18.000Z</time>
      </trkpt>
      <trkpt lat="44.9769" lon="1.07029">
        <ele>144.60000610352</ele>
        <time>2011-06-29T08:10:21.000Z</time>
      </trkpt>
      <trkpt lat="44.97692" lon="1.07045">
        <ele>149.39999389648</ele>
        <time>2011-06-29T08:10:27.000Z</time>
      </trkpt>
      <trkpt lat="44.97698" lon="1.07058">
        <ele>148.39999389648</ele>
        <time>2011-06-29T08:10:33.000Z</time>
      </trkpt>
      <trkpt lat="44.977" lon="1.07077">
        <ele>151.39999389648</ele>
        <time>2011-06-29T08:10:39.000Z</time>
      </trkpt>
      <trkpt lat="44.97701" lon="1.0709">
        <ele>155.60000610352</ele>
        <time>2011-06-29T08:10:44.000Z</time>
      </trkpt>
      <trkpt lat="44.97702" lon="1.07092">
        <ele>156.60000610352</ele>
        <time>2011-06-29T08:10:45.000Z</time>
      </trkpt>
      <trkpt lat="44.97703" lon="1.07098">
        <ele>159.39999389648</ele>
        <time>2011-06-29T08:10:48.000Z</time>
      </trkpt>
      <trkpt lat="44.97707" lon="1.07109">
        <ele>163.19999694824</ele>
        <time>2011-06-29T08:10:53.000Z</time>
      </trkpt>
      <trkpt lat="44.97716" lon="1.07131">
        <ele>163.19999694824</ele>
        <time>2011-06-29T08:11:01.000Z</time>
      </trkpt>
      <trkpt lat="44.97719" lon="1.07137">
        <ele>163.39999389648</ele>
        <time>2011-06-29T08:11:03.000Z</time>
      </trkpt>
      <trkpt lat="44.97724" lon="1.07149">
        <ele>163.39999389648</ele>
        <time>2011-06-29T08:11:08.000Z</time>
      </trkpt>
      <trkpt lat="44.97727" lon="1.07159">
        <ele>164.39999389648</ele>
        <time>2011-06-29T08:11:12.000Z</time>
      </trkpt>
      <trkpt lat="44.97729" lon="1.07166">
        <ele>165.60000610352</ele>
        <time>2011-06-29T08:11:15.000Z</time>
      </trkpt>
      <trkpt lat="44.97738" lon="1.07184">
        <ele>167.60000610352</ele>
        <time>2011-06-29T08:11:22.000Z</time>
      </trkpt>
      <trkpt lat="44.97741" lon="1.07193">
        <ele>167.19999694824</ele>
        <time>2011-06-29T08:11:26.000Z</time>
      </trkpt>
      <trkpt lat="44.97749" lon="1.07212">
        <ele>167.60000610352</ele>
        <time>2011-06-29T08:11:33.000Z</time>
      </trkpt>
      <trkpt lat="44.97755" lon="1.07222">
        <ele>167</ele>
        <time>2011-06-29T08:11:37.000Z</time>
      </trkpt>
      <trkpt lat="44.9776" lon="1.07216">
        <ele>167.39999389648</ele>
        <time>2011-06-29T08:11:42.000Z</time>
      </trkpt>
      <trkpt lat="44.97764" lon="1.07199">
        <ele>166.80000305176</ele>
        <time>2011-06-29T08:11:50.000Z</time>
      </trkpt>
      <trkpt lat="44.97762" lon="1.07181">
        <ele>167.60000610352</ele>
        <time>2011-06-29T08:11:58.000Z</time>
      </trkpt>
      <trkpt lat="44.97758" lon="1.07162">
        <ele>168.19999694824</ele>
        <time>2011-06-29T08:12:05.000Z</time>
      </trkpt>
      <trkpt lat="44.97757" lon="1.07146">
        <ele>167</ele>
        <time>2011-06-29T08:12:11.000Z</time>
      </trkpt>
      <trkpt lat="44.97755" lon="1.07121">
        <ele>166.19999694824</ele>
        <time>2011-06-29T08:12:19.000Z</time>
      </trkpt>
      <trkpt lat="44.97753" lon="1.07091">
        <ele>165.80000305176</ele>
        <time>2011-06-29T08:12:28.000Z</time>
      </trkpt>
      <trkpt lat="44.97757" lon="1.07065">
        <ele>164.80000305176</ele>
        <time>2011-06-29T08:12:36.000Z</time>
      </trkpt>
      <trkpt lat="44.97763" lon="1.07053">
        <ele>165.39999389648</ele>
        <time>2011-06-29T08:12:41.000Z</time>
      </trkpt>
      <trkpt lat="44.97769" lon="1.07039">
        <ele>165.19999694824</ele>
        <time>2011-06-29T08:12:46.000Z</time>
      </trkpt>
      <trkpt lat="44.97773" lon="1.0702">
        <ele>166</ele>
        <time>2011-06-29T08:12:52.000Z</time>
      </trkpt>
      <trkpt lat="44.97776" lon="1.06995">
        <ele>167.60000610352</ele>
        <time>2011-06-29T08:12:58.000Z</time>
      </trkpt>
      <trkpt lat="44.97779" lon="1.06976">
        <ele>168.60000610352</ele>
        <time>2011-06-29T08:13:03.000Z</time>
      </trkpt>
      <trkpt lat="44.97784" lon="1.06952">
        <ele>169.19999694824</ele>
        <time>2011-06-29T08:13:09.000Z</time>
      </trkpt>
      <trkpt lat="44.97792" lon="1.06925">
        <ele>169</ele>
        <time>2011-06-29T08:13:16.000Z</time>
      </trkpt>
      <trkpt lat="44.97798" lon="1.069">
        <ele>170.19999694824</ele>
        <time>2011-06-29T08:13:23.000Z</time>
      </trkpt>
      <trkpt lat="44.97805" lon="1.06878">
        <ele>173.19999694824</ele>
        <time>2011-06-29T08:13:29.000Z</time>
      </trkpt>
      <trkpt lat="44.97809" lon="1.06852">
        <ele>176.80000305176</ele>
        <time>2011-06-29T08:13:35.000Z</time>
      </trkpt>
      <trkpt lat="44.97813" lon="1.06827">
        <ele>177.39999389648</ele>
        <time>2011-06-29T08:13:40.000Z</time>
      </trkpt>
      <trkpt lat="44.97818" lon="1.06801">
        <ele>178</ele>
        <time>2011-06-29T08:13:45.000Z</time>
      </trkpt>
      <trkpt lat="44.9782" lon="1.06791">
        <ele>178.60000610352</ele>
        <time>2011-06-29T08:13:48.000Z</time>
      </trkpt>
      <trkpt lat="44.97825" lon="1.06793">
        <ele>178.80000305176</ele>
        <time>2011-06-29T08:13:53.000Z</time>
      </trkpt>
      <trkpt lat="44.97824" lon="1.06804">
        <ele>178.80000305176</ele>
        <time>2011-06-29T08:13:59.000Z</time>
      </trkpt>
      <trkpt lat="44.97824" lon="1.06817">
        <ele>179.60000610352</ele>
        <time>2011-06-29T08:14:06.000Z</time>
      </trkpt>
      <trkpt lat="44.97824" lon="1.06833">
        <ele>180.19999694824</ele>
        <time>2011-06-29T08:14:14.000Z</time>
      </trkpt>
      <trkpt lat="44.97824" lon="1.06847">
        <ele>180.60000610352</ele>
        <time>2011-06-29T08:14:20.000Z</time>
      </trkpt>
      <trkpt lat="44.97825" lon="1.0687">
        <ele>180.80000305176</ele>
        <time>2011-06-29T08:14:28.000Z</time>
      </trkpt>
      <trkpt lat="44.97825" lon="1.06897">
        <ele>181.39999389648</ele>
        <time>2011-06-29T08:14:37.000Z</time>
      </trkpt>
      <trkpt lat="44.97825" lon="1.06925">
        <ele>182.60000610352</ele>
        <time>2011-06-29T08:14:45.000Z</time>
      </trkpt>
      <trkpt lat="44.97828" lon="1.06967">
        <ele>182.60000610352</ele>
        <time>2011-06-29T08:14:55.000Z</time>
      </trkpt>
      <trkpt lat="44.9783" lon="1.07006">
        <ele>183.39999389648</ele>
        <time>2011-06-29T08:15:02.000Z</time>
      </trkpt>
      <trkpt lat="44.97836" lon="1.07062">
        <ele>185.60000610352</ele>
        <time>2011-06-29T08:15:12.000Z</time>
      </trkpt>
      <trkpt lat="44.97843" lon="1.07107">
        <ele>189.60000610352</ele>
        <time>2011-06-29T08:15:20.000Z</time>
      </trkpt>
      <trkpt lat="44.97857" lon="1.07171">
        <ele>193.60000610352</ele>
        <time>2011-06-29T08:15:32.000Z</time>
      </trkpt>
      <trkpt lat="44.97871" lon="1.07224">
        <ele>196.80000305176</ele>
        <time>2011-06-29T08:15:42.000Z</time>
      </trkpt>
      <trkpt lat="44.97884" lon="1.07283">
        <ele>199.39999389648</ele>
        <time>2011-06-29T08:15:53.000Z</time>
      </trkpt>
      <trkpt lat="44.97887" lon="1.07332">
        <ele>201.19999694824</ele>
        <time>2011-06-29T08:16:02.000Z</time>
      </trkpt>
      <trkpt lat="44.97886" lon="1.07383">
        <ele>202.39999389648</ele>
        <time>2011-06-29T08:16:11.000Z</time>
      </trkpt>
      <trkpt lat="44.97883" lon="1.07444">
        <ele>204.80000305176</ele>
        <time>2011-06-29T08:16:20.000Z</time>
      </trkpt>
      <trkpt lat="44.9788" lon="1.07481">
        <ele>206.60000610352</ele>
        <time>2011-06-29T08:16:26.000Z</time>
      </trkpt>
      <trkpt lat="44.97875" lon="1.07519">
        <ele>208</ele>
        <time>2011-06-29T08:16:33.000Z</time>
      </trkpt>
      <trkpt lat="44.97871" lon="1.07563">
        <ele>210</ele>
        <time>2011-06-29T08:16:41.000Z</time>
      </trkpt>
      <trkpt lat="44.9787" lon="1.07624">
        <ele>211.39999389648</ele>
        <time>2011-06-29T08:16:52.000Z</time>
      </trkpt>
      <trkpt lat="44.9787" lon="1.07648">
        <ele>212</ele>
        <time>2011-06-29T08:16:57.000Z</time>
      </trkpt>
      <trkpt lat="44.97878" lon="1.07652">
        <ele>213.19999694824</ele>
        <time>2011-06-29T08:17:01.000Z</time>
      </trkpt>
      <trkpt lat="44.97879" lon="1.07649">
        <ele>213.60000610352</ele>
        <time>2011-06-29T08:17:02.000Z</time>
      </trkpt>
      <trkpt lat="44.9789" lon="1.07622">
        <ele>215.60000610352</ele>
        <time>2011-06-29T08:17:09.000Z</time>
      </trkpt>
      <trkpt lat="44.979" lon="1.07602">
        <ele>216.19999694824</ele>
        <time>2011-06-29T08:17:14.000Z</time>
      </trkpt>
      <trkpt lat="44.97904" lon="1.07597">
        <ele>216.60000610352</ele>
        <time>2011-06-29T08:17:16.000Z</time>
      </trkpt>
      <trkpt lat="44.97909" lon="1.07605">
        <ele>217.19999694824</ele>
        <time>2011-06-29T08:17:21.000Z</time>
      </trkpt>
      <trkpt lat="44.97908" lon="1.07609">
        <ele>217</ele>
        <time>2011-06-29T08:17:22.000Z</time>
      </trkpt>
      <trkpt lat="44.97902" lon="1.07636">
        <ele>216.39999389648</ele>
        <time>2011-06-29T08:17:28.000Z</time>
      </trkpt>
      <trkpt lat="44.97898" lon="1.07671">
        <ele>216.39999389648</ele>
        <time>2011-06-29T08:17:35.000Z</time>
      </trkpt>
      <trkpt lat="44.97896" lon="1.07677">
        <ele>216.60000610352</ele>
        <time>2011-06-29T08:17:36.000Z</time>
      </trkpt>
      <trkpt lat="44.97885" lon="1.07714">
        <ele>216.60000610352</ele>
        <time>2011-06-29T08:17:43.000Z</time>
      </trkpt>
      <trkpt lat="44.97872" lon="1.07735">
        <ele>216.80000305176</ele>
        <time>2011-06-29T08:17:49.000Z</time>
      </trkpt>
      <trkpt lat="44.97862" lon="1.07758">
        <ele>216.60000610352</ele>
        <time>2011-06-29T08:17:55.000Z</time>
      </trkpt>
      <trkpt lat="44.97849" lon="1.07779">
        <ele>217.39999389648</ele>
        <time>2011-06-29T08:18:01.000Z</time>
      </trkpt>
      <trkpt lat="44.97844" lon="1.07791">
        <ele>218</ele>
        <time>2011-06-29T08:18:06.000Z</time>
      </trkpt>
      <trkpt lat="44.97834" lon="1.07811">
        <ele>220.19999694824</ele>
        <time>2011-06-29T08:18:12.000Z</time>
      </trkpt>
      <trkpt lat="44.97818" lon="1.07837">
        <ele>221.80000305176</ele>
        <time>2011-06-29T08:18:21.000Z</time>
      </trkpt>
      <trkpt lat="44.97809" lon="1.07861">
        <ele>224</ele>
        <time>2011-06-29T08:18:29.000Z</time>
      </trkpt>
      <trkpt lat="44.97802" lon="1.0789">
        <ele>226.39999389648</ele>
        <time>2011-06-29T08:18:39.000Z</time>
      </trkpt>
      <trkpt lat="44.97799" lon="1.07905">
        <ele>227.60000610352</ele>
        <time>2011-06-29T08:18:45.000Z</time>
      </trkpt>
      <trkpt lat="44.97794" lon="1.07927">
        <ele>229.19999694824</ele>
        <time>2011-06-29T08:18:53.000Z</time>
      </trkpt>
      <trkpt lat="44.97788" lon="1.07951">
        <ele>230.19999694824</ele>
        <time>2011-06-29T08:19:01.000Z</time>
      </trkpt>
      <trkpt lat="44.97783" lon="1.07976">
        <ele>232.39999389648</ele>
        <time>2011-06-29T08:19:09.000Z</time>
      </trkpt>
      <trkpt lat="44.97778" lon="1.07996">
        <ele>234.60000610352</ele>
        <time>2011-06-29T08:19:15.000Z</time>
      </trkpt>
      <trkpt lat="44.97772" lon="1.0802">
        <ele>236.60000610352</ele>
        <time>2011-06-29T08:19:22.000Z</time>
      </trkpt>
      <trkpt lat="44.97764" lon="1.08046">
        <ele>239</ele>
        <time>2011-06-29T08:19:30.000Z</time>
      </trkpt>
      <trkpt lat="44.97764" lon="1.08064">
        <ele>240.80000305176</ele>
        <time>2011-06-29T08:19:35.000Z</time>
      </trkpt>
      <trkpt lat="44.97764" lon="1.08088">
        <ele>244.80000305176</ele>
        <time>2011-06-29T08:19:42.000Z</time>
      </trkpt>
      <trkpt lat="44.9776" lon="1.08106">
        <ele>247.80000305176</ele>
        <time>2011-06-29T08:19:48.000Z</time>
      </trkpt>
      <trkpt lat="44.97754" lon="1.08123">
        <ele>250</ele>
        <time>2011-06-29T08:19:53.000Z</time>
      </trkpt>
      <trkpt lat="44.97743" lon="1.08143">
        <ele>248.80000305176</ele>
        <time>2011-06-29T08:19:59.000Z</time>
      </trkpt>
      <trkpt lat="44.97731" lon="1.08167">
        <ele>248.39999389648</ele>
        <time>2011-06-29T08:20:05.000Z</time>
      </trkpt>
      <trkpt lat="44.97722" lon="1.082">
        <ele>249.39999389648</ele>
        <time>2011-06-29T08:20:12.000Z</time>
      </trkpt>
      <trkpt lat="44.97725" lon="1.08221">
        <ele>250.39999389648</ele>
        <time>2011-06-29T08:20:17.000Z</time>
      </trkpt>
      <trkpt lat="44.97729" lon="1.08238">
        <ele>251.80000305176</ele>
        <time>2011-06-29T08:20:21.000Z</time>
      </trkpt>
      <trkpt lat="44.97735" lon="1.08272">
        <ele>251.80000305176</ele>
        <time>2011-06-29T08:20:28.000Z</time>
      </trkpt>
      <trkpt lat="44.97741" lon="1.08306">
        <ele>251.80000305176</ele>
        <time>2011-06-29T08:20:35.000Z</time>
      </trkpt>
      <trkpt lat="44.97741" lon="1.08328">
        <ele>253.19999694824</ele>
        <time>2011-06-29T08:20:39.000Z</time>
      </trkpt>
      <trkpt lat="44.97745" lon="1.08353">
        <ele>253.19999694824</ele>
        <time>2011-06-29T08:20:44.000Z</time>
      </trkpt>
      <trkpt lat="44.9775" lon="1.08378">
        <ele>254</ele>
        <time>2011-06-29T08:20:49.000Z</time>
      </trkpt>
      <trkpt lat="44.97758" lon="1.084">
        <ele>251.80000305176</ele>
        <time>2011-06-29T08:20:53.000Z</time>
      </trkpt>
      <trkpt lat="44.97764" lon="1.08415">
        <ele>250.19999694824</ele>
        <time>2011-06-29T08:20:56.000Z</time>
      </trkpt>
      <trkpt lat="44.97781" lon="1.08456">
        <ele>246.60000610352</ele>
        <time>2011-06-29T08:21:03.000Z</time>
      </trkpt>
      <trkpt lat="44.97784" lon="1.08463">
        <ele>246.60000610352</ele>
        <time>2011-06-29T08:21:04.000Z</time>
      </trkpt>
      <trkpt lat="44.97793" lon="1.08483">
        <ele>245.80000305176</ele>
        <time>2011-06-29T08:21:07.000Z</time>
      </trkpt>
      <trkpt lat="44.97806" lon="1.08512">
        <ele>244.60000610352</ele>
        <time>2011-06-29T08:21:12.000Z</time>
      </trkpt>
      <trkpt lat="44.97828" lon="1.08538">
        <ele>244.80000305176</ele>
        <time>2011-06-29T08:21:19.000Z</time>
      </trkpt>
      <trkpt lat="44.97843" lon="1.08562">
        <ele>244.60000610352</ele>
        <time>2011-06-29T08:21:25.000Z</time>
      </trkpt>
      <trkpt lat="44.97862" lon="1.08589">
        <ele>239.80000305176</ele>
        <time>2011-06-29T08:21:32.000Z</time>
      </trkpt>
      <trkpt lat="44.97875" lon="1.08615">
        <ele>240.19999694824</ele>
        <time>2011-06-29T08:21:39.000Z</time>
      </trkpt>
      <trkpt lat="44.97883" lon="1.08625">
        <ele>241.80000305176</ele>
        <time>2011-06-29T08:21:44.000Z</time>
      </trkpt>
      <trkpt lat="44.97888" lon="1.08643">
        <ele>239.19999694824</ele>
        <time>2011-06-29T08:21:50.000Z</time>
      </trkpt>
      <trkpt lat="44.97895" lon="1.08658">
        <ele>240.39999389648</ele>
        <time>2011-06-29T08:21:56.000Z</time>
      </trkpt>
      <trkpt lat="44.97906" lon="1.08677">
        <ele>242.39999389648</ele>
        <time>2011-06-29T08:22:02.000Z</time>
      </trkpt>
      <trkpt lat="44.97916" lon="1.08696">
        <ele>245.39999389648</ele>
        <time>2011-06-29T08:22:08.000Z</time>
      </trkpt>
      <trkpt lat="44.97924" lon="1.0871">
        <ele>248.19999694824</ele>
        <time>2011-06-29T08:22:13.000Z</time>
      </trkpt>
      <trkpt lat="44.97931" lon="1.08722">
        <ele>249.80000305176</ele>
        <time>2011-06-29T08:22:18.000Z</time>
      </trkpt>
      <trkpt lat="44.97943" lon="1.08741">
        <ele>251.80000305176</ele>
        <time>2011-06-29T08:22:25.000Z</time>
      </trkpt>
      <trkpt lat="44.9795" lon="1.08758">
        <ele>254.19999694824</ele>
        <time>2011-06-29T08:22:31.000Z</time>
      </trkpt>
      <trkpt lat="44.97956" lon="1.0877">
        <ele>255.80000305176</ele>
        <time>2011-06-29T08:22:35.000Z</time>
      </trkpt>
      <trkpt lat="44.97961" lon="1.08786">
        <ele>256.79998779297</ele>
        <time>2011-06-29T08:22:39.000Z</time>
      </trkpt>
      <trkpt lat="44.97969" lon="1.0882">
        <ele>258.39999389648</ele>
        <time>2011-06-29T08:22:46.000Z</time>
      </trkpt>
      <trkpt lat="44.9797" lon="1.08852">
        <ele>262.39999389648</ele>
        <time>2011-06-29T08:22:52.000Z</time>
      </trkpt>
      <trkpt lat="44.97974" lon="1.0887">
        <ele>265.20001220703</ele>
        <time>2011-06-29T08:22:57.000Z</time>
      </trkpt>
      <trkpt lat="44.97981" lon="1.08891">
        <ele>263.39999389648</ele>
        <time>2011-06-29T08:23:03.000Z</time>
      </trkpt>
      <trkpt lat="44.97989" lon="1.08918">
        <ele>263.20001220703</ele>
        <time>2011-06-29T08:23:09.000Z</time>
      </trkpt>
      <trkpt lat="44.97997" lon="1.08943">
        <ele>262.79998779297</ele>
        <time>2011-06-29T08:23:15.000Z</time>
      </trkpt>
      <trkpt lat="44.98002" lon="1.08958">
        <ele>262.39999389648</ele>
        <time>2011-06-29T08:23:19.000Z</time>
      </trkpt>
      <trkpt lat="44.98014" lon="1.08984">
        <ele>261.60000610352</ele>
        <time>2011-06-29T08:23:26.000Z</time>
      </trkpt>
      <trkpt lat="44.98029" lon="1.09005">
        <ele>260</ele>
        <time>2011-06-29T08:23:32.000Z</time>
      </trkpt>
      <trkpt lat="44.9804" lon="1.09013">
        <ele>259</ele>
        <time>2011-06-29T08:23:35.000Z</time>
      </trkpt>
      <trkpt lat="44.98076" lon="1.09043">
        <ele>257</ele>
        <time>2011-06-29T08:23:43.000Z</time>
      </trkpt>
      <trkpt lat="44.98094" lon="1.09061">
        <ele>256.39999389648</ele>
        <time>2011-06-29T08:23:48.000Z</time>
      </trkpt>
      <trkpt lat="44.98095" lon="1.09062">
        <ele>256.20001220703</ele>
        <time>2011-06-29T08:23:49.000Z</time>
      </trkpt>
      <trkpt lat="44.981" lon="1.0906">
        <ele>254.80000305176</ele>
        <time>2011-06-29T08:23:53.000Z</time>
      </trkpt>
      <trkpt lat="44.98108" lon="1.09065">
        <ele>252.80000305176</ele>
        <time>2011-06-29T08:23:59.000Z</time>
      </trkpt>
      <trkpt lat="44.98121" lon="1.09064">
        <ele>251.19999694824</ele>
        <time>2011-06-29T08:24:07.000Z</time>
      </trkpt>
      <trkpt lat="44.9813" lon="1.09065">
        <ele>246.80000305176</ele>
        <time>2011-06-29T08:24:11.000Z</time>
      </trkpt>
      <trkpt lat="44.98144" lon="1.09071">
        <ele>245.19999694824</ele>
        <time>2011-06-29T08:24:16.000Z</time>
      </trkpt>
      <trkpt lat="44.98147" lon="1.09073">
        <ele>245.19999694824</ele>
        <time>2011-06-29T08:24:17.000Z</time>
      </trkpt>
      <trkpt lat="44.98154" lon="1.09077">
        <ele>245</ele>
        <time>2011-06-29T08:24:19.000Z</time>
      </trkpt>
      <trkpt lat="44.98182" lon="1.09087">
        <ele>243.60000610352</ele>
        <time>2011-06-29T08:24:24.000Z</time>
      </trkpt>
      <trkpt lat="44.98202" lon="1.09094">
        <ele>241.80000305176</ele>
        <time>2011-06-29T08:24:27.000Z</time>
      </trkpt>
      <trkpt lat="44.98223" lon="1.09103">
        <ele>238.39999389648</ele>
        <time>2011-06-29T08:24:31.000Z</time>
      </trkpt>
      <trkpt lat="44.98249" lon="1.0911">
        <ele>235.39999389648</ele>
        <time>2011-06-29T08:24:35.000Z</time>
      </trkpt>
      <trkpt lat="44.98281" lon="1.09114">
        <ele>232.80000305176</ele>
        <time>2011-06-29T08:24:39.000Z</time>
      </trkpt>
      <trkpt lat="44.98302" lon="1.09116">
        <ele>232.19999694824</ele>
        <time>2011-06-29T08:24:43.000Z</time>
      </trkpt>
      <trkpt lat="44.98321" lon="1.0911">
        <ele>232</ele>
        <time>2011-06-29T08:24:50.000Z</time>
      </trkpt>
      <trkpt lat="44.98336" lon="1.09105">
        <ele>232.19999694824</ele>
        <time>2011-06-29T08:24:55.000Z</time>
      </trkpt>
      <trkpt lat="44.9835" lon="1.09098">
        <ele>233.39999389648</ele>
        <time>2011-06-29T08:25:00.000Z</time>
      </trkpt>
      <trkpt lat="44.98367" lon="1.09087">
        <ele>235</ele>
        <time>2011-06-29T08:25:06.000Z</time>
      </trkpt>
      <trkpt lat="44.98382" lon="1.09081">
        <ele>238.60000610352</ele>
        <time>2011-06-29T08:25:10.000Z</time>
      </trkpt>
      <trkpt lat="44.98395" lon="1.0907">
        <ele>240.19999694824</ele>
        <time>2011-06-29T08:25:15.000Z</time>
      </trkpt>
      <trkpt lat="44.98398" lon="1.09069">
        <ele>240</ele>
        <time>2011-06-29T08:25:16.000Z</time>
      </trkpt>
      <trkpt lat="44.98407" lon="1.09068">
        <ele>240.80000305176</ele>
        <time>2011-06-29T08:25:21.000Z</time>
      </trkpt>
      <trkpt lat="44.98409" lon="1.09066">
        <ele>242.39999389648</ele>
        <time>2011-06-29T08:25:25.000Z</time>
      </trkpt>
      <trkpt lat="44.9842" lon="1.09064">
        <ele>243</ele>
        <time>2011-06-29T08:25:33.000Z</time>
      </trkpt>
      <trkpt lat="44.98426" lon="1.09062">
        <ele>240</ele>
        <time>2011-06-29T08:25:38.000Z</time>
      </trkpt>
      <trkpt lat="44.98426" lon="1.09062">
        <ele>240</ele>
        <time>2011-06-29T08:25:39.000Z</time>
      </trkpt>
      <trkpt lat="44.98436" lon="1.09056">
        <ele>242</ele>
        <time>2011-06-29T08:26:15.000Z</time>
      </trkpt>
      <trkpt lat="44.98445" lon="1.09052">
        <ele>242</ele>
        <time>2011-06-29T08:26:21.000Z</time>
      </trkpt>
      <trkpt lat="44.98446" lon="1.09052">
        <ele>242</ele>
        <time>2011-06-29T08:26:22.000Z</time>
      </trkpt>
      <trkpt lat="44.98453" lon="1.09049">
        <ele>242.60000610352</ele>
        <time>2011-06-29T08:26:28.000Z</time>
      </trkpt>
      <trkpt lat="44.98471" lon="1.09042">
        <ele>242.80000305176</ele>
        <time>2011-06-29T08:26:36.000Z</time>
      </trkpt>
      <trkpt lat="44.98483" lon="1.09033">
        <ele>240.19999694824</ele>
        <time>2011-06-29T08:26:41.000Z</time>
      </trkpt>
      <trkpt lat="44.98496" lon="1.0902">
        <ele>242.19999694824</ele>
        <time>2011-06-29T08:26:48.000Z</time>
      </trkpt>
      <trkpt lat="44.98503" lon="1.0901">
        <ele>243.80000305176</ele>
        <time>2011-06-29T08:26:53.000Z</time>
      </trkpt>
      <trkpt lat="44.98513" lon="1.09003">
        <ele>244.60000610352</ele>
        <time>2011-06-29T08:26:59.000Z</time>
      </trkpt>
      <trkpt lat="44.98523" lon="1.08991">
        <ele>244.80000305176</ele>
        <time>2011-06-29T08:27:04.000Z</time>
      </trkpt>
      <trkpt lat="44.98533" lon="1.08979">
        <ele>245.39999389648</ele>
        <time>2011-06-29T08:27:11.000Z</time>
      </trkpt>
      <trkpt lat="44.98536" lon="1.08974">
        <ele>246</ele>
        <time>2011-06-29T08:27:14.000Z</time>
      </trkpt>
      <trkpt lat="44.98545" lon="1.08974">
        <ele>247.60000610352</ele>
        <time>2011-06-29T08:27:19.000Z</time>
      </trkpt>
      <trkpt lat="44.98553" lon="1.08978">
        <ele>248</ele>
        <time>2011-06-29T08:27:24.000Z</time>
      </trkpt>
      <trkpt lat="44.98561" lon="1.08982">
        <ele>248.39999389648</ele>
        <time>2011-06-29T08:27:30.000Z</time>
      </trkpt>
      <trkpt lat="44.98564" lon="1.08982">
        <ele>248.80000305176</ele>
        <time>2011-06-29T08:27:34.000Z</time>
      </trkpt>
      <trkpt lat="44.98566" lon="1.08982">
        <ele>249.60000610352</ele>
        <time>2011-06-29T08:27:39.000Z</time>
      </trkpt>
      <trkpt lat="44.98566" lon="1.08982">
        <ele>249.60000610352</ele>
        <time>2011-06-29T08:27:40.000Z</time>
      </trkpt>
      <trkpt lat="44.98562" lon="1.0899">
        <ele>251.19999694824</ele>
        <time>2011-06-29T08:33:33.000Z</time>
      </trkpt>
      <trkpt lat="44.98559" lon="1.09007">
        <ele>250.60000610352</ele>
        <time>2011-06-29T08:33:40.000Z</time>
      </trkpt>
      <trkpt lat="44.98556" lon="1.09019">
        <ele>250.19999694824</ele>
        <time>2011-06-29T08:33:46.000Z</time>
      </trkpt>
      <trkpt lat="44.98549" lon="1.09039">
        <ele>249</ele>
        <time>2011-06-29T08:33:55.000Z</time>
      </trkpt>
      <trkpt lat="44.98543" lon="1.09057">
        <ele>248.80000305176</ele>
        <time>2011-06-29T08:34:02.000Z</time>
      </trkpt>
      <trkpt lat="44.98539" lon="1.09079">
        <ele>249.39999389648</ele>
        <time>2011-06-29T08:34:08.000Z</time>
      </trkpt>
      <trkpt lat="44.98532" lon="1.09108">
        <ele>250.39999389648</ele>
        <time>2011-06-29T08:34:15.000Z</time>
      </trkpt>
      <trkpt lat="44.98523" lon="1.09124">
        <ele>250</ele>
        <time>2011-06-29T08:34:20.000Z</time>
      </trkpt>
      <trkpt lat="44.98515" lon="1.09145">
        <ele>250.60000610352</ele>
        <time>2011-06-29T08:34:25.000Z</time>
      </trkpt>
      <trkpt lat="44.98505" lon="1.09167">
        <ele>251.19999694824</ele>
        <time>2011-06-29T08:34:31.000Z</time>
      </trkpt>
      <trkpt lat="44.98499" lon="1.09182">
        <ele>252.80000305176</ele>
        <time>2011-06-29T08:34:36.000Z</time>
      </trkpt>
      <trkpt lat="44.9849" lon="1.09195">
        <ele>253.60000610352</ele>
        <time>2011-06-29T08:34:40.000Z</time>
      </trkpt>
      <trkpt lat="44.98477" lon="1.09208">
        <ele>254</ele>
        <time>2011-06-29T08:34:45.000Z</time>
      </trkpt>
      <trkpt lat="44.98473" lon="1.09219">
        <ele>254</ele>
        <time>2011-06-29T08:34:48.000Z</time>
      </trkpt>
      <trkpt lat="44.98478" lon="1.09227">
        <ele>255.39999389648</ele>
        <time>2011-06-29T08:34:53.000Z</time>
      </trkpt>
      <trkpt lat="44.9849" lon="1.09217">
        <ele>256</ele>
        <time>2011-06-29T08:34:59.000Z</time>
      </trkpt>
      <trkpt lat="44.98502" lon="1.09219">
        <ele>256.20001220703</ele>
        <time>2011-06-29T08:35:03.000Z</time>
      </trkpt>
      <trkpt lat="44.98512" lon="1.09231">
        <ele>252.19999694824</ele>
        <time>2011-06-29T08:35:07.000Z</time>
      </trkpt>
      <trkpt lat="44.98521" lon="1.09265">
        <ele>248.19999694824</ele>
        <time>2011-06-29T08:35:15.000Z</time>
      </trkpt>
      <trkpt lat="44.98527" lon="1.09296">
        <ele>245.60000610352</ele>
        <time>2011-06-29T08:35:21.000Z</time>
      </trkpt>
      <trkpt lat="44.98533" lon="1.09319">
        <ele>243.39999389648</ele>
        <time>2011-06-29T08:35:25.000Z</time>
      </trkpt>
      <trkpt lat="44.98548" lon="1.09357">
        <ele>240.60000610352</ele>
        <time>2011-06-29T08:35:33.000Z</time>
      </trkpt>
      <trkpt lat="44.98566" lon="1.09377">
        <ele>236.39999389648</ele>
        <time>2011-06-29T08:35:39.000Z</time>
      </trkpt>
      <trkpt lat="44.98574" lon="1.09381">
        <ele>229.19999694824</ele>
        <time>2011-06-29T08:35:41.000Z</time>
      </trkpt>
      <trkpt lat="44.98597" lon="1.09392">
        <ele>224.19999694824</ele>
        <time>2011-06-29T08:35:45.000Z</time>
      </trkpt>
      <trkpt lat="44.98615" lon="1.09399">
        <ele>221.80000305176</ele>
        <time>2011-06-29T08:35:48.000Z</time>
      </trkpt>
      <trkpt lat="44.98626" lon="1.09388">
        <ele>217</ele>
        <time>2011-06-29T08:35:51.000Z</time>
      </trkpt>
      <trkpt lat="44.98625" lon="1.09374">
        <ele>217.39999389648</ele>
        <time>2011-06-29T08:35:53.000Z</time>
      </trkpt>
      <trkpt lat="44.98615" lon="1.09326">
        <ele>221.39999389648</ele>
        <time>2011-06-29T08:36:01.000Z</time>
      </trkpt>
      <trkpt lat="44.98611" lon="1.09307">
        <ele>224</ele>
        <time>2011-06-29T08:36:05.000Z</time>
      </trkpt>
      <trkpt lat="44.98614" lon="1.09274">
        <ele>225.80000305176</ele>
        <time>2011-06-29T08:36:10.000Z</time>
      </trkpt>
      <trkpt lat="44.98616" lon="1.09236">
        <ele>229.39999389648</ele>
        <time>2011-06-29T08:36:14.000Z</time>
      </trkpt>
      <trkpt lat="44.98621" lon="1.09204">
        <ele>232</ele>
        <time>2011-06-29T08:36:18.000Z</time>
      </trkpt>
      <trkpt lat="44.98625" lon="1.09193">
        <ele>232.60000610352</ele>
        <time>2011-06-29T08:36:20.000Z</time>
      </trkpt>
      <trkpt lat="44.98635" lon="1.0918">
        <ele>232.19999694824</ele>
        <time>2011-06-29T08:36:23.000Z</time>
      </trkpt>
      <trkpt lat="44.98652" lon="1.09161">
        <ele>225.80000305176</ele>
        <time>2011-06-29T08:36:28.000Z</time>
      </trkpt>
      <trkpt lat="44.98666" lon="1.0917">
        <ele>220.19999694824</ele>
        <time>2011-06-29T08:36:32.000Z</time>
      </trkpt>
      <trkpt lat="44.98679" lon="1.0919">
        <ele>214.80000305176</ele>
        <time>2011-06-29T08:36:36.000Z</time>
      </trkpt>
      <trkpt lat="44.9869" lon="1.09237">
        <ele>209.19999694824</ele>
        <time>2011-06-29T08:36:45.000Z</time>
      </trkpt>
      <trkpt lat="44.98698" lon="1.09284">
        <ele>208.80000305176</ele>
        <time>2011-06-29T08:36:56.000Z</time>
      </trkpt>
      <trkpt lat="44.98699" lon="1.09306">
        <ele>208.19999694824</ele>
        <time>2011-06-29T08:37:01.000Z</time>
      </trkpt>
      <trkpt lat="44.98709" lon="1.09305">
        <ele>203.60000610352</ele>
        <time>2011-06-29T08:37:07.000Z</time>
      </trkpt>
      <trkpt lat="44.98722" lon="1.093">
        <ele>200.80000305176</ele>
        <time>2011-06-29T08:37:12.000Z</time>
      </trkpt>
      <trkpt lat="44.98734" lon="1.09299">
        <ele>196</ele>
        <time>2011-06-29T08:37:17.000Z</time>
      </trkpt>
      <trkpt lat="44.98737" lon="1.09295">
        <ele>194.60000610352</ele>
        <time>2011-06-29T08:37:19.000Z</time>
      </trkpt>
      <trkpt lat="44.98748" lon="1.09304">
        <ele>192.80000305176</ele>
        <time>2011-06-29T08:37:23.000Z</time>
      </trkpt>
      <trkpt lat="44.98764" lon="1.09318">
        <ele>190.39999389648</ele>
        <time>2011-06-29T08:37:28.000Z</time>
      </trkpt>
      <trkpt lat="44.98779" lon="1.09322">
        <ele>189.39999389648</ele>
        <time>2011-06-29T08:37:32.000Z</time>
      </trkpt>
      <trkpt lat="44.98785" lon="1.09326">
        <ele>188.39999389648</ele>
        <time>2011-06-29T08:37:34.000Z</time>
      </trkpt>
      <trkpt lat="44.98792" lon="1.09328">
        <ele>187</ele>
        <time>2011-06-29T08:37:36.000Z</time>
      </trkpt>
      <trkpt lat="44.98804" lon="1.09349">
        <ele>186.60000610352</ele>
        <time>2011-06-29T08:37:43.000Z</time>
      </trkpt>
      <trkpt lat="44.98815" lon="1.09363">
        <ele>185.60000610352</ele>
        <time>2011-06-29T08:37:50.000Z</time>
      </trkpt>
      <trkpt lat="44.98827" lon="1.09367">
        <ele>183.39999389648</ele>
        <time>2011-06-29T08:37:54.000Z</time>
      </trkpt>
      <trkpt lat="44.98843" lon="1.0936">
        <ele>181.39999389648</ele>
        <time>2011-06-29T08:37:58.000Z</time>
      </trkpt>
      <trkpt lat="44.98851" lon="1.09349">
        <ele>180</ele>
        <time>2011-06-29T08:38:00.000Z</time>
      </trkpt>
      <trkpt lat="44.98859" lon="1.09322">
        <ele>180.39999389648</ele>
        <time>2011-06-29T08:38:04.000Z</time>
      </trkpt>
      <trkpt lat="44.98864" lon="1.09301">
        <ele>181.60000610352</ele>
        <time>2011-06-29T08:38:08.000Z</time>
      </trkpt>
      <trkpt lat="44.98874" lon="1.09274">
        <ele>184.39999389648</ele>
        <time>2011-06-29T08:38:15.000Z</time>
      </trkpt>
      <trkpt lat="44.98882" lon="1.09257">
        <ele>184.19999694824</ele>
        <time>2011-06-29T08:38:20.000Z</time>
      </trkpt>
      <trkpt lat="44.98892" lon="1.09244">
        <ele>185.60000610352</ele>
        <time>2011-06-29T08:38:25.000Z</time>
      </trkpt>
      <trkpt lat="44.98899" lon="1.09227">
        <ele>185.60000610352</ele>
        <time>2011-06-29T08:38:31.000Z</time>
      </trkpt>
      <trkpt lat="44.98906" lon="1.092">
        <ele>185.39999389648</ele>
        <time>2011-06-29T08:38:38.000Z</time>
      </trkpt>
      <trkpt lat="44.98913" lon="1.09176">
        <ele>185.60000610352</ele>
        <time>2011-06-29T08:38:45.000Z</time>
      </trkpt>
      <trkpt lat="44.98922" lon="1.09148">
        <ele>184.60000610352</ele>
        <time>2011-06-29T08:38:52.000Z</time>
      </trkpt>
      <trkpt lat="44.9893" lon="1.09135">
        <ele>184.80000305176</ele>
        <time>2011-06-29T08:38:57.000Z</time>
      </trkpt>
      <trkpt lat="44.98941" lon="1.09131">
        <ele>185</ele>
        <time>2011-06-29T08:39:03.000Z</time>
      </trkpt>
      <trkpt lat="44.98951" lon="1.09132">
        <ele>185.39999389648</ele>
        <time>2011-06-29T08:39:08.000Z</time>
      </trkpt>
      <trkpt lat="44.98966" lon="1.09136">
        <ele>187</ele>
        <time>2011-06-29T08:39:15.000Z</time>
      </trkpt>
      <trkpt lat="44.98979" lon="1.09137">
        <ele>189.60000610352</ele>
        <time>2011-06-29T08:39:22.000Z</time>
      </trkpt>
      <trkpt lat="44.98993" lon="1.09138">
        <ele>191.39999389648</ele>
        <time>2011-06-29T08:39:29.000Z</time>
      </trkpt>
      <trkpt lat="44.99006" lon="1.09137">
        <ele>193.19999694824</ele>
        <time>2011-06-29T08:39:36.000Z</time>
      </trkpt>
      <trkpt lat="44.9902" lon="1.09121">
        <ele>176</ele>
        <time>2011-06-29T08:39:42.000Z</time>
      </trkpt>
      <trkpt lat="44.99034" lon="1.09126">
        <ele>178.39999389648</ele>
        <time>2011-06-29T08:39:47.000Z</time>
      </trkpt>
      <trkpt lat="44.99047" lon="1.0913">
        <ele>181.39999389648</ele>
        <time>2011-06-29T08:39:53.000Z</time>
      </trkpt>
      <trkpt lat="44.99058" lon="1.09137">
        <ele>183.39999389648</ele>
        <time>2011-06-29T08:39:59.000Z</time>
      </trkpt>
      <trkpt lat="44.99068" lon="1.09143">
        <ele>184.60000610352</ele>
        <time>2011-06-29T08:40:04.000Z</time>
      </trkpt>
      <trkpt lat="44.99081" lon="1.09149">
        <ele>185.80000305176</ele>
        <time>2011-06-29T08:40:10.000Z</time>
      </trkpt>
      <trkpt lat="44.9909" lon="1.09155">
        <ele>187.39999389648</ele>
        <time>2011-06-29T08:40:15.000Z</time>
      </trkpt>
      <trkpt lat="44.99095" lon="1.09167">
        <ele>188.60000610352</ele>
        <time>2011-06-29T08:40:20.000Z</time>
      </trkpt>
      <trkpt lat="44.99099" lon="1.09178">
        <ele>189.80000305176</ele>
        <time>2011-06-29T08:40:25.000Z</time>
      </trkpt>
      <trkpt lat="44.99102" lon="1.09189">
        <ele>189.19999694824</ele>
        <time>2011-06-29T08:40:29.000Z</time>
      </trkpt>
      <trkpt lat="44.99106" lon="1.09206">
        <ele>189.80000305176</ele>
        <time>2011-06-29T08:40:35.000Z</time>
      </trkpt>
      <trkpt lat="44.99111" lon="1.09225">
        <ele>189.60000610352</ele>
        <time>2011-06-29T08:40:41.000Z</time>
      </trkpt>
      <trkpt lat="44.99114" lon="1.09248">
        <ele>191.39999389648</ele>
        <time>2011-06-29T08:40:48.000Z</time>
      </trkpt>
      <trkpt lat="44.99112" lon="1.09264">
        <ele>195</ele>
        <time>2011-06-29T08:40:54.000Z</time>
      </trkpt>
      <trkpt lat="44.99113" lon="1.09284">
        <ele>195.80000305176</ele>
        <time>2011-06-29T08:41:01.000Z</time>
      </trkpt>
      <trkpt lat="44.99121" lon="1.09298">
        <ele>189.19999694824</ele>
        <time>2011-06-29T08:41:08.000Z</time>
      </trkpt>
      <trkpt lat="44.99134" lon="1.09307">
        <ele>184.19999694824</ele>
        <time>2011-06-29T08:41:14.000Z</time>
      </trkpt>
      <trkpt lat="44.99146" lon="1.09317">
        <ele>185</ele>
        <time>2011-06-29T08:41:20.000Z</time>
      </trkpt>
      <trkpt lat="44.99165" lon="1.09326">
        <ele>190.39999389648</ele>
        <time>2011-06-29T08:41:28.000Z</time>
      </trkpt>
      <trkpt lat="44.99177" lon="1.09324">
        <ele>195.39999389648</ele>
        <time>2011-06-29T08:41:33.000Z</time>
      </trkpt>
      <trkpt lat="44.99193" lon="1.09314">
        <ele>200.19999694824</ele>
        <time>2011-06-29T08:41:40.000Z</time>
      </trkpt>
      <trkpt lat="44.99219" lon="1.09286">
        <ele>180.60000610352</ele>
        <time>2011-06-29T08:41:47.000Z</time>
      </trkpt>
      <trkpt lat="44.99251" lon="1.09259">
        <ele>172.60000610352</ele>
        <time>2011-06-29T08:41:55.000Z</time>
      </trkpt>
      <trkpt lat="44.99282" lon="1.09231">
        <ele>160</ele>
        <time>2011-06-29T08:42:03.000Z</time>
      </trkpt>
      <trkpt lat="44.99302" lon="1.09222">
        <ele>159.80000305176</ele>
        <time>2011-06-29T08:42:09.000Z</time>
      </trkpt>
      <trkpt lat="44.99313" lon="1.09234">
        <ele>163</ele>
        <time>2011-06-29T08:42:13.000Z</time>
      </trkpt>
      <trkpt lat="44.99324" lon="1.09262">
        <ele>169.80000305176</ele>
        <time>2011-06-29T08:42:20.000Z</time>
      </trkpt>
      <trkpt lat="44.99336" lon="1.09289">
        <ele>169.19999694824</ele>
        <time>2011-06-29T08:42:28.000Z</time>
      </trkpt>
      <trkpt lat="44.99347" lon="1.09308">
        <ele>158.39999389648</ele>
        <time>2011-06-29T08:42:35.000Z</time>
      </trkpt>
      <trkpt lat="44.99361" lon="1.09336">
        <ele>149.39999389648</ele>
        <time>2011-06-29T08:42:40.000Z</time>
      </trkpt>
      <trkpt lat="44.99382" lon="1.09386">
        <ele>140.39999389648</ele>
        <time>2011-06-29T08:42:47.000Z</time>
      </trkpt>
      <trkpt lat="44.99385" lon="1.09401">
        <ele>141</ele>
        <time>2011-06-29T08:42:49.000Z</time>
      </trkpt>
      <trkpt lat="44.99389" lon="1.09445">
        <ele>145.19999694824</ele>
        <time>2011-06-29T08:42:55.000Z</time>
      </trkpt>
      <trkpt lat="44.99399" lon="1.09475">
        <ele>149.80000305176</ele>
        <time>2011-06-29T08:43:01.000Z</time>
      </trkpt>
      <trkpt lat="44.99408" lon="1.09489">
        <ele>153</ele>
        <time>2011-06-29T08:43:05.000Z</time>
      </trkpt>
      <trkpt lat="44.99425" lon="1.09514">
        <ele>157.60000610352</ele>
        <time>2011-06-29T08:43:11.000Z</time>
      </trkpt>
      <trkpt lat="44.99439" lon="1.09542">
        <ele>162.39999389648</ele>
        <time>2011-06-29T08:43:17.000Z</time>
      </trkpt>
      <trkpt lat="44.99449" lon="1.09574">
        <ele>169.19999694824</ele>
        <time>2011-06-29T08:43:23.000Z</time>
      </trkpt>
      <trkpt lat="44.99448" lon="1.09598">
        <ele>173</ele>
        <time>2011-06-29T08:43:28.000Z</time>
      </trkpt>
      <trkpt lat="44.99446" lon="1.09615">
        <ele>175.19999694824</ele>
        <time>2011-06-29T08:43:32.000Z</time>
      </trkpt>
      <trkpt lat="44.99458" lon="1.09622">
        <ele>177.80000305176</ele>
        <time>2011-06-29T08:43:36.000Z</time>
      </trkpt>
      <trkpt lat="44.99494" lon="1.09611">
        <ele>181.39999389648</ele>
        <time>2011-06-29T08:43:43.000Z</time>
      </trkpt>
      <trkpt lat="44.99535" lon="1.09608">
        <ele>184.19999694824</ele>
        <time>2011-06-29T08:43:50.000Z</time>
      </trkpt>
      <trkpt lat="44.99577" lon="1.09599">
        <ele>178.60000610352</ele>
        <time>2011-06-29T08:43:57.000Z</time>
      </trkpt>
      <trkpt lat="44.9962" lon="1.09587">
        <ele>164.19999694824</ele>
        <time>2011-06-29T08:44:04.000Z</time>
      </trkpt>
      <trkpt lat="44.99624" lon="1.09586">
        <ele>164.60000610352</ele>
        <time>2011-06-29T08:44:05.000Z</time>
      </trkpt>
      <trkpt lat="44.99625" lon="1.09569">
        <ele>167.60000610352</ele>
        <time>2011-06-29T08:44:10.000Z</time>
      </trkpt>
      <trkpt lat="44.99625" lon="1.09553">
        <ele>171.19999694824</ele>
        <time>2011-06-29T08:44:14.000Z</time>
      </trkpt>
      <trkpt lat="44.99626" lon="1.09531">
        <ele>175.60000610352</ele>
        <time>2011-06-29T08:44:17.000Z</time>
      </trkpt>
      <trkpt lat="44.99628" lon="1.09492">
        <ele>181.19999694824</ele>
        <time>2011-06-29T08:44:22.000Z</time>
      </trkpt>
      <trkpt lat="44.99633" lon="1.09462">
        <ele>185.60000610352</ele>
        <time>2011-06-29T08:44:26.000Z</time>
      </trkpt>
      <trkpt lat="44.99639" lon="1.09436">
        <ele>187.60000610352</ele>
        <time>2011-06-29T08:44:30.000Z</time>
      </trkpt>
      <trkpt lat="44.99643" lon="1.09403">
        <ele>185.60000610352</ele>
        <time>2011-06-29T08:44:34.000Z</time>
      </trkpt>
      <trkpt lat="44.99645" lon="1.09363">
        <ele>184.19999694824</ele>
        <time>2011-06-29T08:44:39.000Z</time>
      </trkpt>
      <trkpt lat="44.9967" lon="1.09358">
        <ele>185.19999694824</ele>
        <time>2011-06-29T08:44:44.000Z</time>
      </trkpt>
      <trkpt lat="44.99684" lon="1.0936">
        <ele>187</ele>
        <time>2011-06-29T08:44:48.000Z</time>
      </trkpt>
      <trkpt lat="44.99693" lon="1.09363">
        <ele>187.80000305176</ele>
        <time>2011-06-29T08:44:52.000Z</time>
      </trkpt>
      <trkpt lat="44.99706" lon="1.09366">
        <ele>185.80000305176</ele>
        <time>2011-06-29T08:44:58.000Z</time>
      </trkpt>
      <trkpt lat="44.99718" lon="1.09367">
        <ele>185.19999694824</ele>
        <time>2011-06-29T08:45:04.000Z</time>
      </trkpt>
      <trkpt lat="44.99735" lon="1.0937">
        <ele>186</ele>
        <time>2011-06-29T08:45:09.000Z</time>
      </trkpt>
      <trkpt lat="44.99758" lon="1.09373">
        <ele>187.39999389648</ele>
        <time>2011-06-29T08:45:15.000Z</time>
      </trkpt>
      <trkpt lat="44.99776" lon="1.09374">
        <ele>187</ele>
        <time>2011-06-29T08:45:21.000Z</time>
      </trkpt>
      <trkpt lat="44.99796" lon="1.09375">
        <ele>187.39999389648</ele>
        <time>2011-06-29T08:45:26.000Z</time>
      </trkpt>
      <trkpt lat="44.99811" lon="1.0937">
        <ele>183.80000305176</ele>
        <time>2011-06-29T08:45:30.000Z</time>
      </trkpt>
      <trkpt lat="44.99819" lon="1.09362">
        <ele>181.60000610352</ele>
        <time>2011-06-29T08:45:32.000Z</time>
      </trkpt>
      <trkpt lat="44.99847" lon="1.09357">
        <ele>178</ele>
        <time>2011-06-29T08:45:36.000Z</time>
      </trkpt>
      <trkpt lat="44.99862" lon="1.09361">
        <ele>176.39999389648</ele>
        <time>2011-06-29T08:45:38.000Z</time>
      </trkpt>
      <trkpt lat="44.99886" lon="1.09369">
        <ele>174.60000610352</ele>
        <time>2011-06-29T08:45:42.000Z</time>
      </trkpt>
      <trkpt lat="44.99922" lon="1.09382">
        <ele>175.19999694824</ele>
        <time>2011-06-29T08:45:50.000Z</time>
      </trkpt>
      <trkpt lat="44.99925" lon="1.09384">
        <ele>175.60000610352</ele>
        <time>2011-06-29T08:45:51.000Z</time>
      </trkpt>
      <trkpt lat="44.99928" lon="1.09401">
        <ele>176.60000610352</ele>
        <time>2011-06-29T08:45:55.000Z</time>
      </trkpt>
      <trkpt lat="44.99926" lon="1.09407">
        <ele>177.19999694824</ele>
        <time>2011-06-29T08:45:57.000Z</time>
      </trkpt>
      <trkpt lat="44.99928" lon="1.09419">
        <ele>176.60000610352</ele>
        <time>2011-06-29T08:46:01.000Z</time>
      </trkpt>
      <trkpt lat="44.99924" lon="1.0943">
        <ele>177.39999389648</ele>
        <time>2011-06-29T08:46:05.000Z</time>
      </trkpt>
      <trkpt lat="44.99923" lon="1.09436">
        <ele>177.39999389648</ele>
        <time>2011-06-29T08:46:07.000Z</time>
      </trkpt>
      <trkpt lat="44.99919" lon="1.09445">
        <ele>177.39999389648</ele>
        <time>2011-06-29T08:46:11.000Z</time>
      </trkpt>
      <trkpt lat="44.99923" lon="1.09459">
        <ele>178.60000610352</ele>
        <time>2011-06-29T08:46:18.000Z</time>
      </trkpt>
      <trkpt lat="44.99933" lon="1.09473">
        <ele>178.60000610352</ele>
        <time>2011-06-29T08:46:26.000Z</time>
      </trkpt>
      <trkpt lat="44.99936" lon="1.09476">
        <ele>178</ele>
        <time>2011-06-29T08:46:28.000Z</time>
      </trkpt>
      <trkpt lat="44.99942" lon="1.0949">
        <ele>174.80000305176</ele>
        <time>2011-06-29T08:46:33.000Z</time>
      </trkpt>
      <trkpt lat="44.99945" lon="1.09498">
        <ele>174.60000610352</ele>
        <time>2011-06-29T08:46:35.000Z</time>
      </trkpt>
      <trkpt lat="44.99961" lon="1.09521">
        <ele>174.19999694824</ele>
        <time>2011-06-29T08:46:40.000Z</time>
      </trkpt>
      <trkpt lat="44.99971" lon="1.09553">
        <ele>171</ele>
        <time>2011-06-29T08:46:44.000Z</time>
      </trkpt>
      <trkpt lat="44.99961" lon="1.09599">
        <ele>167</ele>
        <time>2011-06-29T08:46:49.000Z</time>
      </trkpt>
      <trkpt lat="44.99951" lon="1.0962">
        <ele>165</ele>
        <time>2011-06-29T08:46:52.000Z</time>
      </trkpt>
      <trkpt lat="44.99944" lon="1.09635">
        <ele>163.39999389648</ele>
        <time>2011-06-29T08:46:56.000Z</time>
      </trkpt>
      <trkpt lat="44.9995" lon="1.09637">
        <ele>163</ele>
        <time>2011-06-29T08:46:59.000Z</time>
      </trkpt>
      <trkpt lat="44.99956" lon="1.0965">
        <ele>157.80000305176</ele>
        <time>2011-06-29T08:47:02.000Z</time>
      </trkpt>
      <trkpt lat="44.99952" lon="1.09667">
        <ele>155</ele>
        <time>2011-06-29T08:47:05.000Z</time>
      </trkpt>
      <trkpt lat="44.99933" lon="1.09699">
        <ele>150</ele>
        <time>2011-06-29T08:47:11.000Z</time>
      </trkpt>
      <trkpt lat="44.99932" lon="1.09701">
        <ele>149</ele>
        <time>2011-06-29T08:47:14.000Z</time>
      </trkpt>
      <trkpt lat="44.99919" lon="1.09711">
        <ele>184</ele>
        <time>2011-06-29T08:52:18.000Z</time>
      </trkpt>
      <trkpt lat="44.99912" lon="1.09718">
        <ele>179.19999694824</ele>
        <time>2011-06-29T08:52:23.000Z</time>
      </trkpt>
      <trkpt lat="44.99901" lon="1.09731">
        <ele>173.19999694824</ele>
        <time>2011-06-29T08:52:27.000Z</time>
      </trkpt>
      <trkpt lat="44.99895" lon="1.09742">
        <ele>168.80000305176</ele>
        <time>2011-06-29T08:52:29.000Z</time>
      </trkpt>
      <trkpt lat="44.99881" lon="1.09771">
        <ele>160.19999694824</ele>
        <time>2011-06-29T08:52:34.000Z</time>
      </trkpt>
      <trkpt lat="44.99877" lon="1.09783">
        <ele>156.39999389648</ele>
        <time>2011-06-29T08:52:36.000Z</time>
      </trkpt>
      <trkpt lat="44.9987" lon="1.09816">
        <ele>147.80000305176</ele>
        <time>2011-06-29T08:52:41.000Z</time>
      </trkpt>
      <trkpt lat="44.99885" lon="1.09835">
        <ele>139.60000610352</ele>
        <time>2011-06-29T08:52:46.000Z</time>
      </trkpt>
      <trkpt lat="44.99906" lon="1.09852">
        <ele>134.80000305176</ele>
        <time>2011-06-29T08:52:50.000Z</time>
      </trkpt>
      <trkpt lat="44.99918" lon="1.09868">
        <ele>130.60000610352</ele>
        <time>2011-06-29T08:52:52.000Z</time>
      </trkpt>
      <trkpt lat="44.99937" lon="1.09888">
        <ele>124.19999694824</ele>
        <time>2011-06-29T08:52:55.000Z</time>
      </trkpt>
      <trkpt lat="44.99958" lon="1.09902">
        <ele>117.19999694824</ele>
        <time>2011-06-29T08:52:59.000Z</time>
      </trkpt>
      <trkpt lat="44.99966" lon="1.09924">
        <ele>113</ele>
        <time>2011-06-29T08:53:03.000Z</time>
      </trkpt>
      <trkpt lat="44.99964" lon="1.09928">
        <ele>113</ele>
        <time>2011-06-29T08:53:04.000Z</time>
      </trkpt>
      <trkpt lat="44.99956" lon="1.09956">
        <ele>110.40000152588</ele>
        <time>2011-06-29T08:53:09.000Z</time>
      </trkpt>
      <trkpt lat="44.99935" lon="1.09993">
        <ele>106.19999694824</ele>
        <time>2011-06-29T08:53:15.000Z</time>
      </trkpt>
      <trkpt lat="44.99913" lon="1.1002">
        <ele>103.80000305176</ele>
        <time>2011-06-29T08:53:20.000Z</time>
      </trkpt>
      <trkpt lat="44.99874" lon="1.10054">
        <ele>103</ele>
        <time>2011-06-29T08:53:27.000Z</time>
      </trkpt>
      <trkpt lat="44.99839" lon="1.10076">
        <ele>102.40000152588</ele>
        <time>2011-06-29T08:53:32.000Z</time>
      </trkpt>
      <trkpt lat="44.9982" lon="1.10095">
        <ele>102.59999847412</ele>
        <time>2011-06-29T08:53:35.000Z</time>
      </trkpt>
      <trkpt lat="44.99791" lon="1.10125">
        <ele>103.40000152588</ele>
        <time>2011-06-29T08:53:40.000Z</time>
      </trkpt>
      <trkpt lat="44.99757" lon="1.10145">
        <ele>103.80000305176</ele>
        <time>2011-06-29T08:53:45.000Z</time>
      </trkpt>
      <trkpt lat="44.9975" lon="1.10147">
        <ele>104</ele>
        <time>2011-06-29T08:53:46.000Z</time>
      </trkpt>
      <trkpt lat="44.99736" lon="1.10167">
        <ele>102.59999847412</ele>
        <time>2011-06-29T08:53:49.000Z</time>
      </trkpt>
      <trkpt lat="44.99738" lon="1.10205">
        <ele>100.40000152588</ele>
        <time>2011-06-29T08:53:53.000Z</time>
      </trkpt>
      <trkpt lat="44.99746" lon="1.10218">
        <ele>100.40000152588</ele>
        <time>2011-06-29T08:53:56.000Z</time>
      </trkpt>
      <trkpt lat="44.99754" lon="1.1019">
        <ele>55.599998474121</ele>
        <time>2011-06-29T08:54:00.000Z</time>
      </trkpt>
      <trkpt lat="44.99774" lon="1.10164">
        <ele>22.200000762939</ele>
        <time>2011-06-29T08:55:48.000Z</time>
      </trkpt>
      <trkpt lat="44.99795" lon="1.10161">
        <ele>27</ele>
        <time>2011-06-29T08:55:53.000Z</time>
      </trkpt>
      <trkpt lat="44.99824" lon="1.1015">
        <ele>35.400001525879</ele>
        <time>2011-06-29T08:55:59.000Z</time>
      </trkpt>
      <trkpt lat="44.99867" lon="1.10132">
        <ele>43.400001525879</ele>
        <time>2011-06-29T08:56:06.000Z</time>
      </trkpt>
      <trkpt lat="44.99909" lon="1.10113">
        <ele>48.200000762939</ele>
        <time>2011-06-29T08:56:12.000Z</time>
      </trkpt>
      <trkpt lat="44.99919" lon="1.10109">
        <ele>50</ele>
        <time>2011-06-29T08:56:14.000Z</time>
      </trkpt>
      <trkpt lat="44.9993" lon="1.10096">
        <ele>54.799999237061</ele>
        <time>2011-06-29T08:56:18.000Z</time>
      </trkpt>
      <trkpt lat="44.99928" lon="1.10088">
        <ele>58.200000762939</ele>
        <time>2011-06-29T08:56:21.000Z</time>
      </trkpt>
      <trkpt lat="44.99926" lon="1.10091">
        <ele>60</ele>
        <time>2011-06-29T08:56:24.000Z</time>
      </trkpt>
      <trkpt lat="44.99927" lon="1.10109">
        <ele>96.800003051758</ele>
        <time>2011-06-29T08:57:25.000Z</time>
      </trkpt>
      <trkpt lat="44.9993" lon="1.10107">
        <ele>97.599998474121</ele>
        <time>2011-06-29T08:57:26.000Z</time>
      </trkpt>
      <trkpt lat="44.99934" lon="1.10102">
        <ele>98.599998474121</ele>
        <time>2011-06-29T08:57:28.000Z</time>
      </trkpt>
      <trkpt lat="44.99938" lon="1.10097">
        <ele>98.199996948242</ele>
        <time>2011-06-29T08:57:30.000Z</time>
      </trkpt>
      <trkpt lat="44.9995" lon="1.10089">
        <ele>98.400001525879</ele>
        <time>2011-06-29T08:57:35.000Z</time>
      </trkpt>
      <trkpt lat="44.99969" lon="1.10073">
        <ele>97</ele>
        <time>2011-06-29T08:57:43.000Z</time>
      </trkpt>
      <trkpt lat="44.99982" lon="1.10063">
        <ele>97</ele>
        <time>2011-06-29T08:57:49.000Z</time>
      </trkpt>
      <trkpt lat="44.99987" lon="1.10061">
        <ele>96.400001525879</ele>
        <time>2011-06-29T08:57:51.000Z</time>
      </trkpt>
      <trkpt lat="45.00005" lon="1.10057">
        <ele>94</ele>
        <time>2011-06-29T08:57:55.000Z</time>
      </trkpt>
      <trkpt lat="45.00009" lon="1.10054">
        <ele>94.199996948242</ele>
        <time>2011-06-29T08:57:56.000Z</time>
      </trkpt>
      <trkpt lat="45.00017" lon="1.10047">
        <ele>94.199996948242</ele>
        <time>2011-06-29T08:57:58.000Z</time>
      </trkpt>
      <trkpt lat="45.00034" lon="1.10037">
        <ele>93.800003051758</ele>
        <time>2011-06-29T08:58:02.000Z</time>
      </trkpt>
      <trkpt lat="45.00045" lon="1.10019">
        <ele>96.400001525879</ele>
        <time>2011-06-29T08:58:07.000Z</time>
      </trkpt>
      <trkpt lat="45.00051" lon="1.10007">
        <ele>96</ele>
        <time>2011-06-29T08:58:12.000Z</time>
      </trkpt>
      <trkpt lat="45.00052" lon="1.10005">
        <ele>96.599998474121</ele>
        <time>2011-06-29T08:58:13.000Z</time>
      </trkpt>
      <trkpt lat="45.00058" lon="1.0999">
        <ele>99.599998474121</ele>
        <time>2011-06-29T08:58:19.000Z</time>
      </trkpt>
      <trkpt lat="45.00063" lon="1.09974">
        <ele>100.40000152588</ele>
        <time>2011-06-29T08:58:25.000Z</time>
      </trkpt>
      <trkpt lat="45.00072" lon="1.09964">
        <ele>99.800003051758</ele>
        <time>2011-06-29T08:58:30.000Z</time>
      </trkpt>
      <trkpt lat="45.00082" lon="1.09958">
        <ele>101.59999847412</ele>
        <time>2011-06-29T08:58:35.000Z</time>
      </trkpt>
      <trkpt lat="45.00083" lon="1.09957">
        <ele>101.40000152588</ele>
        <time>2011-06-29T08:58:36.000Z</time>
      </trkpt>
      <trkpt lat="45.00087" lon="1.09955">
        <ele>101.19999694824</ele>
        <time>2011-06-29T08:58:40.000Z</time>
      </trkpt>
      <trkpt lat="45.00088" lon="1.09951">
        <ele>98.800003051758</ele>
        <time>2011-06-29T08:58:43.000Z</time>
      </trkpt>
      <trkpt lat="45.00094" lon="1.09937">
        <ele>98.199996948242</ele>
        <time>2011-06-29T08:58:50.000Z</time>
      </trkpt>
      <trkpt lat="45.00097" lon="1.09923">
        <ele>98.199996948242</ele>
        <time>2011-06-29T08:58:55.000Z</time>
      </trkpt>
      <trkpt lat="45.001" lon="1.09915">
        <ele>98.199996948242</ele>
        <time>2011-06-29T08:59:00.000Z</time>
      </trkpt>
      <trkpt lat="45.00101" lon="1.09914">
        <ele>98.599998474121</ele>
        <time>2011-06-29T08:59:03.000Z</time>
      </trkpt>
      <trkpt lat="45.00103" lon="1.09909">
        <ele>99</ele>
        <time>2011-06-29T08:59:08.000Z</time>
      </trkpt>
      <trkpt lat="45.00109" lon="1.09894">
        <ele>97.400001525879</ele>
        <time>2011-06-29T08:59:13.000Z</time>
      </trkpt>
      <trkpt lat="45.00115" lon="1.09883">
        <ele>97.400001525879</ele>
        <time>2011-06-29T08:59:18.000Z</time>
      </trkpt>
      <trkpt lat="45.00119" lon="1.09873">
        <ele>94.800003051758</ele>
        <time>2011-06-29T08:59:23.000Z</time>
      </trkpt>
      <trkpt lat="45.00127" lon="1.09859">
        <ele>95.400001525879</ele>
        <time>2011-06-29T08:59:29.000Z</time>
      </trkpt>
      <trkpt lat="45.00132" lon="1.09844">
        <ele>96.199996948242</ele>
        <time>2011-06-29T08:59:33.000Z</time>
      </trkpt>
      <trkpt lat="45.00137" lon="1.09833">
        <ele>96.800003051758</ele>
        <time>2011-06-29T08:59:38.000Z</time>
      </trkpt>
      <trkpt lat="45.0014" lon="1.09832">
        <ele>95.800003051758</ele>
        <time>2011-06-29T08:59:41.000Z</time>
      </trkpt>
      <trkpt lat="45.00125" lon="1.09834">
        <ele>67.400001525879</ele>
        <time>2011-06-29T09:00:21.000Z</time>
      </trkpt>
      <trkpt lat="45.00148" lon="1.0984">
        <ele>86.800003051758</ele>
        <time>2011-06-29T09:03:29.000Z</time>
      </trkpt>
      <trkpt lat="45.00148" lon="1.09839">
        <ele>87.199996948242</ele>
        <time>2011-06-29T09:03:30.000Z</time>
      </trkpt>
      <trkpt lat="45.00148" lon="1.09834">
        <ele>89.800003051758</ele>
        <time>2011-06-29T09:03:35.000Z</time>
      </trkpt>
      <trkpt lat="45.00148" lon="1.09833">
        <ele>90</ele>
        <time>2011-06-29T09:03:38.000Z</time>
      </trkpt>
      <trkpt lat="45.00155" lon="1.0982">
        <ele>89.800003051758</ele>
        <time>2011-06-29T09:03:48.000Z</time>
      </trkpt>
      <trkpt lat="45.00156" lon="1.09818">
        <ele>89.400001525879</ele>
        <time>2011-06-29T09:03:49.000Z</time>
      </trkpt>
      <trkpt lat="45.00157" lon="1.09808">
        <ele>89.800003051758</ele>
        <time>2011-06-29T09:03:55.000Z</time>
      </trkpt>
      <trkpt lat="45.00158" lon="1.09806">
        <ele>90.800003051758</ele>
        <time>2011-06-29T09:03:56.000Z</time>
      </trkpt>
      <trkpt lat="45.0016" lon="1.09802">
        <ele>94.800003051758</ele>
        <time>2011-06-29T09:03:58.000Z</time>
      </trkpt>
      <trkpt lat="45.00169" lon="1.09789">
        <ele>95</ele>
        <time>2011-06-29T09:04:05.000Z</time>
      </trkpt>
      <trkpt lat="45.00172" lon="1.09788">
        <ele>95</ele>
        <time>2011-06-29T09:04:07.000Z</time>
      </trkpt>
      <trkpt lat="45.0018" lon="1.09772">
        <ele>101.59999847412</ele>
        <time>2011-06-29T09:04:19.000Z</time>
      </trkpt>
      <trkpt lat="45.00173" lon="1.09772">
        <ele>92.800003051758</ele>
        <time>2011-06-29T09:04:30.000Z</time>
      </trkpt>
      <trkpt lat="45.00176" lon="1.09772">
        <ele>92.800003051758</ele>
        <time>2011-06-29T09:04:33.000Z</time>
      </trkpt>
      <trkpt lat="45.00176" lon="1.09773">
        <ele>72.800003051758</ele>
        <time>2011-06-29T09:04:52.000Z</time>
      </trkpt>
      <trkpt lat="45.00169" lon="1.09773">
        <ele>68.400001525879</ele>
        <time>2011-06-29T09:04:56.000Z</time>
      </trkpt>
      <trkpt lat="45.00183" lon="1.09771">
        <ele>100.40000152588</ele>
        <time>2011-06-29T09:05:41.000Z</time>
      </trkpt>
      <trkpt lat="45.00182" lon="1.09772">
        <ele>100.40000152588</ele>
        <time>2011-06-29T09:05:42.000Z</time>
      </trkpt>
      <trkpt lat="45.00178" lon="1.09758">
        <ele>99</ele>
        <time>2011-06-29T09:06:08.000Z</time>
      </trkpt>
      <trkpt lat="45.00179" lon="1.09743">
        <ele>100</ele>
        <time>2011-06-29T09:06:16.000Z</time>
      </trkpt>
      <trkpt lat="45.0018" lon="1.09726">
        <ele>102.59999847412</ele>
        <time>2011-06-29T09:06:21.000Z</time>
      </trkpt>
      <trkpt lat="45.0019" lon="1.09702">
        <ele>103.80000305176</ele>
        <time>2011-06-29T09:06:27.000Z</time>
      </trkpt>
      <trkpt lat="45.00194" lon="1.09686">
        <ele>102.59999847412</ele>
        <time>2011-06-29T09:06:32.000Z</time>
      </trkpt>
      <trkpt lat="45.00195" lon="1.09673">
        <ele>106.40000152588</ele>
        <time>2011-06-29T09:06:37.000Z</time>
      </trkpt>
      <trkpt lat="45.00206" lon="1.09648">
        <ele>112.19999694824</ele>
        <time>2011-06-29T09:06:44.000Z</time>
      </trkpt>
      <trkpt lat="45.00208" lon="1.09641">
        <ele>112</ele>
        <time>2011-06-29T09:06:46.000Z</time>
      </trkpt>
      <trkpt lat="45.0021" lon="1.09629">
        <ele>112.80000305176</ele>
        <time>2011-06-29T09:06:50.000Z</time>
      </trkpt>
      <trkpt lat="45.00216" lon="1.09614">
        <ele>116</ele>
        <time>2011-06-29T09:06:55.000Z</time>
      </trkpt>
      <trkpt lat="45.00222" lon="1.096">
        <ele>118.59999847412</ele>
        <time>2011-06-29T09:07:00.000Z</time>
      </trkpt>
      <trkpt lat="45.0023" lon="1.09585">
        <ele>119.80000305176</ele>
        <time>2011-06-29T09:07:05.000Z</time>
      </trkpt>
      <trkpt lat="45.00237" lon="1.09569">
        <ele>119.59999847412</ele>
        <time>2011-06-29T09:07:09.000Z</time>
      </trkpt>
      <trkpt lat="45.00245" lon="1.09548">
        <ele>119.80000305176</ele>
        <time>2011-06-29T09:07:15.000Z</time>
      </trkpt>
      <trkpt lat="45.0025" lon="1.09533">
        <ele>118.59999847412</ele>
        <time>2011-06-29T09:07:20.000Z</time>
      </trkpt>
      <trkpt lat="45.00255" lon="1.0952">
        <ele>116.59999847412</ele>
        <time>2011-06-29T09:07:25.000Z</time>
      </trkpt>
      <trkpt lat="45.00269" lon="1.09501">
        <ele>114.59999847412</ele>
        <time>2011-06-29T09:07:29.000Z</time>
      </trkpt>
      <trkpt lat="45.00272" lon="1.09494">
        <ele>113.59999847412</ele>
        <time>2011-06-29T09:07:30.000Z</time>
      </trkpt>
      <trkpt lat="45.00287" lon="1.0946">
        <ele>102.80000305176</ele>
        <time>2011-06-29T09:07:34.000Z</time>
      </trkpt>
      <trkpt lat="45.00295" lon="1.09447">
        <ele>102</ele>
        <time>2011-06-29T09:07:36.000Z</time>
      </trkpt>
      <trkpt lat="45.00318" lon="1.09404">
        <ele>98.199996948242</ele>
        <time>2011-06-29T09:07:42.000Z</time>
      </trkpt>
      <trkpt lat="45.00332" lon="1.09382">
        <ele>94.800003051758</ele>
        <time>2011-06-29T09:07:46.000Z</time>
      </trkpt>
      <trkpt lat="45.00339" lon="1.09371">
        <ele>92.599998474121</ele>
        <time>2011-06-29T09:07:50.000Z</time>
      </trkpt>
      <trkpt lat="45.00345" lon="1.09364">
        <ele>91.599998474121</ele>
        <time>2011-06-29T09:07:53.000Z</time>
      </trkpt>
      <trkpt lat="45.00352" lon="1.09351">
        <ele>92.800003051758</ele>
        <time>2011-06-29T09:07:57.000Z</time>
      </trkpt>
      <trkpt lat="45.00365" lon="1.09321">
        <ele>86.800003051758</ele>
        <time>2011-06-29T09:08:02.000Z</time>
      </trkpt>
      <trkpt lat="45.00372" lon="1.09315">
        <ele>86</ele>
        <time>2011-06-29T09:08:05.000Z</time>
      </trkpt>
      <trkpt lat="45.00378" lon="1.09309">
        <ele>85.800003051758</ele>
        <time>2011-06-29T09:08:09.000Z</time>
      </trkpt>
      <trkpt lat="45.0039" lon="1.09302">
        <ele>84.599998474121</ele>
        <time>2011-06-29T09:08:14.000Z</time>
      </trkpt>
      <trkpt lat="45.00398" lon="1.09297">
        <ele>83.800003051758</ele>
        <time>2011-06-29T09:08:18.000Z</time>
      </trkpt>
      <trkpt lat="45.00419" lon="1.0928">
        <ele>83.800003051758</ele>
        <time>2011-06-29T09:08:25.000Z</time>
      </trkpt>
      <trkpt lat="45.00428" lon="1.09271">
        <ele>84</ele>
        <time>2011-06-29T09:08:29.000Z</time>
      </trkpt>
      <trkpt lat="45.0044" lon="1.09259">
        <ele>82.800003051758</ele>
        <time>2011-06-29T09:08:35.000Z</time>
      </trkpt>
      <trkpt lat="45.00451" lon="1.09248">
        <ele>81.199996948242</ele>
        <time>2011-06-29T09:08:39.000Z</time>
      </trkpt>
      <trkpt lat="45.00464" lon="1.09235">
        <ele>80.800003051758</ele>
        <time>2011-06-29T09:08:44.000Z</time>
      </trkpt>
      <trkpt lat="45.00469" lon="1.09227">
        <ele>81.400001525879</ele>
        <time>2011-06-29T09:08:46.000Z</time>
      </trkpt>
      <trkpt lat="45.00489" lon="1.0921">
        <ele>82.400001525879</ele>
        <time>2011-06-29T09:08:50.000Z</time>
      </trkpt>
      <trkpt lat="45.00505" lon="1.09196">
        <ele>83</ele>
        <time>2011-06-29T09:08:53.000Z</time>
      </trkpt>
      <trkpt lat="45.00527" lon="1.09176">
        <ele>85</ele>
        <time>2011-06-29T09:08:57.000Z</time>
      </trkpt>
      <trkpt lat="45.00557" lon="1.09153">
        <ele>81.400001525879</ele>
        <time>2011-06-29T09:09:02.000Z</time>
      </trkpt>
      <trkpt lat="45.00578" lon="1.09132">
        <ele>76.800003051758</ele>
        <time>2011-06-29T09:09:07.000Z</time>
      </trkpt>
      <trkpt lat="45.00598" lon="1.09112">
        <ele>77.199996948242</ele>
        <time>2011-06-29T09:09:13.000Z</time>
      </trkpt>
      <trkpt lat="45.00615" lon="1.09095">
        <ele>74.599998474121</ele>
        <time>2011-06-29T09:09:20.000Z</time>
      </trkpt>
      <trkpt lat="45.00624" lon="1.09084">
        <ele>67</ele>
        <time>2011-06-29T09:09:27.000Z</time>
      </trkpt>
      <trkpt lat="45.00624" lon="1.09083">
        <ele>66.800003051758</ele>
        <time>2011-06-29T09:09:28.000Z</time>
      </trkpt>
      <trkpt lat="45.00626" lon="1.09083">
        <ele>58.599998474121</ele>
        <time>2011-06-29T09:11:10.000Z</time>
      </trkpt>
      <trkpt lat="45.00635" lon="1.09083">
        <ele>61.200000762939</ele>
        <time>2011-06-29T09:11:15.000Z</time>
      </trkpt>
      <trkpt lat="45.00637" lon="1.09081">
        <ele>62.200000762939</ele>
        <time>2011-06-29T09:11:18.000Z</time>
      </trkpt>
      <trkpt lat="45.00646" lon="1.09078">
        <ele>85.199996948242</ele>
        <time>2011-06-29T09:12:01.000Z</time>
      </trkpt>
      <trkpt lat="45.00657" lon="1.09066">
        <ele>83.400001525879</ele>
        <time>2011-06-29T09:12:07.000Z</time>
      </trkpt>
      <trkpt lat="45.00666" lon="1.09056">
        <ele>81</ele>
        <time>2011-06-29T09:12:13.000Z</time>
      </trkpt>
      <trkpt lat="45.00669" lon="1.09046">
        <ele>80.400001525879</ele>
        <time>2011-06-29T09:12:17.000Z</time>
      </trkpt>
      <trkpt lat="45.00679" lon="1.09035">
        <ele>76</ele>
        <time>2011-06-29T09:12:23.000Z</time>
      </trkpt>
      <trkpt lat="45.00681" lon="1.09033">
        <ele>75.800003051758</ele>
        <time>2011-06-29T09:12:24.000Z</time>
      </trkpt>
      <trkpt lat="45.00697" lon="1.09035">
        <ele>74.599998474121</ele>
        <time>2011-06-29T09:12:32.000Z</time>
      </trkpt>
      <trkpt lat="45.00707" lon="1.09033">
        <ele>74.199996948242</ele>
        <time>2011-06-29T09:12:36.000Z</time>
      </trkpt>
      <trkpt lat="45.00713" lon="1.09028">
        <ele>73.400001525879</ele>
        <time>2011-06-29T09:12:39.000Z</time>
      </trkpt>
      <trkpt lat="45.0072" lon="1.09019">
        <ele>66.400001525879</ele>
        <time>2011-06-29T09:12:44.000Z</time>
      </trkpt>
      <trkpt lat="45.0073" lon="1.09009">
        <ele>65.800003051758</ele>
        <time>2011-06-29T09:12:49.000Z</time>
      </trkpt>
      <trkpt lat="45.00741" lon="1.08989">
        <ele>63.400001525879</ele>
        <time>2011-06-29T09:12:55.000Z</time>
      </trkpt>
      <trkpt lat="45.00751" lon="1.08974">
        <ele>66.400001525879</ele>
        <time>2011-06-29T09:12:59.000Z</time>
      </trkpt>
      <trkpt lat="45.00754" lon="1.08963">
        <ele>65.800003051758</ele>
        <time>2011-06-29T09:13:02.000Z</time>
      </trkpt>
      <trkpt lat="45.00767" lon="1.08938">
        <ele>66.199996948242</ele>
        <time>2011-06-29T09:13:08.000Z</time>
      </trkpt>
      <trkpt lat="45.00778" lon="1.08912">
        <ele>65.199996948242</ele>
        <time>2011-06-29T09:13:14.000Z</time>
      </trkpt>
      <trkpt lat="45.0079" lon="1.08889">
        <ele>64.800003051758</ele>
        <time>2011-06-29T09:13:20.000Z</time>
      </trkpt>
      <trkpt lat="45.00803" lon="1.08871">
        <ele>60.799999237061</ele>
        <time>2011-06-29T09:13:25.000Z</time>
      </trkpt>
      <trkpt lat="45.00815" lon="1.08848">
        <ele>61.400001525879</ele>
        <time>2011-06-29T09:13:31.000Z</time>
      </trkpt>
      <trkpt lat="45.00829" lon="1.08826">
        <ele>62.400001525879</ele>
        <time>2011-06-29T09:13:37.000Z</time>
      </trkpt>
      <trkpt lat="45.00842" lon="1.08812">
        <ele>64.199996948242</ele>
        <time>2011-06-29T09:13:42.000Z</time>
      </trkpt>
      <trkpt lat="45.00845" lon="1.08809">
        <ele>64</ele>
        <time>2011-06-29T09:13:43.000Z</time>
      </trkpt>
      <trkpt lat="45.00852" lon="1.08794">
        <ele>63</ele>
        <time>2011-06-29T09:13:47.000Z</time>
      </trkpt>
      <trkpt lat="45.00863" lon="1.08779">
        <ele>61.799999237061</ele>
        <time>2011-06-29T09:13:53.000Z</time>
      </trkpt>
      <trkpt lat="45.00875" lon="1.08769">
        <ele>62.599998474121</ele>
        <time>2011-06-29T09:13:59.000Z</time>
      </trkpt>
      <trkpt lat="45.00887" lon="1.08753">
        <ele>61</ele>
        <time>2011-06-29T09:14:05.000Z</time>
      </trkpt>
      <trkpt lat="45.00888" lon="1.08752">
        <ele>60.599998474121</ele>
        <time>2011-06-29T09:14:06.000Z</time>
      </trkpt>
      <trkpt lat="45.00899" lon="1.08746">
        <ele>61</ele>
        <time>2011-06-29T09:14:11.000Z</time>
      </trkpt>
      <trkpt lat="45.00901" lon="1.08743">
        <ele>61</ele>
        <time>2011-06-29T09:14:12.000Z</time>
      </trkpt>
      <trkpt lat="45.00917" lon="1.0873">
        <ele>63</ele>
        <time>2011-06-29T09:14:19.000Z</time>
      </trkpt>
      <trkpt lat="45.00923" lon="1.08726">
        <ele>63.599998474121</ele>
        <time>2011-06-29T09:14:22.000Z</time>
      </trkpt>
      <trkpt lat="45.00934" lon="1.08718">
        <ele>64</ele>
        <time>2011-06-29T09:14:27.000Z</time>
      </trkpt>
      <trkpt lat="45.00938" lon="1.08714">
        <ele>65.199996948242</ele>
        <time>2011-06-29T09:14:29.000Z</time>
      </trkpt>
      <trkpt lat="45.00935" lon="1.08707">
        <ele>65.599998474121</ele>
        <time>2011-06-29T09:14:34.000Z</time>
      </trkpt>
      <trkpt lat="45.00927" lon="1.08707">
        <ele>65.800003051758</ele>
        <time>2011-06-29T09:14:39.000Z</time>
      </trkpt>
      <trkpt lat="45.00915" lon="1.08708">
        <ele>66</ele>
        <time>2011-06-29T09:14:45.000Z</time>
      </trkpt>
      <trkpt lat="45.00914" lon="1.08707">
        <ele>64.599998474121</ele>
        <time>2011-06-29T09:14:47.000Z</time>
      </trkpt>
      <trkpt lat="45.00908" lon="1.08707">
        <ele>62</ele>
        <time>2011-06-29T09:14:54.000Z</time>
      </trkpt>
      <trkpt lat="45.00904" lon="1.08705">
        <ele>65.800003051758</ele>
        <time>2011-06-29T09:15:00.000Z</time>
      </trkpt>
      <trkpt lat="45.00905" lon="1.08703">
        <ele>67.800003051758</ele>
        <time>2011-06-29T09:15:05.000Z</time>
      </trkpt>
      <trkpt lat="45.00909" lon="1.08702">
        <ele>68.800003051758</ele>
        <time>2011-06-29T09:15:10.000Z</time>
      </trkpt>
      <trkpt lat="45.00912" lon="1.08701">
        <ele>69.199996948242</ele>
        <time>2011-06-29T09:15:13.000Z</time>
      </trkpt>
      <trkpt lat="45.00921" lon="1.08701">
        <ele>70.400001525879</ele>
        <time>2011-06-29T09:15:19.000Z</time>
      </trkpt>
      <trkpt lat="45.0093" lon="1.08698">
        <ele>72.400001525879</ele>
        <time>2011-06-29T09:15:26.000Z</time>
      </trkpt>
      <trkpt lat="45.00941" lon="1.087">
        <ele>74.400001525879</ele>
        <time>2011-06-29T09:15:31.000Z</time>
      </trkpt>
      <trkpt lat="45.00959" lon="1.08705">
        <ele>75.599998474121</ele>
        <time>2011-06-29T09:15:38.000Z</time>
      </trkpt>
      <trkpt lat="45.00976" lon="1.08707">
        <ele>75.800003051758</ele>
        <time>2011-06-29T09:15:44.000Z</time>
      </trkpt>
      <trkpt lat="45.00996" lon="1.08708">
        <ele>77.400001525879</ele>
        <time>2011-06-29T09:15:52.000Z</time>
      </trkpt>
      <trkpt lat="45.01012" lon="1.08712">
        <ele>79.599998474121</ele>
        <time>2011-06-29T09:16:00.000Z</time>
      </trkpt>
      <trkpt lat="45.0102" lon="1.08716">
        <ele>79.199996948242</ele>
        <time>2011-06-29T09:16:05.000Z</time>
      </trkpt>
      <trkpt lat="45.01031" lon="1.08725">
        <ele>81.400001525879</ele>
        <time>2011-06-29T09:16:12.000Z</time>
      </trkpt>
      <trkpt lat="45.01041" lon="1.08732">
        <ele>81.199996948242</ele>
        <time>2011-06-29T09:16:17.000Z</time>
      </trkpt>
      <trkpt lat="45.01057" lon="1.08739">
        <ele>82</ele>
        <time>2011-06-29T09:16:23.000Z</time>
      </trkpt>
      <trkpt lat="45.01076" lon="1.08746">
        <ele>78.400001525879</ele>
        <time>2011-06-29T09:16:28.000Z</time>
      </trkpt>
      <trkpt lat="45.01103" lon="1.08746">
        <ele>75.800003051758</ele>
        <time>2011-06-29T09:16:34.000Z</time>
      </trkpt>
      <trkpt lat="45.01107" lon="1.08754">
        <ele>75.599998474121</ele>
        <time>2011-06-29T09:16:38.000Z</time>
      </trkpt>
      <trkpt lat="45.01102" lon="1.08784">
        <ele>73</ele>
        <time>2011-06-29T09:16:47.000Z</time>
      </trkpt>
      <trkpt lat="45.01094" lon="1.08823">
        <ele>72.599998474121</ele>
        <time>2011-06-29T09:16:57.000Z</time>
      </trkpt>
      <trkpt lat="45.01087" lon="1.08859">
        <ele>71</ele>
        <time>2011-06-29T09:17:05.000Z</time>
      </trkpt>
      <trkpt lat="45.01086" lon="1.08872">
        <ele>70.599998474121</ele>
        <time>2011-06-29T09:17:07.000Z</time>
      </trkpt>
      <trkpt lat="45.01088" lon="1.08897">
        <ele>70</ele>
        <time>2011-06-29T09:17:11.000Z</time>
      </trkpt>
      <trkpt lat="45.01097" lon="1.08908">
        <ele>69.599998474121</ele>
        <time>2011-06-29T09:17:14.000Z</time>
      </trkpt>
      <trkpt lat="45.01099" lon="1.08926">
        <ele>69</ele>
        <time>2011-06-29T09:17:18.000Z</time>
      </trkpt>
      <trkpt lat="45.01105" lon="1.08964">
        <ele>68</ele>
        <time>2011-06-29T09:17:27.000Z</time>
      </trkpt>
      <trkpt lat="45.01105" lon="1.08975">
        <ele>68</ele>
        <time>2011-06-29T09:17:30.000Z</time>
      </trkpt>
      <trkpt lat="45.01102" lon="1.08981">
        <ele>68.199996948242</ele>
        <time>2011-06-29T09:17:32.000Z</time>
      </trkpt>
      <trkpt lat="45.01088" lon="1.08987">
        <ele>70.199996948242</ele>
        <time>2011-06-29T09:17:38.000Z</time>
      </trkpt>
      <trkpt lat="45.01069" lon="1.08995">
        <ele>71.599998474121</ele>
        <time>2011-06-29T09:17:45.000Z</time>
      </trkpt>
      <trkpt lat="45.01053" lon="1.09">
        <ele>72.199996948242</ele>
        <time>2011-06-29T09:17:51.000Z</time>
      </trkpt>
      <trkpt lat="45.01034" lon="1.09005">
        <ele>72.199996948242</ele>
        <time>2011-06-29T09:17:58.000Z</time>
      </trkpt>
      <trkpt lat="45.01021" lon="1.09007">
        <ele>72</ele>
        <time>2011-06-29T09:18:03.000Z</time>
      </trkpt>
      <trkpt lat="45.01017" lon="1.08994">
        <ele>70.199996948242</ele>
        <time>2011-06-29T09:18:08.000Z</time>
      </trkpt>
      <trkpt lat="45.01021" lon="1.08975">
        <ele>69.400001525879</ele>
        <time>2011-06-29T09:18:16.000Z</time>
      </trkpt>
      <trkpt lat="45.01022" lon="1.08969">
        <ele>69.599998474121</ele>
        <time>2011-06-29T09:18:20.000Z</time>
      </trkpt>
      <trkpt lat="45.0102" lon="1.08968">
        <ele>69.800003051758</ele>
        <time>2011-06-29T09:18:25.000Z</time>
      </trkpt>
      <trkpt lat="45.01021" lon="1.08975">
        <ele>69.400001525879</ele>
        <time>2011-06-29T09:18:30.000Z</time>
      </trkpt>
      <trkpt lat="45.01023" lon="1.08968">
        <ele>69</ele>
        <time>2011-06-29T09:18:35.000Z</time>
      </trkpt>
      <trkpt lat="45.01022" lon="1.0896">
        <ele>69.199996948242</ele>
        <time>2011-06-29T09:18:41.000Z</time>
      </trkpt>
      <trkpt lat="45.01022" lon="1.08948">
        <ele>68.800003051758</ele>
        <time>2011-06-29T09:18:46.000Z</time>
      </trkpt>
      <trkpt lat="45.01022" lon="1.08947">
        <ele>69</ele>
        <time>2011-06-29T09:18:47.000Z</time>
      </trkpt>
      <trkpt lat="45.01019" lon="1.08932">
        <ele>69.400001525879</ele>
        <time>2011-06-29T09:18:54.000Z</time>
      </trkpt>
      <trkpt lat="45.01014" lon="1.08918">
        <ele>70.199996948242</ele>
        <time>2011-06-29T09:18:59.000Z</time>
      </trkpt>
      <trkpt lat="45.01006" lon="1.08909">
        <ele>69.400001525879</ele>
        <time>2011-06-29T09:19:03.000Z</time>
      </trkpt>
      <trkpt lat="45.00994" lon="1.08913">
        <ele>69.800003051758</ele>
        <time>2011-06-29T09:19:08.000Z</time>
      </trkpt>
      <trkpt lat="45.00977" lon="1.08919">
        <ele>69.800003051758</ele>
        <time>2011-06-29T09:19:15.000Z</time>
      </trkpt>
      <trkpt lat="45.00963" lon="1.08925">
        <ele>67.599998474121</ele>
        <time>2011-06-29T09:19:21.000Z</time>
      </trkpt>
      <trkpt lat="45.00949" lon="1.08931">
        <ele>71.599998474121</ele>
        <time>2011-06-29T09:19:28.000Z</time>
      </trkpt>
      <trkpt lat="45.00948" lon="1.08931">
        <ele>71.400001525879</ele>
        <time>2011-06-29T09:19:29.000Z</time>
      </trkpt>
      <trkpt lat="45.00939" lon="1.08933">
        <ele>71.199996948242</ele>
        <time>2011-06-29T09:19:35.000Z</time>
      </trkpt>
      <trkpt lat="45.00936" lon="1.08934">
        <ele>72.199996948242</ele>
        <time>2011-06-29T09:19:37.000Z</time>
      </trkpt>
      <trkpt lat="45.00931" lon="1.08927">
        <ele>72.800003051758</ele>
        <time>2011-06-29T09:19:42.000Z</time>
      </trkpt>
      <trkpt lat="45.00929" lon="1.08925">
        <ele>73</ele>
        <time>2011-06-29T09:19:43.000Z</time>
      </trkpt>
      <trkpt lat="45.00926" lon="1.08922">
        <ele>73.199996948242</ele>
        <time>2011-06-29T09:19:45.000Z</time>
      </trkpt>
      <trkpt lat="45.00924" lon="1.0891">
        <ele>70.400001525879</ele>
        <time>2011-06-29T09:19:50.000Z</time>
      </trkpt>
      <trkpt lat="45.00932" lon="1.0889">
        <ele>67.400001525879</ele>
        <time>2011-06-29T09:19:57.000Z</time>
      </trkpt>
      <trkpt lat="45.00941" lon="1.08878">
        <ele>66.800003051758</ele>
        <time>2011-06-29T09:20:02.000Z</time>
      </trkpt>
      <trkpt lat="45.00952" lon="1.08871">
        <ele>68</ele>
        <time>2011-06-29T09:20:08.000Z</time>
      </trkpt>
      <trkpt lat="45.00951" lon="1.08861">
        <ele>68.400001525879</ele>
        <time>2011-06-29T09:20:13.000Z</time>
      </trkpt>
      <trkpt lat="45.00951" lon="1.08859">
        <ele>68.400001525879</ele>
        <time>2011-06-29T09:20:14.000Z</time>
      </trkpt>
      <trkpt lat="45.00957" lon="1.08852">
        <ele>68.599998474121</ele>
        <time>2011-06-29T09:20:19.000Z</time>
      </trkpt>
      <trkpt lat="45.00959" lon="1.08851">
        <ele>68.599998474121</ele>
        <time>2011-06-29T09:20:20.000Z</time>
      </trkpt>
      <trkpt lat="45.00954" lon="1.08841">
        <ele>69.400001525879</ele>
        <time>2011-06-29T09:20:26.000Z</time>
      </trkpt>
      <trkpt lat="45.00946" lon="1.08828">
        <ele>69.199996948242</ele>
        <time>2011-06-29T09:20:32.000Z</time>
      </trkpt>
      <trkpt lat="45.00944" lon="1.08824">
        <ele>68.400001525879</ele>
        <time>2011-06-29T09:20:34.000Z</time>
      </trkpt>
      <trkpt lat="45.00946" lon="1.08815">
        <ele>68.400001525879</ele>
        <time>2011-06-29T09:20:38.000Z</time>
      </trkpt>
      <trkpt lat="45.00958" lon="1.08818">
        <ele>69.199996948242</ele>
        <time>2011-06-29T09:20:44.000Z</time>
      </trkpt>
      <trkpt lat="45.00969" lon="1.08837">
        <ele>70</ele>
        <time>2011-06-29T09:20:52.000Z</time>
      </trkpt>
      <trkpt lat="45.00978" lon="1.08856">
        <ele>69.599998474121</ele>
        <time>2011-06-29T09:20:59.000Z</time>
      </trkpt>
      <trkpt lat="45.00979" lon="1.08858">
        <ele>69.800003051758</ele>
        <time>2011-06-29T09:21:00.000Z</time>
      </trkpt>
      <trkpt lat="45.00986" lon="1.08857">
        <ele>70.800003051758</ele>
        <time>2011-06-29T09:21:05.000Z</time>
      </trkpt>
      <trkpt lat="45.00994" lon="1.0885">
        <ele>71</ele>
        <time>2011-06-29T09:21:09.000Z</time>
      </trkpt>
      <trkpt lat="45.00994" lon="1.08838">
        <ele>71.599998474121</ele>
        <time>2011-06-29T09:21:14.000Z</time>
      </trkpt>
      <trkpt lat="45.00992" lon="1.08826">
        <ele>72.599998474121</ele>
        <time>2011-06-29T09:21:19.000Z</time>
      </trkpt>
      <trkpt lat="45.00989" lon="1.08808">
        <ele>71.400001525879</ele>
        <time>2011-06-29T09:21:25.000Z</time>
      </trkpt>
      <trkpt lat="45.00987" lon="1.08797">
        <ele>70.199996948242</ele>
        <time>2011-06-29T09:21:29.000Z</time>
      </trkpt>
      <trkpt lat="45.00973" lon="1.0878">
        <ele>68.599998474121</ele>
        <time>2011-06-29T09:21:34.000Z</time>
      </trkpt>
      <trkpt lat="45.00969" lon="1.08783">
        <ele>67.800003051758</ele>
        <time>2011-06-29T09:21:35.000Z</time>
      </trkpt>
      <trkpt lat="45.00961" lon="1.08791">
        <ele>67.199996948242</ele>
        <time>2011-06-29T09:21:40.000Z</time>
      </trkpt>
      <trkpt lat="45.00945" lon="1.08804">
        <ele>73.599998474121</ele>
        <time>2011-06-29T09:25:49.000Z</time>
      </trkpt>
      <trkpt lat="45.00935" lon="1.08812">
        <ele>73.599998474121</ele>
        <time>2011-06-29T09:25:55.000Z</time>
      </trkpt>
      <trkpt lat="45.00923" lon="1.08826">
        <ele>71.800003051758</ele>
        <time>2011-06-29T09:26:02.000Z</time>
      </trkpt>
      <trkpt lat="45.00914" lon="1.08838">
        <ele>70.400001525879</ele>
        <time>2011-06-29T09:26:07.000Z</time>
      </trkpt>
      <trkpt lat="45.00899" lon="1.08854">
        <ele>71.199996948242</ele>
        <time>2011-06-29T09:26:14.000Z</time>
      </trkpt>
      <trkpt lat="45.00878" lon="1.08876">
        <ele>69.400001525879</ele>
        <time>2011-06-29T09:26:23.000Z</time>
      </trkpt>
      <trkpt lat="45.00866" lon="1.0889">
        <ele>69</ele>
        <time>2011-06-29T09:26:29.000Z</time>
      </trkpt>
      <trkpt lat="45.00858" lon="1.08902">
        <ele>69.199996948242</ele>
        <time>2011-06-29T09:26:34.000Z</time>
      </trkpt>
      <trkpt lat="45.00844" lon="1.08925">
        <ele>69.199996948242</ele>
        <time>2011-06-29T09:26:41.000Z</time>
      </trkpt>
      <trkpt lat="45.00817" lon="1.0897">
        <ele>64.800003051758</ele>
        <time>2011-06-29T09:26:57.000Z</time>
      </trkpt>
      <trkpt lat="45.00808" lon="1.08988">
        <ele>64.800003051758</ele>
        <time>2011-06-29T09:27:04.000Z</time>
      </trkpt>
      <trkpt lat="45.00801" lon="1.09006">
        <ele>63.400001525879</ele>
        <time>2011-06-29T09:27:11.000Z</time>
      </trkpt>
      <trkpt lat="45.00791" lon="1.09024">
        <ele>66</ele>
        <time>2011-06-29T09:27:17.000Z</time>
      </trkpt>
      <trkpt lat="45.00783" lon="1.09039">
        <ele>65.400001525879</ele>
        <time>2011-06-29T09:27:22.000Z</time>
      </trkpt>
      <trkpt lat="45.00769" lon="1.09063">
        <ele>67.400001525879</ele>
        <time>2011-06-29T09:27:29.000Z</time>
      </trkpt>
      <trkpt lat="45.00757" lon="1.09092">
        <ele>67.800003051758</ele>
        <time>2011-06-29T09:27:36.000Z</time>
      </trkpt>
      <trkpt lat="45.00749" lon="1.09111">
        <ele>67.800003051758</ele>
        <time>2011-06-29T09:27:41.000Z</time>
      </trkpt>
      <trkpt lat="45.0073" lon="1.09137">
        <ele>68.800003051758</ele>
        <time>2011-06-29T09:27:48.000Z</time>
      </trkpt>
      <trkpt lat="45.00711" lon="1.09153">
        <ele>70.599998474121</ele>
        <time>2011-06-29T09:27:54.000Z</time>
      </trkpt>
      <trkpt lat="45.00685" lon="1.09179">
        <ele>69</ele>
        <time>2011-06-29T09:28:02.000Z</time>
      </trkpt>
      <trkpt lat="45.00682" lon="1.09183">
        <ele>69.400001525879</ele>
        <time>2011-06-29T09:28:03.000Z</time>
      </trkpt>
      <trkpt lat="45.00679" lon="1.09203">
        <ele>69.800003051758</ele>
        <time>2011-06-29T09:28:07.000Z</time>
      </trkpt>
      <trkpt lat="45.00683" lon="1.09214">
        <ele>70</ele>
        <time>2011-06-29T09:28:09.000Z</time>
      </trkpt>
      <trkpt lat="45.00702" lon="1.09252">
        <ele>69.599998474121</ele>
        <time>2011-06-29T09:28:17.000Z</time>
      </trkpt>
      <trkpt lat="45.00719" lon="1.0929">
        <ele>70.199996948242</ele>
        <time>2011-06-29T09:28:25.000Z</time>
      </trkpt>
      <trkpt lat="45.00733" lon="1.09321">
        <ele>71.599998474121</ele>
        <time>2011-06-29T09:28:32.000Z</time>
      </trkpt>
      <trkpt lat="45.00735" lon="1.09347">
        <ele>72.400001525879</ele>
        <time>2011-06-29T09:28:37.000Z</time>
      </trkpt>
      <trkpt lat="45.00737" lon="1.09382">
        <ele>72.800003051758</ele>
        <time>2011-06-29T09:28:44.000Z</time>
      </trkpt>
      <trkpt lat="45.00748" lon="1.09386">
        <ele>72.599998474121</ele>
        <time>2011-06-29T09:28:48.000Z</time>
      </trkpt>
      <trkpt lat="45.00752" lon="1.09384">
        <ele>72.599998474121</ele>
        <time>2011-06-29T09:28:49.000Z</time>
      </trkpt>
      <trkpt lat="45.0078" lon="1.09363">
        <ele>72.800003051758</ele>
        <time>2011-06-29T09:28:57.000Z</time>
      </trkpt>
      <trkpt lat="45.00812" lon="1.0934">
        <ele>72.800003051758</ele>
        <time>2011-06-29T09:29:06.000Z</time>
      </trkpt>
      <trkpt lat="45.00853" lon="1.0931">
        <ele>72.800003051758</ele>
        <time>2011-06-29T09:29:17.000Z</time>
      </trkpt>
      <trkpt lat="45.00898" lon="1.09277">
        <ele>72</ele>
        <time>2011-06-29T09:29:29.000Z</time>
      </trkpt>
      <trkpt lat="45.00933" lon="1.09252">
        <ele>72</ele>
        <time>2011-06-29T09:29:39.000Z</time>
      </trkpt>
      <trkpt lat="45.00936" lon="1.09251">
        <ele>72</ele>
        <time>2011-06-29T09:29:40.000Z</time>
      </trkpt>
      <trkpt lat="45.00946" lon="1.09268">
        <ele>72.199996948242</ele>
        <time>2011-06-29T09:29:45.000Z</time>
      </trkpt>
      <trkpt lat="45.00956" lon="1.09291">
        <ele>72.400001525879</ele>
        <time>2011-06-29T09:29:50.000Z</time>
      </trkpt>
      <trkpt lat="45.00973" lon="1.09331">
        <ele>73.599998474121</ele>
        <time>2011-06-29T09:29:58.000Z</time>
      </trkpt>
      <trkpt lat="45.00984" lon="1.09352">
        <ele>74</ele>
        <time>2011-06-29T09:30:03.000Z</time>
      </trkpt>
      <trkpt lat="45.00996" lon="1.09345">
        <ele>74.599998474121</ele>
        <time>2011-06-29T09:30:09.000Z</time>
      </trkpt>
      <trkpt lat="45.01009" lon="1.09328">
        <ele>75.800003051758</ele>
        <time>2011-06-29T09:30:17.000Z</time>
      </trkpt>
      <trkpt lat="45.01019" lon="1.09315">
        <ele>75.800003051758</ele>
        <time>2011-06-29T09:30:23.000Z</time>
      </trkpt>
      <trkpt lat="45.01019" lon="1.09315">
        <ele>76</ele>
        <time>2011-06-29T09:30:25.000Z</time>
      </trkpt>
      <trkpt lat="45.0102" lon="1.09312">
        <ele>77.199996948242</ele>
        <time>2011-06-29T09:32:28.000Z</time>
      </trkpt>
      <trkpt lat="45.01032" lon="1.09306">
        <ele>76.400001525879</ele>
        <time>2011-06-29T09:32:35.000Z</time>
      </trkpt>
      <trkpt lat="45.01039" lon="1.0931">
        <ele>75.800003051758</ele>
        <time>2011-06-29T09:32:41.000Z</time>
      </trkpt>
      <trkpt lat="45.01047" lon="1.09315">
        <ele>75.400001525879</ele>
        <time>2011-06-29T09:32:46.000Z</time>
      </trkpt>
      <trkpt lat="45.01059" lon="1.09325">
        <ele>75.800003051758</ele>
        <time>2011-06-29T09:32:52.000Z</time>
      </trkpt>
      <trkpt lat="45.01071" lon="1.09345">
        <ele>76.400001525879</ele>
        <time>2011-06-29T09:33:00.000Z</time>
      </trkpt>
      <trkpt lat="45.01085" lon="1.09371">
        <ele>76.599998474121</ele>
        <time>2011-06-29T09:33:10.000Z</time>
      </trkpt>
      <trkpt lat="45.01097" lon="1.09396">
        <ele>77</ele>
        <time>2011-06-29T09:33:20.000Z</time>
      </trkpt>
      <trkpt lat="45.01111" lon="1.09421">
        <ele>77.800003051758</ele>
        <time>2011-06-29T09:33:29.000Z</time>
      </trkpt>
      <trkpt lat="45.01121" lon="1.09441">
        <ele>78.400001525879</ele>
        <time>2011-06-29T09:33:37.000Z</time>
      </trkpt>
      <trkpt lat="45.01135" lon="1.0947">
        <ele>79.599998474121</ele>
        <time>2011-06-29T09:33:48.000Z</time>
      </trkpt>
      <trkpt lat="45.01142" lon="1.09485">
        <ele>80</ele>
        <time>2011-06-29T09:33:54.000Z</time>
      </trkpt>
      <trkpt lat="45.01153" lon="1.09508">
        <ele>82</ele>
        <time>2011-06-29T09:34:04.000Z</time>
      </trkpt>
      <trkpt lat="45.01165" lon="1.09513">
        <ele>83.400001525879</ele>
        <time>2011-06-29T09:34:11.000Z</time>
      </trkpt>
      <trkpt lat="45.01178" lon="1.09505">
        <ele>85.400001525879</ele>
        <time>2011-06-29T09:34:18.000Z</time>
      </trkpt>
      <trkpt lat="45.01194" lon="1.09491">
        <ele>87.599998474121</ele>
        <time>2011-06-29T09:34:26.000Z</time>
      </trkpt>
      <trkpt lat="45.01201" lon="1.09486">
        <ele>88</ele>
        <time>2011-06-29T09:34:29.000Z</time>
      </trkpt>
      <trkpt lat="45.01205" lon="1.0949">
        <ele>88.199996948242</ele>
        <time>2011-06-29T09:34:33.000Z</time>
      </trkpt>
      <trkpt lat="45.01197" lon="1.09495">
        <ele>88.599998474121</ele>
        <time>2011-06-29T09:34:37.000Z</time>
      </trkpt>
      <trkpt lat="45.01195" lon="1.09496">
        <ele>88.800003051758</ele>
        <time>2011-06-29T09:34:38.000Z</time>
      </trkpt>
      <trkpt lat="45.01172" lon="1.09517">
        <ele>89.400001525879</ele>
        <time>2011-06-29T09:34:47.000Z</time>
      </trkpt>
      <trkpt lat="45.01165" lon="1.09529">
        <ele>89.599998474121</ele>
        <time>2011-06-29T09:34:51.000Z</time>
      </trkpt>
      <trkpt lat="45.01169" lon="1.09538">
        <ele>90.199996948242</ele>
        <time>2011-06-29T09:34:55.000Z</time>
      </trkpt>
      <trkpt lat="45.01182" lon="1.09541">
        <ele>92.800003051758</ele>
        <time>2011-06-29T09:35:02.000Z</time>
      </trkpt>
      <trkpt lat="45.01187" lon="1.09543">
        <ele>94.199996948242</ele>
        <time>2011-06-29T09:35:06.000Z</time>
      </trkpt>
      <trkpt lat="45.01197" lon="1.09547">
        <ele>98.800003051758</ele>
        <time>2011-06-29T09:35:15.000Z</time>
      </trkpt>
      <trkpt lat="45.01205" lon="1.09549">
        <ele>101</ele>
        <time>2011-06-29T09:35:21.000Z</time>
      </trkpt>
      <trkpt lat="45.01219" lon="1.09552">
        <ele>101.40000152588</ele>
        <time>2011-06-29T09:35:28.000Z</time>
      </trkpt>
      <trkpt lat="45.0123" lon="1.09555">
        <ele>103</ele>
        <time>2011-06-29T09:35:34.000Z</time>
      </trkpt>
      <trkpt lat="45.01238" lon="1.09562">
        <ele>104.19999694824</ele>
        <time>2011-06-29T09:35:40.000Z</time>
      </trkpt>
      <trkpt lat="45.01247" lon="1.0957">
        <ele>105.19999694824</ele>
        <time>2011-06-29T09:35:47.000Z</time>
      </trkpt>
      <trkpt lat="45.01258" lon="1.09578">
        <ele>106.40000152588</ele>
        <time>2011-06-29T09:35:54.000Z</time>
      </trkpt>
      <trkpt lat="45.01267" lon="1.09586">
        <ele>108.40000152588</ele>
        <time>2011-06-29T09:36:01.000Z</time>
      </trkpt>
      <trkpt lat="45.01276" lon="1.09597">
        <ele>108.59999847412</ele>
        <time>2011-06-29T09:36:08.000Z</time>
      </trkpt>
      <trkpt lat="45.01283" lon="1.09604">
        <ele>108.59999847412</ele>
        <time>2011-06-29T09:36:14.000Z</time>
      </trkpt>
      <trkpt lat="45.01292" lon="1.09609">
        <ele>111.19999694824</ele>
        <time>2011-06-29T09:36:21.000Z</time>
      </trkpt>
      <trkpt lat="45.01301" lon="1.09619">
        <ele>113.40000152588</ele>
        <time>2011-06-29T09:36:29.000Z</time>
      </trkpt>
      <trkpt lat="45.01309" lon="1.09628">
        <ele>113.80000305176</ele>
        <time>2011-06-29T09:36:35.000Z</time>
      </trkpt>
      <trkpt lat="45.01319" lon="1.09634">
        <ele>114.59999847412</ele>
        <time>2011-06-29T09:36:41.000Z</time>
      </trkpt>
      <trkpt lat="45.01332" lon="1.09641">
        <ele>116.40000152588</ele>
        <time>2011-06-29T09:36:49.000Z</time>
      </trkpt>
      <trkpt lat="45.01344" lon="1.09645">
        <ele>119.40000152588</ele>
        <time>2011-06-29T09:36:56.000Z</time>
      </trkpt>
      <trkpt lat="45.01353" lon="1.09649">
        <ele>121.19999694824</ele>
        <time>2011-06-29T09:37:02.000Z</time>
      </trkpt>
      <trkpt lat="45.01361" lon="1.09651">
        <ele>123</ele>
        <time>2011-06-29T09:37:08.000Z</time>
      </trkpt>
      <trkpt lat="45.01373" lon="1.09654">
        <ele>124.80000305176</ele>
        <time>2011-06-29T09:37:15.000Z</time>
      </trkpt>
      <trkpt lat="45.01384" lon="1.09662">
        <ele>124.40000152588</ele>
        <time>2011-06-29T09:37:23.000Z</time>
      </trkpt>
      <trkpt lat="45.01387" lon="1.09664">
        <ele>124.19999694824</ele>
        <time>2011-06-29T09:37:25.000Z</time>
      </trkpt>
      <trkpt lat="45.01395" lon="1.0967">
        <ele>125.80000305176</ele>
        <time>2011-06-29T09:37:31.000Z</time>
      </trkpt>
      <trkpt lat="45.014" lon="1.09674">
        <ele>125.80000305176</ele>
        <time>2011-06-29T09:37:34.000Z</time>
      </trkpt>
      <trkpt lat="45.0141" lon="1.09683">
        <ele>128.19999694824</ele>
        <time>2011-06-29T09:37:41.000Z</time>
      </trkpt>
      <trkpt lat="45.01416" lon="1.09696">
        <ele>131.19999694824</ele>
        <time>2011-06-29T09:37:48.000Z</time>
      </trkpt>
      <trkpt lat="45.01419" lon="1.09705">
        <ele>132.60000610352</ele>
        <time>2011-06-29T09:37:53.000Z</time>
      </trkpt>
      <trkpt lat="45.01426" lon="1.09717">
        <ele>132.39999389648</ele>
        <time>2011-06-29T09:38:00.000Z</time>
      </trkpt>
      <trkpt lat="45.0143" lon="1.09729">
        <ele>133.39999389648</ele>
        <time>2011-06-29T09:38:06.000Z</time>
      </trkpt>
      <trkpt lat="45.01437" lon="1.09736">
        <ele>135.80000305176</ele>
        <time>2011-06-29T09:38:12.000Z</time>
      </trkpt>
      <trkpt lat="45.01446" lon="1.09743">
        <ele>139.19999694824</ele>
        <time>2011-06-29T09:38:19.000Z</time>
      </trkpt>
      <trkpt lat="45.01456" lon="1.09754">
        <ele>142.39999389648</ele>
        <time>2011-06-29T09:38:27.000Z</time>
      </trkpt>
      <trkpt lat="45.01465" lon="1.09766">
        <ele>143.39999389648</ele>
        <time>2011-06-29T09:38:35.000Z</time>
      </trkpt>
      <trkpt lat="45.01475" lon="1.09775">
        <ele>145.19999694824</ele>
        <time>2011-06-29T09:38:42.000Z</time>
      </trkpt>
      <trkpt lat="45.01485" lon="1.09784">
        <ele>148.80000305176</ele>
        <time>2011-06-29T09:38:49.000Z</time>
      </trkpt>
      <trkpt lat="45.01494" lon="1.09792">
        <ele>149.60000610352</ele>
        <time>2011-06-29T09:38:56.000Z</time>
      </trkpt>
      <trkpt lat="45.015" lon="1.09796">
        <ele>149.60000610352</ele>
        <time>2011-06-29T09:39:00.000Z</time>
      </trkpt>
      <trkpt lat="45.01509" lon="1.0981">
        <ele>150.80000305176</ele>
        <time>2011-06-29T09:39:09.000Z</time>
      </trkpt>
      <trkpt lat="45.01512" lon="1.09807">
        <ele>151.19999694824</ele>
        <time>2011-06-29T09:39:13.000Z</time>
      </trkpt>
      <trkpt lat="45.01512" lon="1.09805">
        <ele>151.19999694824</ele>
        <time>2011-06-29T09:39:18.000Z</time>
      </trkpt>
      <trkpt lat="45.01525" lon="1.09814">
        <ele>149</ele>
        <time>2011-06-29T09:41:43.000Z</time>
      </trkpt>
      <trkpt lat="45.01529" lon="1.09816">
        <ele>149.39999389648</ele>
        <time>2011-06-29T09:41:45.000Z</time>
      </trkpt>
      <trkpt lat="45.01544" lon="1.09826">
        <ele>151.80000305176</ele>
        <time>2011-06-29T09:41:54.000Z</time>
      </trkpt>
      <trkpt lat="45.01557" lon="1.09834">
        <ele>154.39999389648</ele>
        <time>2011-06-29T09:42:01.000Z</time>
      </trkpt>
      <trkpt lat="45.01571" lon="1.09833">
        <ele>157.19999694824</ele>
        <time>2011-06-29T09:42:08.000Z</time>
      </trkpt>
      <trkpt lat="45.01587" lon="1.0982">
        <ele>158</ele>
        <time>2011-06-29T09:42:17.000Z</time>
      </trkpt>
      <trkpt lat="45.01606" lon="1.09802">
        <ele>158.60000610352</ele>
        <time>2011-06-29T09:42:29.000Z</time>
      </trkpt>
      <trkpt lat="45.01614" lon="1.09796">
        <ele>159</ele>
        <time>2011-06-29T09:42:34.000Z</time>
      </trkpt>
      <trkpt lat="45.01624" lon="1.09787">
        <ele>159.80000305176</ele>
        <time>2011-06-29T09:42:42.000Z</time>
      </trkpt>
      <trkpt lat="45.01634" lon="1.09778">
        <ele>160.80000305176</ele>
        <time>2011-06-29T09:42:49.000Z</time>
      </trkpt>
      <trkpt lat="45.0165" lon="1.09764">
        <ele>162.60000610352</ele>
        <time>2011-06-29T09:42:57.000Z</time>
      </trkpt>
      <trkpt lat="45.01667" lon="1.09747">
        <ele>165.39999389648</ele>
        <time>2011-06-29T09:43:04.000Z</time>
      </trkpt>
      <trkpt lat="45.01682" lon="1.09734">
        <ele>168.80000305176</ele>
        <time>2011-06-29T09:43:11.000Z</time>
      </trkpt>
      <trkpt lat="45.017" lon="1.09717">
        <ele>172.80000305176</ele>
        <time>2011-06-29T09:43:20.000Z</time>
      </trkpt>
      <trkpt lat="45.01716" lon="1.09701">
        <ele>174.60000610352</ele>
        <time>2011-06-29T09:43:28.000Z</time>
      </trkpt>
      <trkpt lat="45.01733" lon="1.09688">
        <ele>175.39999389648</ele>
        <time>2011-06-29T09:43:36.000Z</time>
      </trkpt>
      <trkpt lat="45.01748" lon="1.0968">
        <ele>176.39999389648</ele>
        <time>2011-06-29T09:43:43.000Z</time>
      </trkpt>
      <trkpt lat="45.01767" lon="1.09672">
        <ele>178.80000305176</ele>
        <time>2011-06-29T09:43:51.000Z</time>
      </trkpt>
      <trkpt lat="45.01785" lon="1.09668">
        <ele>181.19999694824</ele>
        <time>2011-06-29T09:43:58.000Z</time>
      </trkpt>
      <trkpt lat="45.018" lon="1.09668">
        <ele>181.39999389648</ele>
        <time>2011-06-29T09:44:03.000Z</time>
      </trkpt>
      <trkpt lat="45.01831" lon="1.09673">
        <ele>181.19999694824</ele>
        <time>2011-06-29T09:44:11.000Z</time>
      </trkpt>
      <trkpt lat="45.01858" lon="1.09679">
        <ele>180.60000610352</ele>
        <time>2011-06-29T09:44:18.000Z</time>
      </trkpt>
      <trkpt lat="45.01894" lon="1.09684">
        <ele>179.80000305176</ele>
        <time>2011-06-29T09:44:27.000Z</time>
      </trkpt>
      <trkpt lat="45.01937" lon="1.09683">
        <ele>178.39999389648</ele>
        <time>2011-06-29T09:44:36.000Z</time>
      </trkpt>
      <trkpt lat="45.01947" lon="1.09685">
        <ele>178.19999694824</ele>
        <time>2011-06-29T09:44:38.000Z</time>
      </trkpt>
      <trkpt lat="45.01957" lon="1.09689">
        <ele>178.19999694824</ele>
        <time>2011-06-29T09:44:40.000Z</time>
      </trkpt>
      <trkpt lat="45.01985" lon="1.09696">
        <ele>178.39999389648</ele>
        <time>2011-06-29T09:44:46.000Z</time>
      </trkpt>
      <trkpt lat="45.02025" lon="1.09699">
        <ele>179.19999694824</ele>
        <time>2011-06-29T09:44:54.000Z</time>
      </trkpt>
      <trkpt lat="45.02057" lon="1.09701">
        <ele>181</ele>
        <time>2011-06-29T09:45:01.000Z</time>
      </trkpt>
      <trkpt lat="45.02084" lon="1.09704">
        <ele>182.80000305176</ele>
        <time>2011-06-29T09:45:09.000Z</time>
      </trkpt>
      <trkpt lat="45.02107" lon="1.09706">
        <ele>185</ele>
        <time>2011-06-29T09:45:18.000Z</time>
      </trkpt>
      <trkpt lat="45.02111" lon="1.09706">
        <ele>185.39999389648</ele>
        <time>2011-06-29T09:45:20.000Z</time>
      </trkpt>
      <trkpt lat="45.0212" lon="1.09705">
        <ele>186</ele>
        <time>2011-06-29T09:45:25.000Z</time>
      </trkpt>
      <trkpt lat="45.02139" lon="1.097">
        <ele>187.19999694824</ele>
        <time>2011-06-29T09:45:33.000Z</time>
      </trkpt>
      <trkpt lat="45.02154" lon="1.09695">
        <ele>188.39999389648</ele>
        <time>2011-06-29T09:45:40.000Z</time>
      </trkpt>
      <trkpt lat="45.02171" lon="1.09691">
        <ele>189.39999389648</ele>
        <time>2011-06-29T09:45:48.000Z</time>
      </trkpt>
      <trkpt lat="45.02188" lon="1.09689">
        <ele>191.39999389648</ele>
        <time>2011-06-29T09:45:56.000Z</time>
      </trkpt>
      <trkpt lat="45.02207" lon="1.09687">
        <ele>195.39999389648</ele>
        <time>2011-06-29T09:46:05.000Z</time>
      </trkpt>
      <trkpt lat="45.02228" lon="1.09685">
        <ele>199.60000610352</ele>
        <time>2011-06-29T09:46:14.000Z</time>
      </trkpt>
      <trkpt lat="45.02247" lon="1.09679">
        <ele>203.60000610352</ele>
        <time>2011-06-29T09:46:23.000Z</time>
      </trkpt>
      <trkpt lat="45.02262" lon="1.09661">
        <ele>207.80000305176</ele>
        <time>2011-06-29T09:46:32.000Z</time>
      </trkpt>
      <trkpt lat="45.02275" lon="1.09644">
        <ele>210.60000610352</ele>
        <time>2011-06-29T09:46:41.000Z</time>
      </trkpt>
      <trkpt lat="45.02289" lon="1.09624">
        <ele>212.80000305176</ele>
        <time>2011-06-29T09:46:50.000Z</time>
      </trkpt>
      <trkpt lat="45.02296" lon="1.09609">
        <ele>213.19999694824</ele>
        <time>2011-06-29T09:46:57.000Z</time>
      </trkpt>
      <trkpt lat="45.02298" lon="1.09607">
        <ele>213.19999694824</ele>
        <time>2011-06-29T09:46:59.000Z</time>
      </trkpt>
      <trkpt lat="45.02298" lon="1.09604">
        <ele>213.39999389648</ele>
        <time>2011-06-29T09:47:04.000Z</time>
      </trkpt>
      <trkpt lat="45.02298" lon="1.09604">
        <ele>213.60000610352</ele>
        <time>2011-06-29T09:47:05.000Z</time>
      </trkpt>
      <trkpt lat="45.023" lon="1.09594">
        <ele>210.19999694824</ele>
        <time>2011-06-29T09:56:00.000Z</time>
      </trkpt>
      <trkpt lat="45.02309" lon="1.09576">
        <ele>210.19999694824</ele>
        <time>2011-06-29T09:56:07.000Z</time>
      </trkpt>
      <trkpt lat="45.02318" lon="1.09557">
        <ele>210.60000610352</ele>
        <time>2011-06-29T09:56:13.000Z</time>
      </trkpt>
      <trkpt lat="45.0233" lon="1.09533">
        <ele>209.60000610352</ele>
        <time>2011-06-29T09:56:19.000Z</time>
      </trkpt>
      <trkpt lat="45.02344" lon="1.095">
        <ele>208.19999694824</ele>
        <time>2011-06-29T09:56:25.000Z</time>
      </trkpt>
      <trkpt lat="45.02361" lon="1.09463">
        <ele>206.60000610352</ele>
        <time>2011-06-29T09:56:30.000Z</time>
      </trkpt>
      <trkpt lat="45.02385" lon="1.09404">
        <ele>205.39999389648</ele>
        <time>2011-06-29T09:56:36.000Z</time>
      </trkpt>
      <trkpt lat="45.02406" lon="1.09366">
        <ele>204.60000610352</ele>
        <time>2011-06-29T09:56:40.000Z</time>
      </trkpt>
      <trkpt lat="45.02437" lon="1.09326">
        <ele>204.80000305176</ele>
        <time>2011-06-29T09:56:46.000Z</time>
      </trkpt>
      <trkpt lat="45.0246" lon="1.09299">
        <ele>206.80000305176</ele>
        <time>2011-06-29T09:56:52.000Z</time>
      </trkpt>
      <trkpt lat="45.02489" lon="1.09263">
        <ele>207.60000610352</ele>
        <time>2011-06-29T09:57:00.000Z</time>
      </trkpt>
      <trkpt lat="45.02524" lon="1.0922">
        <ele>207.80000305176</ele>
        <time>2011-06-29T09:57:09.000Z</time>
      </trkpt>
      <trkpt lat="45.02531" lon="1.09212">
        <ele>208.39999389648</ele>
        <time>2011-06-29T09:57:11.000Z</time>
      </trkpt>
      <trkpt lat="45.02539" lon="1.09204">
        <ele>208.39999389648</ele>
        <time>2011-06-29T09:57:13.000Z</time>
      </trkpt>
      <trkpt lat="45.02563" lon="1.0919">
        <ele>208.80000305176</ele>
        <time>2011-06-29T09:57:19.000Z</time>
      </trkpt>
      <trkpt lat="45.0259" lon="1.09177">
        <ele>212</ele>
        <time>2011-06-29T09:57:25.000Z</time>
      </trkpt>
      <trkpt lat="45.02612" lon="1.09171">
        <ele>214.19999694824</ele>
        <time>2011-06-29T09:57:29.000Z</time>
      </trkpt>
      <trkpt lat="45.02636" lon="1.09167">
        <ele>215.39999389648</ele>
        <time>2011-06-29T09:57:34.000Z</time>
      </trkpt>
      <trkpt lat="45.02666" lon="1.09161">
        <ele>216.80000305176</ele>
        <time>2011-06-29T09:57:40.000Z</time>
      </trkpt>
      <trkpt lat="45.02684" lon="1.09152">
        <ele>218.19999694824</ele>
        <time>2011-06-29T09:57:44.000Z</time>
      </trkpt>
      <trkpt lat="45.02707" lon="1.09135">
        <ele>219</ele>
        <time>2011-06-29T09:57:49.000Z</time>
      </trkpt>
      <trkpt lat="45.02726" lon="1.09122">
        <ele>218.60000610352</ele>
        <time>2011-06-29T09:57:53.000Z</time>
      </trkpt>
      <trkpt lat="45.02745" lon="1.0911">
        <ele>217</ele>
        <time>2011-06-29T09:57:57.000Z</time>
      </trkpt>
      <trkpt lat="45.02788" lon="1.09095">
        <ele>216.39999389648</ele>
        <time>2011-06-29T09:58:05.000Z</time>
      </trkpt>
      <trkpt lat="45.02822" lon="1.09098">
        <ele>217.80000305176</ele>
        <time>2011-06-29T09:58:12.000Z</time>
      </trkpt>
      <trkpt lat="45.02846" lon="1.09096">
        <ele>219.60000610352</ele>
        <time>2011-06-29T09:58:18.000Z</time>
      </trkpt>
      <trkpt lat="45.02873" lon="1.09083">
        <ele>220.39999389648</ele>
        <time>2011-06-29T09:58:25.000Z</time>
      </trkpt>
      <trkpt lat="45.02906" lon="1.09076">
        <ele>222.60000610352</ele>
        <time>2011-06-29T09:58:33.000Z</time>
      </trkpt>
      <trkpt lat="45.02939" lon="1.09075">
        <ele>224.80000305176</ele>
        <time>2011-06-29T09:58:41.000Z</time>
      </trkpt>
      <trkpt lat="45.02956" lon="1.09075">
        <ele>225.39999389648</ele>
        <time>2011-06-29T09:58:45.000Z</time>
      </trkpt>
      <trkpt lat="45.02969" lon="1.09071">
        <ele>225.60000610352</ele>
        <time>2011-06-29T09:58:48.000Z</time>
      </trkpt>
      <trkpt lat="45.03021" lon="1.09042">
        <ele>225.60000610352</ele>
        <time>2011-06-29T09:58:59.000Z</time>
      </trkpt>
      <trkpt lat="45.03057" lon="1.09017">
        <ele>223.60000610352</ele>
        <time>2011-06-29T09:59:06.000Z</time>
      </trkpt>
      <trkpt lat="45.03066" lon="1.09006">
        <ele>223.19999694824</ele>
        <time>2011-06-29T09:59:08.000Z</time>
      </trkpt>
      <trkpt lat="45.03071" lon="1.08987">
        <ele>223</ele>
        <time>2011-06-29T09:59:12.000Z</time>
      </trkpt>
      <trkpt lat="45.03067" lon="1.08977">
        <ele>222.80000305176</ele>
        <time>2011-06-29T09:59:14.000Z</time>
      </trkpt>
      <trkpt lat="45.03049" lon="1.08931">
        <ele>221.39999389648</ele>
        <time>2011-06-29T09:59:22.000Z</time>
      </trkpt>
      <trkpt lat="45.03035" lon="1.08872">
        <ele>223.39999389648</ele>
        <time>2011-06-29T09:59:30.000Z</time>
      </trkpt>
      <trkpt lat="45.03027" lon="1.08825">
        <ele>223.80000305176</ele>
        <time>2011-06-29T09:59:36.000Z</time>
      </trkpt>
      <trkpt lat="45.03012" lon="1.08737">
        <ele>222.60000610352</ele>
        <time>2011-06-29T09:59:47.000Z</time>
      </trkpt>
      <trkpt lat="45.02994" lon="1.08672">
        <ele>223.39999389648</ele>
        <time>2011-06-29T09:59:55.000Z</time>
      </trkpt>
      <trkpt lat="45.02969" lon="1.08612">
        <ele>223.80000305176</ele>
        <time>2011-06-29T10:00:03.000Z</time>
      </trkpt>
      <trkpt lat="45.02936" lon="1.08552">
        <ele>224.19999694824</ele>
        <time>2011-06-29T10:00:12.000Z</time>
      </trkpt>
      <trkpt lat="45.029" lon="1.08493">
        <ele>223</ele>
        <time>2011-06-29T10:00:22.000Z</time>
      </trkpt>
      <trkpt lat="45.02859" lon="1.08434">
        <ele>223.39999389648</ele>
        <time>2011-06-29T10:00:33.000Z</time>
      </trkpt>
      <trkpt lat="45.02827" lon="1.08384">
        <ele>223.80000305176</ele>
        <time>2011-06-29T10:00:42.000Z</time>
      </trkpt>
      <trkpt lat="45.028" lon="1.08329">
        <ele>222.80000305176</ele>
        <time>2011-06-29T10:00:51.000Z</time>
      </trkpt>
      <trkpt lat="45.02784" lon="1.08286">
        <ele>223</ele>
        <time>2011-06-29T10:00:57.000Z</time>
      </trkpt>
      <trkpt lat="45.0277" lon="1.0822">
        <ele>224.39999389648</ele>
        <time>2011-06-29T10:01:06.000Z</time>
      </trkpt>
      <trkpt lat="45.02766" lon="1.08198">
        <ele>225.19999694824</ele>
        <time>2011-06-29T10:01:09.000Z</time>
      </trkpt>
      <trkpt lat="45.02756" lon="1.08172">
        <ele>225.60000610352</ele>
        <time>2011-06-29T10:01:13.000Z</time>
      </trkpt>
      <trkpt lat="45.02733" lon="1.08139">
        <ele>226.60000610352</ele>
        <time>2011-06-29T10:01:20.000Z</time>
      </trkpt>
      <trkpt lat="45.02697" lon="1.08094">
        <ele>227.80000305176</ele>
        <time>2011-06-29T10:01:29.000Z</time>
      </trkpt>
      <trkpt lat="45.02664" lon="1.08051">
        <ele>228.60000610352</ele>
        <time>2011-06-29T10:01:36.000Z</time>
      </trkpt>
      <trkpt lat="45.02638" lon="1.08006">
        <ele>229.39999389648</ele>
        <time>2011-06-29T10:01:43.000Z</time>
      </trkpt>
      <trkpt lat="45.02619" lon="1.07965">
        <ele>231.60000610352</ele>
        <time>2011-06-29T10:01:49.000Z</time>
      </trkpt>
      <trkpt lat="45.02612" lon="1.07954">
        <ele>232</ele>
        <time>2011-06-29T10:01:51.000Z</time>
      </trkpt>
      <trkpt lat="45.02599" lon="1.07939">
        <ele>232.19999694824</ele>
        <time>2011-06-29T10:01:54.000Z</time>
      </trkpt>
      <trkpt lat="45.02559" lon="1.07922">
        <ele>231.19999694824</ele>
        <time>2011-06-29T10:02:01.000Z</time>
      </trkpt>
      <trkpt lat="45.02509" lon="1.07906">
        <ele>230.19999694824</ele>
        <time>2011-06-29T10:02:10.000Z</time>
      </trkpt>
      <trkpt lat="45.02469" lon="1.07893">
        <ele>229.80000305176</ele>
        <time>2011-06-29T10:02:18.000Z</time>
      </trkpt>
      <trkpt lat="45.02419" lon="1.07875">
        <ele>229</ele>
        <time>2011-06-29T10:02:27.000Z</time>
      </trkpt>
      <trkpt lat="45.02358" lon="1.07854">
        <ele>228.19999694824</ele>
        <time>2011-06-29T10:02:37.000Z</time>
      </trkpt>
      <trkpt lat="45.02315" lon="1.0783">
        <ele>227.19999694824</ele>
        <time>2011-06-29T10:02:44.000Z</time>
      </trkpt>
      <trkpt lat="45.02281" lon="1.07797">
        <ele>225.80000305176</ele>
        <time>2011-06-29T10:02:50.000Z</time>
      </trkpt>
      <trkpt lat="45.02255" lon="1.07769">
        <ele>224.39999389648</ele>
        <time>2011-06-29T10:02:55.000Z</time>
      </trkpt>
      <trkpt lat="45.02244" lon="1.07758">
        <ele>224.19999694824</ele>
        <time>2011-06-29T10:02:57.000Z</time>
      </trkpt>
      <trkpt lat="45.02232" lon="1.07763">
        <ele>223.60000610352</ele>
        <time>2011-06-29T10:03:00.000Z</time>
      </trkpt>
      <trkpt lat="45.0223" lon="1.07783">
        <ele>223.39999389648</ele>
        <time>2011-06-29T10:03:03.000Z</time>
      </trkpt>
      <trkpt lat="45.02227" lon="1.07797">
        <ele>223</ele>
        <time>2011-06-29T10:03:05.000Z</time>
      </trkpt>
      <trkpt lat="45.02217" lon="1.07849">
        <ele>221</ele>
        <time>2011-06-29T10:03:12.000Z</time>
      </trkpt>
      <trkpt lat="45.02206" lon="1.079">
        <ele>218.19999694824</ele>
        <time>2011-06-29T10:03:19.000Z</time>
      </trkpt>
      <trkpt lat="45.02205" lon="1.07905">
        <ele>217.80000305176</ele>
        <time>2011-06-29T10:03:20.000Z</time>
      </trkpt>
      <trkpt lat="45.02194" lon="1.07898">
        <ele>215</ele>
        <time>2011-06-29T10:03:25.000Z</time>
      </trkpt>
      <trkpt lat="45.02191" lon="1.07887">
        <ele>214.19999694824</ele>
        <time>2011-06-29T10:03:27.000Z</time>
      </trkpt>
      <trkpt lat="45.02188" lon="1.07873">
        <ele>212.19999694824</ele>
        <time>2011-06-29T10:03:29.000Z</time>
      </trkpt>
      <trkpt lat="45.02184" lon="1.07852">
        <ele>210</ele>
        <time>2011-06-29T10:03:32.000Z</time>
      </trkpt>
      <trkpt lat="45.02174" lon="1.07811">
        <ele>209.60000610352</ele>
        <time>2011-06-29T10:03:38.000Z</time>
      </trkpt>
      <trkpt lat="45.0217" lon="1.07799">
        <ele>210.39999389648</ele>
        <time>2011-06-29T10:03:40.000Z</time>
      </trkpt>
      <trkpt lat="45.02157" lon="1.07769">
        <ele>215.39999389648</ele>
        <time>2011-06-29T10:03:45.000Z</time>
      </trkpt>
      <trkpt lat="45.02142" lon="1.07739">
        <ele>222.80000305176</ele>
        <time>2011-06-29T10:03:50.000Z</time>
      </trkpt>
      <trkpt lat="45.02132" lon="1.0772">
        <ele>225.80000305176</ele>
        <time>2011-06-29T10:03:53.000Z</time>
      </trkpt>
      <trkpt lat="45.02123" lon="1.07695">
        <ele>230.39999389648</ele>
        <time>2011-06-29T10:03:57.000Z</time>
      </trkpt>
      <trkpt lat="45.02104" lon="1.07656">
        <ele>234.19999694824</ele>
        <time>2011-06-29T10:04:04.000Z</time>
      </trkpt>
      <trkpt lat="45.02092" lon="1.07633">
        <ele>236.19999694824</ele>
        <time>2011-06-29T10:04:08.000Z</time>
      </trkpt>
      <trkpt lat="45.02073" lon="1.07599">
        <ele>237.39999389648</ele>
        <time>2011-06-29T10:04:14.000Z</time>
      </trkpt>
      <trkpt lat="45.02048" lon="1.07543">
        <ele>241.60000610352</ele>
        <time>2011-06-29T10:04:22.000Z</time>
      </trkpt>
      <trkpt lat="45.02043" lon="1.07529">
        <ele>241.19999694824</ele>
        <time>2011-06-29T10:04:24.000Z</time>
      </trkpt>
      <trkpt lat="45.02037" lon="1.07519">
        <ele>236.19999694824</ele>
        <time>2011-06-29T10:04:26.000Z</time>
      </trkpt>
      <trkpt lat="45.02023" lon="1.07484">
        <ele>237.19999694824</ele>
        <time>2011-06-29T10:04:31.000Z</time>
      </trkpt>
      <trkpt lat="45.0201" lon="1.07452">
        <ele>233</ele>
        <time>2011-06-29T10:04:38.000Z</time>
      </trkpt>
      <trkpt lat="45.02005" lon="1.07447">
        <ele>230.39999389648</ele>
        <time>2011-06-29T10:04:42.000Z</time>
      </trkpt>
      <trkpt lat="45.02005" lon="1.07447">
        <ele>229.60000610352</ele>
        <time>2011-06-29T10:04:43.000Z</time>
      </trkpt>
      <trkpt lat="45.02004" lon="1.07449">
        <ele>224.39999389648</ele>
        <time>2011-06-29T10:06:33.000Z</time>
      </trkpt>
      <trkpt lat="45.01987" lon="1.07426">
        <ele>222.60000610352</ele>
        <time>2011-06-29T10:06:40.000Z</time>
      </trkpt>
      <trkpt lat="45.01985" lon="1.07423">
        <ele>222.19999694824</ele>
        <time>2011-06-29T10:06:41.000Z</time>
      </trkpt>
      <trkpt lat="45.01974" lon="1.074">
        <ele>221</ele>
        <time>2011-06-29T10:06:46.000Z</time>
      </trkpt>
      <trkpt lat="45.01964" lon="1.07381">
        <ele>220.19999694824</ele>
        <time>2011-06-29T10:06:50.000Z</time>
      </trkpt>
      <trkpt lat="45.01948" lon="1.07361">
        <ele>220.19999694824</ele>
        <time>2011-06-29T10:06:55.000Z</time>
      </trkpt>
      <trkpt lat="45.01935" lon="1.0734">
        <ele>221.80000305176</ele>
        <time>2011-06-29T10:06:59.000Z</time>
      </trkpt>
      <trkpt lat="45.01912" lon="1.07297">
        <ele>230.39999389648</ele>
        <time>2011-06-29T10:07:06.000Z</time>
      </trkpt>
      <trkpt lat="45.0191" lon="1.07291">
        <ele>231.39999389648</ele>
        <time>2011-06-29T10:07:07.000Z</time>
      </trkpt>
      <trkpt lat="45.019" lon="1.07274">
        <ele>234.19999694824</ele>
        <time>2011-06-29T10:07:10.000Z</time>
      </trkpt>
      <trkpt lat="45.01875" lon="1.0724">
        <ele>237.60000610352</ele>
        <time>2011-06-29T10:07:17.000Z</time>
      </trkpt>
      <trkpt lat="45.01854" lon="1.07213">
        <ele>239</ele>
        <time>2011-06-29T10:07:23.000Z</time>
      </trkpt>
      <trkpt lat="45.0183" lon="1.07176">
        <ele>240.80000305176</ele>
        <time>2011-06-29T10:07:31.000Z</time>
      </trkpt>
      <trkpt lat="45.01817" lon="1.07158">
        <ele>240.39999389648</ele>
        <time>2011-06-29T10:07:35.000Z</time>
      </trkpt>
      <trkpt lat="45.01802" lon="1.07128">
        <ele>242.39999389648</ele>
        <time>2011-06-29T10:07:41.000Z</time>
      </trkpt>
      <trkpt lat="45.01791" lon="1.07116">
        <ele>238.60000610352</ele>
        <time>2011-06-29T10:07:47.000Z</time>
      </trkpt>
      <trkpt lat="45.01773" lon="1.07109">
        <ele>234.19999694824</ele>
        <time>2011-06-29T10:07:52.000Z</time>
      </trkpt>
      <trkpt lat="45.01735" lon="1.07092">
        <ele>230.80000305176</ele>
        <time>2011-06-29T10:08:01.000Z</time>
      </trkpt>
      <trkpt lat="45.01714" lon="1.07089">
        <ele>230.19999694824</ele>
        <time>2011-06-29T10:08:07.000Z</time>
      </trkpt>
      <trkpt lat="45.01706" lon="1.07089">
        <ele>229.80000305176</ele>
        <time>2011-06-29T10:08:11.000Z</time>
      </trkpt>
      <trkpt lat="45.01706" lon="1.07089">
        <ele>229.60000610352</ele>
        <time>2011-06-29T10:08:13.000Z</time>
      </trkpt>
      <trkpt lat="45.01692" lon="1.07078">
        <ele>230</ele>
        <time>2011-06-29T10:11:42.000Z</time>
      </trkpt>
      <trkpt lat="45.01683" lon="1.07071">
        <ele>230</ele>
        <time>2011-06-29T10:11:47.000Z</time>
      </trkpt>
      <trkpt lat="45.01668" lon="1.07063">
        <ele>229.19999694824</ele>
        <time>2011-06-29T10:11:52.000Z</time>
      </trkpt>
      <trkpt lat="45.01643" lon="1.07047">
        <ele>228.39999389648</ele>
        <time>2011-06-29T10:11:59.000Z</time>
      </trkpt>
      <trkpt lat="45.01603" lon="1.07021">
        <ele>227.39999389648</ele>
        <time>2011-06-29T10:12:08.000Z</time>
      </trkpt>
      <trkpt lat="45.01574" lon="1.07002">
        <ele>226.39999389648</ele>
        <time>2011-06-29T10:12:15.000Z</time>
      </trkpt>
      <trkpt lat="45.0157" lon="1.06999">
        <ele>226.19999694824</ele>
        <time>2011-06-29T10:12:16.000Z</time>
      </trkpt>
      <trkpt lat="45.01556" lon="1.06996">
        <ele>226.80000305176</ele>
        <time>2011-06-29T10:12:19.000Z</time>
      </trkpt>
      <trkpt lat="45.01543" lon="1.06992">
        <ele>226.60000610352</ele>
        <time>2011-06-29T10:12:22.000Z</time>
      </trkpt>
      <trkpt lat="45.01534" lon="1.06988">
        <ele>226.60000610352</ele>
        <time>2011-06-29T10:12:24.000Z</time>
      </trkpt>
      <trkpt lat="45.01501" lon="1.06974">
        <ele>226.80000305176</ele>
        <time>2011-06-29T10:12:31.000Z</time>
      </trkpt>
      <trkpt lat="45.01493" lon="1.06971">
        <ele>226.39999389648</ele>
        <time>2011-06-29T10:12:33.000Z</time>
      </trkpt>
      <trkpt lat="45.0148" lon="1.06963">
        <ele>225.80000305176</ele>
        <time>2011-06-29T10:12:36.000Z</time>
      </trkpt>
      <trkpt lat="45.01447" lon="1.06956">
        <ele>225.60000610352</ele>
        <time>2011-06-29T10:12:42.000Z</time>
      </trkpt>
      <trkpt lat="45.01425" lon="1.06944">
        <ele>224.19999694824</ele>
        <time>2011-06-29T10:12:46.000Z</time>
      </trkpt>
      <trkpt lat="45.01384" lon="1.06932">
        <ele>221.60000610352</ele>
        <time>2011-06-29T10:12:52.000Z</time>
      </trkpt>
      <trkpt lat="45.0135" lon="1.06923">
        <ele>219</ele>
        <time>2011-06-29T10:12:56.000Z</time>
      </trkpt>
      <trkpt lat="45.01315" lon="1.06911">
        <ele>214.19999694824</ele>
        <time>2011-06-29T10:13:00.000Z</time>
      </trkpt>
      <trkpt lat="45.01266" lon="1.06892">
        <ele>207.39999389648</ele>
        <time>2011-06-29T10:13:06.000Z</time>
      </trkpt>
      <trkpt lat="45.01258" lon="1.06889">
        <ele>207</ele>
        <time>2011-06-29T10:13:07.000Z</time>
      </trkpt>
      <trkpt lat="45.01243" lon="1.06883">
        <ele>205.80000305176</ele>
        <time>2011-06-29T10:13:09.000Z</time>
      </trkpt>
      <trkpt lat="45.0122" lon="1.06855">
        <ele>202.39999389648</ele>
        <time>2011-06-29T10:13:13.000Z</time>
      </trkpt>
      <trkpt lat="45.01206" lon="1.0682">
        <ele>199</ele>
        <time>2011-06-29T10:13:17.000Z</time>
      </trkpt>
      <trkpt lat="45.01198" lon="1.06795">
        <ele>194.60000610352</ele>
        <time>2011-06-29T10:13:22.000Z</time>
      </trkpt>
      <trkpt lat="45.01198" lon="1.06791">
        <ele>194</ele>
        <time>2011-06-29T10:13:23.000Z</time>
      </trkpt>
      <trkpt lat="45.01192" lon="1.06773">
        <ele>191.19999694824</ele>
        <time>2011-06-29T10:13:29.000Z</time>
      </trkpt>
      <trkpt lat="45.01191" lon="1.06771">
        <ele>191.39999389648</ele>
        <time>2011-06-29T10:13:30.000Z</time>
      </trkpt>
      <trkpt lat="45.01184" lon="1.06753">
        <ele>193.80000305176</ele>
        <time>2011-06-29T10:13:36.000Z</time>
      </trkpt>
      <trkpt lat="45.0118" lon="1.06741">
        <ele>191.80000305176</ele>
        <time>2011-06-29T10:13:41.000Z</time>
      </trkpt>
      <trkpt lat="45.01173" lon="1.06734">
        <ele>194</ele>
        <time>2011-06-29T10:13:45.000Z</time>
      </trkpt>
      <trkpt lat="45.01169" lon="1.06732">
        <ele>194.60000610352</ele>
        <time>2011-06-29T10:13:46.000Z</time>
      </trkpt>
      <trkpt lat="45.01159" lon="1.06724">
        <ele>195</ele>
        <time>2011-06-29T10:13:48.000Z</time>
      </trkpt>
      <trkpt lat="45.01141" lon="1.06694">
        <ele>192.60000610352</ele>
        <time>2011-06-29T10:13:52.000Z</time>
      </trkpt>
      <trkpt lat="45.01117" lon="1.06649">
        <ele>191</ele>
        <time>2011-06-29T10:13:57.000Z</time>
      </trkpt>
      <trkpt lat="45.01092" lon="1.0662">
        <ele>185.80000305176</ele>
        <time>2011-06-29T10:14:01.000Z</time>
      </trkpt>
      <trkpt lat="45.01058" lon="1.06617">
        <ele>183.80000305176</ele>
        <time>2011-06-29T10:14:05.000Z</time>
      </trkpt>
      <trkpt lat="45.01039" lon="1.06633">
        <ele>181.80000305176</ele>
        <time>2011-06-29T10:14:07.000Z</time>
      </trkpt>
      <trkpt lat="45.01022" lon="1.0665">
        <ele>178.80000305176</ele>
        <time>2011-06-29T10:14:09.000Z</time>
      </trkpt>
      <trkpt lat="45.01009" lon="1.06668">
        <ele>175.19999694824</ele>
        <time>2011-06-29T10:14:11.000Z</time>
      </trkpt>
      <trkpt lat="45.00988" lon="1.06698">
        <ele>170</ele>
        <time>2011-06-29T10:14:14.000Z</time>
      </trkpt>
      <trkpt lat="45.00963" lon="1.06736">
        <ele>165.80000305176</ele>
        <time>2011-06-29T10:14:18.000Z</time>
      </trkpt>
      <trkpt lat="45.00953" lon="1.06755">
        <ele>163</ele>
        <time>2011-06-29T10:14:20.000Z</time>
      </trkpt>
      <trkpt lat="45.00939" lon="1.06807">
        <ele>160.39999389648</ele>
        <time>2011-06-29T10:14:24.000Z</time>
      </trkpt>
      <trkpt lat="45.00915" lon="1.06872">
        <ele>153</ele>
        <time>2011-06-29T10:14:30.000Z</time>
      </trkpt>
      <trkpt lat="45.00905" lon="1.0687">
        <ele>154.80000305176</ele>
        <time>2011-06-29T10:14:32.000Z</time>
      </trkpt>
      <trkpt lat="45.00899" lon="1.06868">
        <ele>156</ele>
        <time>2011-06-29T10:14:33.000Z</time>
      </trkpt>
      <trkpt lat="45.00891" lon="1.06867">
        <ele>158.19999694824</ele>
        <time>2011-06-29T10:14:39.000Z</time>
      </trkpt>
      <trkpt lat="45.00886" lon="1.06865">
        <ele>158.19999694824</ele>
        <time>2011-06-29T10:14:45.000Z</time>
      </trkpt>
      <trkpt lat="45.00879" lon="1.06859">
        <ele>159</ele>
        <time>2011-06-29T10:15:07.000Z</time>
      </trkpt>
      <trkpt lat="45.00864" lon="1.06854">
        <ele>161.39999389648</ele>
        <time>2011-06-29T10:15:13.000Z</time>
      </trkpt>
      <trkpt lat="45.00838" lon="1.06849">
        <ele>161.60000610352</ele>
        <time>2011-06-29T10:15:22.000Z</time>
      </trkpt>
      <trkpt lat="45.00812" lon="1.06847">
        <ele>161.60000610352</ele>
        <time>2011-06-29T10:15:29.000Z</time>
      </trkpt>
      <trkpt lat="45.00782" lon="1.06844">
        <ele>160.39999389648</ele>
        <time>2011-06-29T10:15:35.000Z</time>
      </trkpt>
      <trkpt lat="45.00769" lon="1.06837">
        <ele>159.39999389648</ele>
        <time>2011-06-29T10:15:38.000Z</time>
      </trkpt>
      <trkpt lat="45.00743" lon="1.06836">
        <ele>157.60000610352</ele>
        <time>2011-06-29T10:15:43.000Z</time>
      </trkpt>
      <trkpt lat="45.0073" lon="1.0684">
        <ele>156.19999694824</ele>
        <time>2011-06-29T10:15:46.000Z</time>
      </trkpt>
      <trkpt lat="45.00718" lon="1.06841">
        <ele>155.60000610352</ele>
        <time>2011-06-29T10:15:49.000Z</time>
      </trkpt>
      <trkpt lat="45.00712" lon="1.06832">
        <ele>155.60000610352</ele>
        <time>2011-06-29T10:15:51.000Z</time>
      </trkpt>
      <trkpt lat="45.00695" lon="1.06802">
        <ele>155.39999389648</ele>
        <time>2011-06-29T10:15:59.000Z</time>
      </trkpt>
      <trkpt lat="45.00684" lon="1.06779">
        <ele>154.60000610352</ele>
        <time>2011-06-29T10:16:05.000Z</time>
      </trkpt>
      <trkpt lat="45.00678" lon="1.06766">
        <ele>154</ele>
        <time>2011-06-29T10:16:08.000Z</time>
      </trkpt>
      <trkpt lat="45.00663" lon="1.06751">
        <ele>152.39999389648</ele>
        <time>2011-06-29T10:16:12.000Z</time>
      </trkpt>
      <trkpt lat="45.00645" lon="1.06762">
        <ele>148.60000610352</ele>
        <time>2011-06-29T10:16:15.000Z</time>
      </trkpt>
      <trkpt lat="45.0061" lon="1.0679">
        <ele>141.39999389648</ele>
        <time>2011-06-29T10:16:20.000Z</time>
      </trkpt>
      <trkpt lat="45.00592" lon="1.06823">
        <ele>137.19999694824</ele>
        <time>2011-06-29T10:16:24.000Z</time>
      </trkpt>
      <trkpt lat="45.00584" lon="1.06852">
        <ele>135.19999694824</ele>
        <time>2011-06-29T10:16:27.000Z</time>
      </trkpt>
      <trkpt lat="45.00569" lon="1.0688">
        <ele>130.60000610352</ele>
        <time>2011-06-29T10:16:31.000Z</time>
      </trkpt>
      <trkpt lat="45.00557" lon="1.06912">
        <ele>126.40000152588</ele>
        <time>2011-06-29T10:16:35.000Z</time>
      </trkpt>
      <trkpt lat="45.00554" lon="1.06932">
        <ele>124.59999847412</ele>
        <time>2011-06-29T10:16:37.000Z</time>
      </trkpt>
      <trkpt lat="45.00539" lon="1.06956">
        <ele>120</ele>
        <time>2011-06-29T10:16:41.000Z</time>
      </trkpt>
      <trkpt lat="45.00515" lon="1.06969">
        <ele>115.19999694824</ele>
        <time>2011-06-29T10:16:45.000Z</time>
      </trkpt>
      <trkpt lat="45.00483" lon="1.06987">
        <ele>108.40000152588</ele>
        <time>2011-06-29T10:16:50.000Z</time>
      </trkpt>
      <trkpt lat="45.00469" lon="1.06991">
        <ele>104.19999694824</ele>
        <time>2011-06-29T10:16:54.000Z</time>
      </trkpt>
      <trkpt lat="45.00468" lon="1.06982">
        <ele>102</ele>
        <time>2011-06-29T10:16:57.000Z</time>
      </trkpt>
      <trkpt lat="45.00466" lon="1.06959">
        <ele>97.800003051758</ele>
        <time>2011-06-29T10:17:04.000Z</time>
      </trkpt>
      <trkpt lat="45.00463" lon="1.06932">
        <ele>96.199996948242</ele>
        <time>2011-06-29T10:17:12.000Z</time>
      </trkpt>
      <trkpt lat="45.00469" lon="1.06916">
        <ele>95.400001525879</ele>
        <time>2011-06-29T10:17:17.000Z</time>
      </trkpt>
      <trkpt lat="45.00474" lon="1.06905">
        <ele>96.199996948242</ele>
        <time>2011-06-29T10:17:21.000Z</time>
      </trkpt>
      <trkpt lat="45.00476" lon="1.06882">
        <ele>95.800003051758</ele>
        <time>2011-06-29T10:17:27.000Z</time>
      </trkpt>
      <trkpt lat="45.00476" lon="1.06875">
        <ele>95.599998474121</ele>
        <time>2011-06-29T10:17:28.000Z</time>
      </trkpt>
      <trkpt lat="45.00476" lon="1.06837">
        <ele>94</ele>
        <time>2011-06-29T10:17:33.000Z</time>
      </trkpt>
      <trkpt lat="45.00474" lon="1.06829">
        <ele>94</ele>
        <time>2011-06-29T10:17:34.000Z</time>
      </trkpt>
      <trkpt lat="45.00464" lon="1.06816">
        <ele>95</ele>
        <time>2011-06-29T10:17:38.000Z</time>
      </trkpt>
      <trkpt lat="45.00455" lon="1.06802">
        <ele>97.199996948242</ele>
        <time>2011-06-29T10:17:43.000Z</time>
      </trkpt>
      <trkpt lat="45.00446" lon="1.06786">
        <ele>98.400001525879</ele>
        <time>2011-06-29T10:17:49.000Z</time>
      </trkpt>
      <trkpt lat="45.00436" lon="1.06775">
        <ele>99.199996948242</ele>
        <time>2011-06-29T10:17:54.000Z</time>
      </trkpt>
      <trkpt lat="45.00426" lon="1.06769">
        <ele>101.59999847412</ele>
        <time>2011-06-29T10:17:58.000Z</time>
      </trkpt>
      <trkpt lat="45.00414" lon="1.06771">
        <ele>104.59999847412</ele>
        <time>2011-06-29T10:18:03.000Z</time>
      </trkpt>
      <trkpt lat="45.00395" lon="1.0675">
        <ele>110.40000152588</ele>
        <time>2011-06-29T10:18:12.000Z</time>
      </trkpt>
      <trkpt lat="45.00383" lon="1.0673">
        <ele>113.19999694824</ele>
        <time>2011-06-29T10:18:19.000Z</time>
      </trkpt>
      <trkpt lat="45.00373" lon="1.0671">
        <ele>115.19999694824</ele>
        <time>2011-06-29T10:18:25.000Z</time>
      </trkpt>
      <trkpt lat="45.00366" lon="1.06693">
        <ele>113.80000305176</ele>
        <time>2011-06-29T10:18:31.000Z</time>
      </trkpt>
      <trkpt lat="45.00357" lon="1.06674">
        <ele>112.80000305176</ele>
        <time>2011-06-29T10:18:38.000Z</time>
      </trkpt>
      <trkpt lat="45.00348" lon="1.06655">
        <ele>114</ele>
        <time>2011-06-29T10:18:43.000Z</time>
      </trkpt>
      <trkpt lat="45.0034" lon="1.06634">
        <ele>113.19999694824</ele>
        <time>2011-06-29T10:18:49.000Z</time>
      </trkpt>
      <trkpt lat="45.00329" lon="1.06607">
        <ele>115.40000152588</ele>
        <time>2011-06-29T10:18:56.000Z</time>
      </trkpt>
      <trkpt lat="45.00328" lon="1.06603">
        <ele>115.80000305176</ele>
        <time>2011-06-29T10:18:57.000Z</time>
      </trkpt>
      <trkpt lat="45.00323" lon="1.06596">
        <ele>116.59999847412</ele>
        <time>2011-06-29T10:19:00.000Z</time>
      </trkpt>
      <trkpt lat="45.00319" lon="1.06598">
        <ele>119</ele>
        <time>2011-06-29T10:19:05.000Z</time>
      </trkpt>
      <trkpt lat="45.00315" lon="1.06605">
        <ele>120.59999847412</ele>
        <time>2011-06-29T10:19:11.000Z</time>
      </trkpt>
      <trkpt lat="45.00314" lon="1.0661">
        <ele>121.40000152588</ele>
        <time>2011-06-29T10:19:14.000Z</time>
      </trkpt>
      <trkpt lat="45.00303" lon="1.0662">
        <ele>120.80000305176</ele>
        <time>2011-06-29T10:19:20.000Z</time>
      </trkpt>
      <trkpt lat="45.00296" lon="1.06634">
        <ele>120.59999847412</ele>
        <time>2011-06-29T10:19:25.000Z</time>
      </trkpt>
      <trkpt lat="45.00294" lon="1.06636">
        <ele>120.80000305176</ele>
        <time>2011-06-29T10:19:26.000Z</time>
      </trkpt>
      <trkpt lat="45.00279" lon="1.06657">
        <ele>120</ele>
        <time>2011-06-29T10:19:32.000Z</time>
      </trkpt>
      <trkpt lat="45.00255" lon="1.06685">
        <ele>117.80000305176</ele>
        <time>2011-06-29T10:19:39.000Z</time>
      </trkpt>
      <trkpt lat="45.00244" lon="1.06705">
        <ele>116</ele>
        <time>2011-06-29T10:19:43.000Z</time>
      </trkpt>
      <trkpt lat="45.00229" lon="1.06737">
        <ele>113</ele>
        <time>2011-06-29T10:19:47.000Z</time>
      </trkpt>
      <trkpt lat="45.00214" lon="1.0678">
        <ele>110.19999694824</ele>
        <time>2011-06-29T10:19:51.000Z</time>
      </trkpt>
      <trkpt lat="45.0021" lon="1.06804">
        <ele>108.80000305176</ele>
        <time>2011-06-29T10:19:53.000Z</time>
      </trkpt>
      <trkpt lat="45.00217" lon="1.06849">
        <ele>106.59999847412</ele>
        <time>2011-06-29T10:19:57.000Z</time>
      </trkpt>
      <trkpt lat="45.00226" lon="1.06879">
        <ele>102.80000305176</ele>
        <time>2011-06-29T10:20:01.000Z</time>
      </trkpt>
      <trkpt lat="45.00239" lon="1.06903">
        <ele>96.599998474121</ele>
        <time>2011-06-29T10:20:07.000Z</time>
      </trkpt>
      <trkpt lat="45.00248" lon="1.06915">
        <ele>92.800003051758</ele>
        <time>2011-06-29T10:20:13.000Z</time>
      </trkpt>
      <trkpt lat="45.00251" lon="1.06918">
        <ele>91.800003051758</ele>
        <time>2011-06-29T10:20:15.000Z</time>
      </trkpt>
      <trkpt lat="45.00253" lon="1.06927">
        <ele>90.800003051758</ele>
        <time>2011-06-29T10:20:21.000Z</time>
      </trkpt>
      <trkpt lat="45.00259" lon="1.0696">
        <ele>94.400001525879</ele>
        <time>2011-06-29T10:20:32.000Z</time>
      </trkpt>
      <trkpt lat="45.00265" lon="1.06988">
        <ele>92.800003051758</ele>
        <time>2011-06-29T10:20:35.000Z</time>
      </trkpt>
      <trkpt lat="45.00258" lon="1.07043">
        <ele>86.199996948242</ele>
        <time>2011-06-29T10:20:40.000Z</time>
      </trkpt>
      <trkpt lat="45.00246" lon="1.07052">
        <ele>83.400001525879</ele>
        <time>2011-06-29T10:20:43.000Z</time>
      </trkpt>
      <trkpt lat="45.00241" lon="1.0705">
        <ele>82.599998474121</ele>
        <time>2011-06-29T10:20:44.000Z</time>
      </trkpt>
      <trkpt lat="45.00218" lon="1.07053">
        <ele>78.800003051758</ele>
        <time>2011-06-29T10:20:49.000Z</time>
      </trkpt>
      <trkpt lat="45.00215" lon="1.07069">
        <ele>78</ele>
        <time>2011-06-29T10:20:51.000Z</time>
      </trkpt>
      <trkpt lat="45.00213" lon="1.07093">
        <ele>76.400001525879</ele>
        <time>2011-06-29T10:20:54.000Z</time>
      </trkpt>
      <trkpt lat="45.00209" lon="1.07106">
        <ele>75.199996948242</ele>
        <time>2011-06-29T10:20:58.000Z</time>
      </trkpt>
      <trkpt lat="45.00209" lon="1.07107">
        <ele>75</ele>
        <time>2011-06-29T10:20:59.000Z</time>
      </trkpt>
      <trkpt lat="45.00193" lon="1.07108">
        <ele>76</ele>
        <time>2011-06-29T10:25:23.000Z</time>
      </trkpt>
      <trkpt lat="45.00175" lon="1.07109">
        <ele>76.400001525879</ele>
        <time>2011-06-29T10:25:29.000Z</time>
      </trkpt>
      <trkpt lat="45.00173" lon="1.07112">
        <ele>76.400001525879</ele>
        <time>2011-06-29T10:25:30.000Z</time>
      </trkpt>
      <trkpt lat="45.0017" lon="1.07132">
        <ele>74.599998474121</ele>
        <time>2011-06-29T10:25:34.000Z</time>
      </trkpt>
      <trkpt lat="45.00167" lon="1.0714">
        <ele>73.800003051758</ele>
        <time>2011-06-29T10:25:38.000Z</time>
      </trkpt>
      <trkpt lat="45.00165" lon="1.07134">
        <ele>73.400001525879</ele>
        <time>2011-06-29T10:25:41.000Z</time>
      </trkpt>
      <trkpt lat="45.00164" lon="1.0713">
        <ele>72.800003051758</ele>
        <time>2011-06-29T10:25:46.000Z</time>
      </trkpt>
      <trkpt lat="45.00164" lon="1.07132">
        <ele>72.400001525879</ele>
        <time>2011-06-29T10:25:49.000Z</time>
      </trkpt>
      <trkpt lat="45.00164" lon="1.07133">
        <ele>72.199996948242</ele>
        <time>2011-06-29T10:25:52.000Z</time>
      </trkpt>
    </trkseg>
  </trk>
</gpx>